     2.11           OBSERVATION DATA    G (GPS)             RINEX VERSION / TYPE
teqc 2010Oct21 OPUS Account 20111026 21:21:17UTC            PGM / RUN BY / DATE
M 1523                                                      MARKER NAME
1192                                                        MARKER NUMBER
CSMIDDLETON NGS                                             OBSERVER / AGENCY
0220379089 TRIMBLE R7 2.28                                  REC # / TYPE / VERS
60124975 TRM41249.00 NONE                                   ANT # / TYPE
  -750993.9784 -5513729.0837  3106695.4443                  APPROX POSITION XYZ
        2.0010        0.0000        0.0000                  ANTENNA: DELTA H/E/N
     1     1                                                WAVELENGTH FACT L1/2
     5    L1    L2    C1    P1    P2                        # / TYPES OF OBSERV
    15                                                      LEAP SECONDS
  2011     8    12     0     0   30.0000000     GPS         TIME OF FIRST OBS
                                                            END OF HEADER
 11  8 12  0  0 30.0000000  0  7G12G10G05G28G09G04G02
 -11938612.00857  -9288693.23455  22911613.0164                   22911609.8594
 -23073066.11357 -17964374.06255  21540328.7274                   21540327.3364
  -4154940.27757  -3224022.34454  24044398.0474                   24044401.2154
 -41500844.68457 -32327816.16054  23397661.7504                   23397661.7624
 -20433739.38757 -15906236.33655  22370955.3984                   22370954.6374
 -41299018.65258 -32163880.80957  20326377.2424                   20326375.5204
 -30257648.22758 -23561096.48056  20931978.0084                   20931973.4304
 11  8 12  0  1  0.0000000  0  7G12G10G05G28G09G04G02
 -12055619.74647  -9379868.03945  22889346.9144                   22889343.9804
 -23161308.97747 -18033134.68745  21523536.2034                   21523535.1914
  -4287299.87546  -3327159.43744  24019210.2734                   24019213.6564
 -41436401.46546 -32277600.84044  23409925.2734                   23409925.1214
 -20415916.32847 -15892348.30145  22374347.4384                   22374346.4844
 -41276972.47748 -32146701.98046  20330572.5164                   20330571.0084
 -30321110.02348 -23610547.20746  20919901.4454                   20919897.4614
 11  8 12  0  1 30.0000000  0  7G12G10G05G28G09G04G02
 -12172491.73847  -9470937.10545  22867106.7424                   22867104.2154
 -23249139.96147 -18101574.35546  21506823.0784                   21506821.5984
  -4419706.25846  -3430332.96944  23994014.5864                   23994017.1884
 -41371717.77046 -32227198.10544  23422234.0944                   23422233.9494
 -20397632.16047 -15878100.96545  22377826.7114                   22377826.2854
 -41254577.44948 -32129251.31646  20334834.3524                   20334831.9884
 -30384240.48848 -23659739.75446  20907888.6254                   20907884.0084
 11  8 12  0  2  0.0000000  0  7G12G10G05G28G09G04G02
 -12289245.78947  -9561914.24245  22844889.0944                   22844886.6524
 -23336575.98047 -18169706.27045  21490184.3054                   21490183.0394
  -4552176.60546  -3533556.34444  23968805.9924                   23968808.7934
 -41306815.05946 -32176624.73444  23434585.0944                   23434585.0354
 -20378909.20347 -15863511.69545  22381389.2274                   22381388.8794
 -41231855.73848 -32111546.09846  20339158.2584                   20339156.0164
 -30447059.68748 -23708689.75446  20895934.0164                   20895930.0634
 11  8 12  0  2 30.0000000  0  7G12G10G05G28G09G04G02
 -12405887.03547  -9652803.47345  22822693.0004                   22822690.7034
 -23423622.41847 -18237534.61746  21473620.1334                   21473618.2734
  -4684716.43046  -3636833.84844  23943584.3524                   23943587.5664
 -41241703.12546 -32125888.30944  23446976.4774                   23446975.4534
 -20359758.55947 -15848589.17245  22385033.8054                   22385033.5594
 -41208817.75848 -32093594.42646  20343542.2664                   20343540.1884
 -30509576.68448 -23757404.26246  20884037.4454                   20884032.9414
 11  8 12  0  3  0.0000000  0  7G12G10G05G28G09G04G02
 -12522416.44947  -9743605.58645  22800517.9384                   22800515.9734
 -23510279.72348 -18305059.73846  21457129.9384                   21457128.2274
  -4817325.80546  -3740165.53144  23918349.1804                   23918352.3554
 -41176386.45746 -32074992.38744  23459405.8284                   23459404.7854
 -20340185.68047 -15833337.62945  22388758.1484                   22388757.0274
 -41185468.88348 -32075400.51246  20347985.2274                   20347983.0514
 -30571793.81248 -23805885.11346  20872197.8284                   20872193.5164
 11  8 12  0  3 30.0000000  0  7G12G10G05G28G09G04G02
 -12638835.48447  -9834321.68445  22778364.4844                   22778362.1844
 -23596549.00047 -18372282.50845  21440713.2664                   21440711.4574
  -4950006.09046  -3843552.48044  23893100.9454                   23893103.6374
 -41110871.01646 -32023941.55944  23471871.7504                   23471872.4344
 -20320197.56247 -15817762.52045  22392561.9384                   22392561.5164
 -41161815.65648 -32056969.42646  20352486.3204                   20352483.9024
 -30633715.24648 -23854135.55546  20860414.9534                   20860410.5984
 11  8 12  0  4  0.0000000  0  7G12G10G05G28G09G04G02
 -12755149.87947  -9924956.23045  22756230.4384                   22756228.6374
 -23682435.75847 -18439207.21146  21424368.8524                   21424367.6214
  -5082762.71147  -3946998.96544  23867837.7424                   23867840.3834
 -41045166.71146 -31972743.56244  23484375.7274                   23484375.7384
 -20299805.11347 -15801872.36345  22396442.6954                   22396441.6914
 -41137868.53948 -32038309.34846  20357043.5164                   20357041.5004
 -30695349.92248 -23902162.54346  20848685.7974                   20848681.5704
 11  8 12  0  4 30.0000000  0  7G12G10G05G28G09G04G02
 -12871364.45347 -10015513.00445  22734115.3834                   22734113.4654
 -23767944.39147 -18505837.27746  21408097.6644                   21408095.8554
  -5215600.30147  -4050508.51644  23842559.8984                   23842562.2894
 -40979282.55146 -31921405.42644  23496913.2894                   23496913.0354
 -20279018.51247 -15785675.07045  22400398.1254                   22400397.6954
 -41113637.05548 -32019427.67246  20361654.4144                   20361652.2504
 -30756705.23448 -23949971.85246  20837010.2114                   20837006.2854
 11  8 12  0  5  0.0000000  0  7G12G10G05G28G09G04G02
 -12987483.28947 -10105995.15645  22712018.4774                   22712016.6564
 -23853079.02347 -18572175.90645  21391896.7584                   21391895.0514
  -5348522.49247  -4154084.01644  23817265.2504                   23817267.4344
 -40913226.58246 -31869933.42243  23509482.8594                   23509482.8524
 -20257847.05147 -15769177.89145  22404426.8984                   22404426.5124
 -41089130.18048 -32000331.41446  20366317.9924                   20366316.0124
 -30817788.16848 -23997568.91446  20825386.6564                   20825382.7034
 11  8 12  0  5 30.0000000  0  7G12G10G05G28G09G04G02
 -13103509.67247 -10196405.28545  22689939.8054                   22689937.4224
 -23937842.32847 -18638225.19145  21375766.6804                   21375765.3404
  -5481532.15647  -4257727.69544  23791954.4924                   23791956.8444
 -40847006.08246 -31818333.18043  23522084.3834                   23522084.5744
 -20236298.83247 -15752387.13745  22408527.0004                   22408527.2034
 -41064355.78148 -31981026.69146  20371032.3674                   20371029.9694
 -30878604.78948 -24044958.46146  20813813.6024                   20813809.3834
 11  8 12  0  6  0.0000000  0  7G12G10G05G28G09G04G02
 -13219450.39147 -10286748.65645  22667876.8834                   22667875.2974
 -24022240.78948 -18703990.17646  21359706.0864                   21359704.5274
  -5614636.02347  -4361444.79344  23766625.8134                   23766627.6724
 -40780632.31246 -31766613.53143  23534715.1804                   23534714.7624
 -20214386.07447 -15735312.31645  22412697.2504                   22412697.6724
 -41039325.46948 -31961522.56246  20375795.3674                   20375793.3204
 -30939164.26248 -24092147.62546  20802289.4534                   20802285.4884
 11  8 12  0  6 30.0000000  0  7G12G10G05G28G09G04G02
 -13335308.91447 -10377027.98845  22645829.5084                   22645828.0314
 -24106277.98847 -18769473.66846  21343714.3834                   21343712.8204
  -5747837.07047  -4465237.64844  23741278.3444                   23741279.9184
 -40714113.20746 -31714780.60543  23547373.4844                   23547373.2774
 -20192117.59047 -15717960.29745  22416935.0164                   22416935.6454
 -41014047.89148 -31941825.75446  20380605.5944                   20380603.4924
 -30999472.79748 -24139141.24646  20790813.0634                   20790808.5394
 11  8 12  0  7  0.0000000  0  7G12G10G05G28G09G04G02
 -13451089.73447 -10467246.77045  22623797.3444                   22623795.1254
 -24189958.27348 -18834679.04345  21327790.6174                   21327788.9184
  -5881139.54347  -4569109.50444  23715911.9064                   23715913.2114
 -40647457.24646 -31662841.06643  23560058.5394                   23560057.5784
 -20169503.22347 -15700338.76245  22421238.1644                   22421237.9654
 -40988532.03148 -31921943.27746  20385461.0004                   20385458.6804
 -31059537.52748 -24185944.90246  20779383.3524                   20779378.8554
 11  8 12  0  7 30.0000000  0  7G12G10G05G28G09G04G02
 -13566796.51247 -10557407.85945  22601779.4224                   22601777.3164
 -24273285.09448 -18899608.99246  21311934.4384                   21311932.5474
  -6014546.65647  -4673062.92644  23690524.4224                   23690526.0704
 -40580672.42246 -31610801.09043  23572767.2814                   23572767.0084
 -20146552.07047 -15682454.79345  22425606.1484                   22425605.5984
 -40962786.66448 -31901881.95746  20390360.3524                   20390358.1294
 -31119365.38748 -24232563.99246  20767998.4304                   20767993.8364
 11  8 12  0  8  0.0000000  0  7G12G10G05G28G09G04G02
 -13682429.41447 -10647511.39845  22579775.0164                   22579772.7274
 -24356258.36748 -18964263.45346  21296144.9534                   21296143.2544
  -6148058.67247  -4777098.06644  23665118.1644                   23665119.6254
 -40513762.74646 -31558663.80543  23585499.5944                   23585498.9884
 -20123269.81247 -15664312.83245  22430036.8284                   22430036.7624
 -40936816.82448 -31881645.72346  20395302.2114                   20395299.9414
 -31178959.55548 -24279000.97346  20756658.1254                   20756654.0354
 11  8 12  0  8 30.0000000  0  7G12G10G05G28G09G04G02
 -13797986.28947 -10737555.67245  22557784.9144                   22557783.1454
 -24438876.26648 -19028641.00046  21280423.5554                   21280421.4064
  -6281673.16047  -4881213.05944  23639691.5944                   23639693.1524
 -40446731.42246 -31506431.77343  23598254.5634                   23598255.6134
 -20099660.06247 -15645915.66045  22434529.3674                   22434528.5084
 -40910625.72748 -31861237.07846  20400286.0084                   20400283.9264
 -31238320.84448 -24325256.50446  20745361.9144                   20745357.5274
 11  8 12  0  9  0.0000000  0  7G12G10G05G28G09G04G02
 -13913469.05547 -10827542.20745  22535809.5234                   22535807.5354
 -24521139.74648 -19092742.37146  21264768.8364                   21264767.2384
  -6415391.19947  -4985408.70344  23614245.9144                   23614246.9774
 -40379583.59446 -31454108.93743  23611032.5634                   23611033.7234
 -20075729.09847 -15627268.18045  22439082.7584                   22439082.9844
 -40884219.23048 -31840660.59046  20405311.3284                   20405309.0824
 -31297453.18448 -24371333.62946  20734109.3134                   20734105.3244
 11  8 12  0  9 30.0000000  0  7G12G10G05G28G09G04G02
 -14028875.87147 -10917469.56245  22513847.9614                   22513846.4264
 -24603047.23448 -19156566.35246  21249182.4144                   21249180.8134
  -6549210.66047  -5089683.38344  23588780.9224                   23588782.7854
 -40312321.69946 -31401697.25043  23623832.5084                   23623833.4454
 -20051480.62947 -15608373.30545  22443697.8134                   22443697.3164
 -40857600.15648 -31819918.44946  20410376.5164                   20410374.4264
 -31356357.73048 -24417233.25446  20722899.9924                   20722895.9654
 11  8 12  0 10  0.0000000  0  7G12G10G05G28G09G04G02
 -14144203.18047 -11007334.97745  22491902.0784                   22491900.3364
 -24684595.18448 -19220110.16446  21233664.1644                   21233662.7034
  -6683127.93746  -5194034.29344  23563296.0084                   23563297.7464
 -40244946.92246 -31349197.57043  23636653.8284                   23636654.3834
 -20026916.98047 -15589232.83245  22448372.0394                   22448371.4804
 -40830770.37148 -31799012.13346  20415482.0554                   20415480.1524
 -31415034.01248 -24462955.00846  20711734.2274                   20711729.9964
 11  8 12  0 10 30.0000000  0  7G12G10G05G28G09G04G02
 -14259448.12947 -11097136.21945  22469971.3984                   22469969.8404
 -24765780.57848 -19283371.46946  21218215.1484                   21218213.7624
  -6817139.80547  -5298458.93044  23537794.8054                   23537796.8284
 -40177460.75046 -31296611.08244  23649496.1804                   23649496.3674
 -20002040.80547 -15569848.84845  22453105.4774                   22453105.3484
 -40803731.97348 -31777943.24646  20420626.9614                   20420625.1454
 -31473482.12948 -24508498.96946  20700611.8054                   20700607.6024
 11  8 12  0 11  0.0000000  0  7G12G10G05G28G09G04G02
 -14374607.07847 -11186870.43445  22448057.7734                   22448055.9454
 -24846600.10948 -19346347.69546  21202835.6484                   21202833.6334
  -6951242.29747  -5402954.16044  23512276.6334                   23512277.7664
 -40109863.93046 -31243938.41843  23662358.7114                   23662359.9924
 -19976853.99647 -15550222.79745  22457898.7974                   22457897.9734
 -40776486.19148 -31756712.77046  20425811.9304                   20425810.0664
 -31531701.31648 -24553864.55546  20689533.5084                   20689529.3094
 11  8 12  0 11 30.0000000  0  7G12G10G05G28G09G04G02
 -14489674.93047 -11276533.65645  22426160.6884                   22426158.6684
 -24927048.53548 -19409034.75046  21187526.9304                   21187525.3164
  -7085429.85947  -5507515.68444  23486740.9924                   23486741.6564
 -40042155.52747 -31191178.79343  23675244.7034                   23675244.5554
 -19951356.59847 -15530354.73845  22462750.4614                   22462750.5314
 -40749032.95348 -31735320.63746  20431036.0634                   20431034.0984
 -31589689.46148 -24599050.11346  20678498.2814                   20678494.1374
 11  8 12  0 12  0.0000000  0  7G12G10G05G28G09G04G02
 -13029222.75047 -10138518.93445  22704075.9844                   22704073.3404
 -23431697.92648 -18243826.44146  21472082.6804                   21472080.9024
  -5644272.43747  -4384535.66044  23760983.8284                   23760985.2464
 -38398917.13746 -29910733.44143  23987942.3524                   23987942.0394
 -18350129.69147 -14282645.50845  22767454.1174                   22767453.6804
 -39145952.40248 -30486166.95746  20736092.2504                   20736090.2894
 -30072022.26648 -23416452.28546  20967301.3054                   20967296.5514
 11  8 12  0 12 30.0000000  0  7G12G10G05G28G09G04G02
 -13144087.46547 -10228023.85545  22682217.3674                   22682215.7234
 -23511383.10548 -18305918.76246  21456919.2274                   21456917.1134
  -5778608.27747  -4489212.75445  23735420.7424                   23735422.4344
 -38330977.93746 -29857793.94543  24000870.0164                   24000871.1214
 -18324006.82847 -14262290.06645  22772424.9774                   22772424.3404
 -39118077.36748 -30464446.14546  20741396.5634                   20741394.7894
 -30129536.10948 -23461268.25846  20956356.3914                   20956352.2544
 11  8 12  0 13  0.0000000  0  7G12G10G05G28G09G04G02
 -13258835.15647 -10317437.59845  22660382.1564                   22660379.9104
 -23590671.46948 -18367701.85946  21441830.9304                   21441828.6174
  -5913002.61347  -4593935.41445  23709846.1724                   23709847.4414
 -38262914.66447 -29804757.79343  24013822.8674                   24013822.7704
 -18297564.17247 -14241685.45345  22777457.3134                   22777457.1954
 -39089983.68448 -30442554.94946  20746742.8134                   20746740.7344
 -30186801.98848 -23505891.00446  20945459.0634                   20945454.6524
 11  8 12  0 13 30.0000000  0  7G12G10G05G28G09G04G02
 -13373455.54747 -10406752.11345  22638569.9534                   22638568.2504
 -23669552.38748 -18429167.47746  21426820.4534                   21426818.7194
  -6047444.68747  -4698695.27744  23684262.5234                   23684263.6214
 -38194721.14146 -29751620.14143  24026799.8914                   24026800.1254
 -18270797.20347 -14220828.12545  22782550.6484                   22782550.8324
 -39061665.82448 -30420489.07846  20752131.5164                   20752129.5784
 -30243812.34448 -23550314.64146  20934610.3984                   20934605.8874
 11  8 12  0 14  0.0000000  0  7G12G10G05G28G09G04G02
 -13487937.14847 -10495958.48045  22616784.8284                   22616783.5864
 -23748014.71148 -18490306.93046  21411889.3834                   21411887.5594
  -6181922.21147  -4803482.77744  23658672.3444                   23658673.1684
 -38126390.12146 -29698375.36343  24039802.6724                   24039803.7774
 -18243699.95747 -14199713.44145  22787706.6414                   22787706.5554
 -39033116.99248 -30398243.23446  20757564.4924                   20757562.2194
 -30300558.51648 -23594532.41846  20923812.1024                   20923807.1214
 11  8 12  0 14 30.0000000  0  7G12G10G05G28G09G04G02
 -13602269.96947 -10585048.92245  22595028.3204                   22595025.9574
 -23826048.94148 -18551112.78546  21397039.7424                   21397038.2934
  -6316425.80947  -4908290.59844  23633076.6334                   23633077.4734
 -38057916.54346 -29645019.51643  24052832.5314                   24052833.4534
 -18216268.14547 -14178338.05945  22792926.8054                   22792927.2034
 -39004332.48848 -30375813.74646  20763041.4694                   20763039.3284
 -30357034.05948 -23638539.31646  20913065.0784                   20913060.6564
 11  8 12  0 15  0.0000000  0  7G12G10G05G28G09G04G02
 -13716440.22747 -10674012.70345  22573302.1484                   22573300.0314
 -23903641.11747 -18611574.19146  21382274.5704                   21382272.7934
  -6450940.57447  -5013107.10544  23607479.2894                   23607480.3404
 -37989290.69946 -29591544.93743  24065891.9844                   24065892.4414
 -18188493.33647 -14156695.40645  22798212.9694                   22798212.0904
 -38975303.16048 -30353193.48846  20768565.7034                   20768563.4734
 -30413228.03548 -23682326.81647  20902371.7344                   20902367.1644
 11  8 12  0 15 30.0000000  0  7G12G10G05G28G09G04G02
 -13830434.14547 -10762839.07845  22551610.1484                   22551607.8404
 -23980777.59848 -18671680.52046  21367596.0474                   21367594.7734
  -6585452.61347  -5117921.49244  23581882.2344                   23581883.6374
 -37920503.11346 -29537944.37143  24078981.6724                   24078982.7624
 -18160367.21947 -14134779.00045  22803564.7274                   22803564.6214
 -38946020.10248 -30330375.52046  20774138.0634                   20774136.2894
 -30469129.46948 -23725886.36746  20891734.0004                   20891729.3914
 11  8 12  0 16  0.0000000  0  7G12G10G05G28G09G04G02
 -13944237.43447 -10851516.89845  22529953.7114                   22529952.0274
 -24057444.79348 -18731421.15646  21353006.5394                   21353004.7974
  -6719947.25847  -5222722.31644  23556288.7194                   23556288.9264
 -37851544.65246 -29484210.70743  24092104.3284                   24092105.6134
 -18131881.57447 -14112582.46945  22808985.3284                   22808985.9304
 -38916474.39148 -30307352.89146  20779760.4304                   20779758.5394
 -30524727.52048 -23769209.50846  20881154.0474                   20881149.3444
 11  8 12  0 16 30.0000000  0  7G12G10G05G28G09G04G02
 -14057836.65647 -10940035.70346  22508336.7114                   22508334.5004
 -24133629.27748 -18790785.65646  21338509.2814                   21338507.4924
  -6854410.96946  -5327499.02744  23530700.6484                   23530701.1994
 -37782405.97746 -29430336.55143  24105260.6174                   24105261.8714
 -18103028.37547 -14090099.50845  22814475.9304                   22814476.1414
 -38886657.34448 -30284118.83246  20785434.6414                   20785432.6844
 -30580011.45348 -23812287.89146  20870633.7034                   20870628.9414
 11  8 12  0 17  0.0000000  0  7G12G10G05G28G09G04G02
 -14171217.52347 -11028384.37145  22486760.7584                   22486758.8594
 -24209316.74647 -18849762.86746  21324106.4614                   21324104.4614
  -6988828.77746  -5432239.99644  23505122.0704                   23505122.8874
 -37713076.99246 -29376314.13343  24118453.2664                   24118454.7664
 -18073798.91047 -14067323.35245  22820038.0784                   22820038.3984
 -38856559.51248 -30260665.98846  20791162.0084                   20791160.1024
 -30634970.10948 -23855112.79746  20860175.5634                   20860171.2934
 11  8 12  0 17 30.0000000  0  7G12G10G05G28G09G04G02
 -14284365.54347 -11116551.60545  22465229.4144                   22465227.1054
 -24284492.86348 -18908341.61746  21309801.1174                   21309799.1994
  -7123186.01247  -5536933.77344  23479554.8284                   23479555.3714
 -37643547.98446 -29322135.85943  24131684.7114                   24131685.6644
 -18044184.05547 -14044246.89845  22825673.6564                   22825674.1804
 -38826171.03548 -30236986.66046  20796944.7034                   20796942.8594
 -30689591.90648 -23897675.21546  20849781.2504                   20849777.1724
 11  8 12  0 18  0.0000000  0  7G12G10G05G28G09G04G02
 -14397266.26647 -11204526.16046  22443745.3834                   22443743.1604
 -24359143.77748 -18966511.11746  21295595.0704                   21295593.7584
  -7257467.81247  -5641568.78945  23454001.2584                   23454002.2464
 -37573808.92646 -29267793.91043  24144956.3134                   24144957.1254
 -18014175.44547 -14020863.60944  22831384.5164                   22831384.9264
 -38795482.83648 -30213073.79346  20802784.3984                   20802782.5314
 -30743865.91448 -23939966.62946  20839453.1414                   20839448.8054
 11  8 12  0 18 30.0000000  0  7G12G10G05G28G09G04G02
 -14509907.39847 -11292298.42646  22422310.3364                   22422307.7504
 -24433257.48448 -19024262.01246  21281491.9304                   21281490.1994
  -7391661.47747  -5746135.10945  23428465.1334                   23428466.2734
 -37503852.03546 -29213282.19943  24158268.6564                   24158269.9384
 -17983766.68047 -13997168.54345  22837170.8594                   22837171.0594
 -38764487.52048 -30188921.62146  20808682.5864                   20808681.2734
 -30797782.84448 -23981979.80947  20829192.8914                   20829189.0594
 11  8 12  0 19  0.0000000  0  7G12G10G05G28G09G04G02
 -14622275.12147 -11379857.66845  22400927.3594                   22400924.5904
 -24506820.82848 -19081584.06246  21267492.8984                   21267491.5084
  -7525753.28947  -5850622.08645  23402948.3834                   23402948.9804
 -37433668.41446 -29158593.80543  24171623.9304                   24171624.8954
 -17952949.70347 -13973155.37145  22843035.5554                   22843035.0904
 -38733176.31648 -30164523.29746  20814641.1954                   20814639.1254
 -30851332.05948 -24023706.44946  20819003.0394                   20818998.5204
 11  8 12  0 19 30.0000000  0  7G12G10G05G28G09G04G02
 -14734358.55947 -11467195.38745  22379598.4614                   22379596.5314
 -24579822.73448 -19138468.63346  21253601.1804                   21253599.3794
  -7659731.57047  -5955020.55945  23377452.8444                   23377453.9654
 -37363250.99246 -29103723.27043  24185023.5234                   24185025.5864
 -17921719.00447 -13948819.78945  22848978.4454                   22848978.9924
 -38701542.92648 -30139873.91846  20820660.8204                   20820658.6374
 -30904505.51248 -24065140.29347  20808884.5474                   20808880.0044
 11  8 12  0 20  0.0000000  0  7G12G10G05G28G09G04G02
 -14846146.02047 -11554302.46946  22358326.0314                   22358323.8164
 -24652252.24248 -19194907.18446  21239818.1884                   21239816.6994
  -7793584.28947  -6059321.19145  23351981.3914                   23351982.3484
 -37292592.92646 -29048665.20343  24198470.5704                   24198471.6994
 -17890068.47347 -13924157.09844  22855001.4224                   22855001.3714
 -38669580.77348 -30114968.37546  20826742.9454                   20826740.7814
 -30957294.83248 -24106274.80946  20798838.8754                   20798834.7624
 11  8 12  0 20 30.0000000  0  7G12G10G05G28G09G04G02
 -14957625.22747 -11641169.35945  22337112.0634                   22337109.6374
 -24724097.52348 -19250890.48446  21226146.9614                   21226144.6994
  -7927298.57047  -6163513.95745  23326536.1644                   23326537.4534
 -37221686.41046 -28993413.52743  24211963.5704                   24211965.2664
 -17857992.07047 -13899162.55145  22861105.1484                   22861105.4574
 -38637282.56648 -30089800.96946  20832888.8674                   20832886.7624
 -31009690.75848 -24147102.76646  20788868.6414                   20788864.2304
 11  8 12  0 21  0.0000000  0  7G12G10G05G28G09G04G02
 -15068787.00447 -11727788.91045  22315958.7274                   22315956.4884
 -24795349.62948 -19306411.58646  21212587.8594                   21212585.6914
  -8060865.60947  -6267592.00445  23301118.8834                   23301119.8014
 -37150527.35546 -28937965.08243  24225505.1254                   24225506.3794
 -17825486.40647 -13873833.50044  22867290.9064                   22867291.1564
 -38604644.35948 -30064368.63346  20839099.9534                   20839097.5274
 -31061687.96948 -24187620.05547  20778973.5554                   20778969.4304
 11  8 12  0 21 30.0000000  0  7G12G10G05G28G09G04G02
 -15179622.57047 -11814154.28545  22294867.2814                   22294865.3164
 -24866000.35548 -19361464.07046  21199143.2194                   21199141.7544
  -8194276.16047  -6371548.09045  23275732.1644                   23275732.8364
 -37079110.84846 -28882316.04343  24239095.0704                   24239097.1724
 -17792548.20747 -13848167.42245  22873559.1724                   22873559.2624
 -38571661.75048 -30038667.92646  20845376.4844                   20845374.5274
 -31113280.12548 -24227821.70747  20769156.1024                   20769151.7074
 11  8 12  0 22  0.0000000  0  7G12G10G05G28G09G04G02
 -15290123.53547 -11900258.91846  22273839.9064                   22273837.7774
 -24936041.69148 -19416041.71946  21185815.2114                   21185813.1094
  -8327521.03947  -6475375.10245  23250376.3754                   23250376.6254
 -37007433.27746 -28826463.53143  24252734.8834                   24252736.6564
 -17759174.78947 -13822162.23045  22879910.1024                   22879909.8914
 -38538331.47348 -30012696.31646  20851718.9534                   20851716.6094
 -31164462.16848 -24267703.79746  20759416.4454                   20759411.8834
 11  8 12  0 22 30.0000000  0  7G12G10G05G28G09G04G02
 -15400280.59447 -11986095.57846  22252877.7344                   22252875.2504
 -25005464.61748 -19470137.49646  21172604.2894                   21172602.3164
  -8460590.39547  -6579065.35545  23225054.1484                   23225053.7734
 -36935489.65246 -28770403.70743  24266425.4614                   24266426.9454
 -17725362.40247 -13795814.98045  22886344.0554                   22886344.5084
 -38504648.85948 -29986450.15246  20858128.5314                   20858126.3404
 -31215227.85948 -24307261.45746  20749755.9844                   20749751.6484
 11  8 12  0 23  0.0000000  0  7G12G10G05G28G09G04G02
 -15510086.64547 -12071658.72746  22231982.2424                   22231980.2424
 -25074263.09048 -19523746.67646  21159512.1954                   21159510.4964
  -8593477.42247  -6682613.54345  23199766.3674                   23199766.3714
 -36863278.05146 -28714135.09443  24280166.9844                   24280167.8954
 -17691110.63747 -13769125.34845  22892862.3364                   22892862.1844
 -38470612.37948 -29959928.25446  20864605.5234                   20864603.4144
 -31265573.87148 -24346492.09846  20740175.2424                   20740170.9654
 11  8 12  0 23 30.0000000  0  7G12G10G05G28G09G04G02
 -15619533.37547 -12156941.89146  22211155.0554                   22211153.2544
 -25142429.15248 -19576863.06246  21146540.9384                   21146538.9264
  -8726173.05547  -6786012.59044  23174514.5784                   23174514.6844
 -36790794.45746 -28657654.52042  24293960.2814                   24293961.7234
 -17656416.53947 -13742091.05144  22899464.4454                   22899464.6294
 -38436218.28948 -29933127.69146  20871150.4614                   20871148.4184
 -31315494.72748 -24385391.43746  20730675.5704                   20730671.2234
 11  8 12  0 24  0.0000000  0  7G12G10G05G28G09G04G02
 -15728614.96948 -12241940.52046  22190398.0784                   22190395.7664
 -25209957.31248 -19629482.39546  21133690.4454                   21133688.6764
  -8858671.12147  -6889257.69545  23149301.2504                   23149301.7814
 -36718037.55946 -28600960.99643  24307806.3364                   24307807.2274
 -17621280.07047 -13714712.05545  22906150.9064                   22906150.9264
 -38401465.63748 -29906047.73846  20877763.3754                   20877761.5084
 -31364987.90648 -24423957.53946  20721257.4224                   20721253.2504
 11  8 12  0 24 30.0000000  0  7G12G10G05G28G09G04G02
 -15837324.42247 -12326649.16846  22169711.5554                   22169709.0274
 -25276842.05948 -19681600.36346  21120962.8524                   21120960.7304
  -8990964.60547  -6992343.38745  23124126.7034                   23124126.4614
 -36645005.32446 -28544052.86343  24321702.6884                   24321704.9344
 -17585700.14847 -13686987.51645  22912921.7664                   22912921.7814
 -38366353.06648 -29878687.31646  20884445.7194                   20884443.3594
 -31414049.70748 -24462187.48846  20711921.0164                   20711916.5124
 11  8 12  0 25  0.0000000  0  6G12G10G05G09G04G02
 -15945655.25448 -12411062.78146  22149096.0784                   22149093.9344
 -25343076.82848 -19733211.86346  21108358.7344                   21108357.2154
  -9123046.25047  -7095264.02745  23098992.4304                   23098992.2114
 -17549675.97747 -13658916.78945  22919776.4144                   22919776.6214
 -38330878.35548 -29851044.71946  20891195.9844                   20891194.2344
 -31462676.90248 -24500078.78946  20702667.9064                   20702663.6454
 11  8 12  0 25 30.0000000  0  6G12G10G05G09G04G02
 -16053601.72348 -12495176.87546  22128554.4454                   22128552.7034
 -25408656.31248 -19784312.74646  21095879.6564                   21095877.8634
  -9254909.93747  -7198014.82445  23073899.1804                   23073898.7234
 -17513207.75047 -13630500.06245  22926715.8674                   22926716.4454
 -38295040.61348 -29823119.23446  20898015.7274                   20898013.8404
 -31510866.97748 -24537629.48447  20693497.3984                   20693493.2034
 11  8 12  0 26  0.0000000  0  6G12G10G05G09G04G02
 -16161154.33247 -12578984.06646  22108088.2814                   22108085.8054
 -25473572.09848 -19834896.45746  21083525.8914                   21083524.5824
  -9386545.75447  -7300588.05545  23048849.6644                   23048849.3404
 -17476291.83247 -13601734.50844  22933741.4454                   22933741.0514
 -38258835.50448 -29794907.48046  20904905.6334                   20904903.4924
 -31558613.86748 -24574834.83647  20684411.2814                   20684406.7704
 11  8 12  0 26 30.0000000  0  6G12G10G05G09G04G02
 -16268304.21147 -12662477.43746  22087698.2194                   22087696.1294
 -25537816.03548 -19884956.65646  21071301.3054                   21071299.6024
  -9517944.56247  -7402976.60545  23023845.3674                   23023845.5474
 -17438925.32047 -13572617.81644  22940851.6334                   22940851.4224
 -38222259.19148 -29766406.47746  20911865.5084                   20911863.4104
 -31605911.83648 -24611690.38747  20675410.9534                   20675406.7934
 11  8 12  0 27  0.0000000  0  6G12G10G05G09G04G02
 -16375042.76248 -12745650.27746  22067386.5234                   22067384.2194
 -25601379.92648 -19934486.93446  21059205.1884                   21059203.5744
  -9649097.62947  -7505173.65645  22998887.5784                   22998887.4574
 -17401105.31247 -13543147.75445  22948048.7344                   22948048.8054
 -38185307.87548 -29737613.26246  20918897.3284                   20918895.0474
 -31652755.75448 -24648192.12147  20666496.9534                   20666492.8014
 11  8 12  0 27 30.0000000  0  6G12G10G05G09G04G02
 -16481364.87148 -12828498.61746  22047154.0394                   22047151.7544
 -25664259.48848 -19983483.98446  21047239.6024                   21047237.8094
  -9779999.54347  -7607175.01245  22973977.6094                   22973977.5164
 -17362832.70347 -13513325.03944  22955331.7034                   22955332.2034
 -38147981.45348 -29708527.76246  20926000.3054                   20925998.3954
 -31699143.93448 -24684338.73046  20657669.6884                   20657665.2194
 11  8 12  0 28  0.0000000  0  6G12G10G05G09G04G02
 -16587265.85248 -12911018.80946  22027001.7814                   22026999.5274
 -25726450.58648 -20031944.55546  21035404.8444                   21035403.5274
  -9910644.38347  -7708976.07045  22949116.3984                   22949116.8954
 -17324108.30947 -13483150.24644  22962700.6954                   22962701.3984
 -38110279.75448 -29679149.83246  20933174.5474                   20933172.2894
 -31745074.30548 -24720128.60547  20648929.3134                   20648924.7034
 11  8 12  0 28 30.0000000  0  6G12G10G05G09G04G02
 -16692741.98448 -12993207.93446  22006930.4454                   22006927.6254
 -25787950.81248 -20079866.78546  21023701.7274                   21023700.0354
 -10041028.73847  -7810574.15245  22924304.7504                   22924304.9804
 -17284934.74247 -13452625.47744  22970155.8364                   22970155.4064
 -38072204.11748 -29649480.50846  20940420.2894                   20940418.3404
 -31790547.06648 -24755561.90247  20640276.1414                   20640271.8554
 11  8 12  0 29  0.0000000  0  6G12G10G05G09G04G02
 -16797788.75448 -13075062.50446  21986940.3204                   21986937.9064
 -25848756.50448 -20127247.82846  21012130.7894                   21012129.1764
 -10171147.72747  -7911965.45345  22899544.3134                   22899544.0314
 -17245313.23047 -13421751.66044  22977695.5234                   22977695.6334
 -38033755.37148 -29619520.45746  20947736.7894                   20947735.1684
 -31835560.82048 -24790637.53546  20631710.2584                   20631705.5864
 11  8 12  0 29 30.0000000  0  6G12G10G05G09G04G02
 -16902403.53548 -13156580.48046  21967033.2034                   21967030.5944
 -25908865.35548 -20174085.86346  21000692.5784                   21000690.9024
 -10300997.70347  -8013147.14545  22874834.2584                   22874834.1684
 -17205246.65647 -13390531.02344  22985319.7424                   22985320.1604
 -37994935.01248 -29589270.83646  20955124.4694                   20955122.2934
 -31880116.19948 -24825356.00447  20623231.4224                   20623227.0864
 11  8 12  0 30  0.0000000  0  6G12G10G05G09G04G02
 -17006582.60948 -13237758.94146  21947208.5634                   21947205.2814
 -25968274.92647 -20220379.00446  20989387.2974                   20989385.6684
 -10430575.20347  -8114116.51645  22850176.8134                   22850176.8834
 -17164737.52347 -13358965.51244  22993028.4304                   22993029.6334
 -37955744.86748 -29558733.05946  20962581.8284                   20962579.8984
 -31924212.90648 -24859717.06647  20614840.2584                   20614836.0664
 11  8 12  0 30 30.0000000  0  6G12G10G05G09G04G02
 -17110322.34848 -13318595.05546  21927467.2504                   21927464.4384
 -26026982.26248 -20266124.94546  20978215.6724                   20978213.8984
 -10559875.82447  -8214870.14145  22825571.8984                   22825571.1684
 -17123788.29747 -13327057.10945  23000820.7584                   23000821.8014
 -37916185.87548 -29527907.87146  20970109.6564                   20970107.6134
 -31967850.70348 -24893720.52747  20606536.2974                   20606532.0004
 11  8 12  0 31  0.0000000  0  6G12G10G05G09G04G02
 -17213621.73048 -13399088.03546  21907810.2274                   21907807.3754
 -26084987.66848 -20311323.93446  20967177.5234                   20967175.8914
 -10688898.32447  -8315407.03545  22801019.2664                   22801019.1684
 -17082404.09047 -13294809.75444  23008696.4534                   23008696.7624
 -37876262.14548 -29496798.47346  20977706.5784                   20977704.8634
 -32011031.84448 -24927368.16046  20598319.1024                   20598314.5744
 11  8 12  0 31 30.0000000  0  6G12G10G05G09G04G02
 -17316477.33648 -13479235.23046  21888237.2114                   21888234.5234
 -26142288.50847 -20355973.90246  20956273.6484                   20956272.0204
 -10817639.26647  -8415724.54745  22776520.9064                   22776519.8874
 -17040587.41447 -13262225.39845  23016652.9694                   23016654.1804
 -37835975.22348 -29465406.06246  20985372.8204                   20985371.0944
 -32053756.65648 -24960660.21146  20590188.8444                   20590184.6484
 11  8 12  0 32  0.0000000  0  6G12G10G05G09G04G02
 -17418886.27348 -13559034.37946  21868749.5084                   21868746.6844
 -26198882.23848 -20400072.88346  20945504.1024                   20945502.1454
 -10946094.66447  -8515819.54745  22752076.4454                   22752075.6954
 -16998340.83647 -13229306.06645  23024693.2344                   23024693.6644
 -37795326.66448 -29433731.85946  20993108.4924                   20993106.2814
 -32096025.27348 -24993596.78147  20582145.4304                   20582141.1644
 11  8 12  0 32 30.0000000  0  6G12G10G05G09G04G02
 -17520844.87548 -13638482.62146  21849347.1174                   21849344.9534
 -26254766.45747 -20443618.98846  20934869.9144                   20934867.8634
 -11074260.47347  -8615688.89145  22727687.1024                   22727686.5434
 -16955666.64147 -13196053.51244  23032813.5234                   23032813.9384
 -37754317.88748 -29401776.96146  21000912.0314                   21000910.3634
 -32137837.14548 -25026177.43447  20574188.9454                   20574184.7114
 11  8 12  0 33  0.0000000  0  6G12G10G05G09G04G02
 -17622352.48048 -13717579.43446  21830031.2664                   21830028.7934
 -26309941.41848 -20486612.43746  20924370.2034                   20924368.3404
 -11202135.76247  -8715331.85945  22703353.3754                   22703352.9414
 -16912570.02347 -13162471.81244  23041014.6334                   23041015.1994
 -37712952.80548 -29369544.42646  21008783.7194                   21008781.3984
 -32179195.33648 -25058404.58247  20566318.4064                   20566314.1254
 11  8 12  0 33 30.0000000  0  6G12G10G05G09G04G02
 -17723407.06648 -13796323.23846  21810801.4064                   21810797.8164
 -26364406.17248 -20529052.46546  20914005.9534                   20914004.0984
 -11329717.78947  -8814746.31245  22679074.7664                   22679074.7234
 -16869054.68447 -13128563.81644  23049295.1954                   23049296.1914
 -37671234.35948 -29337036.54746  21016722.2344                   21016720.5004
 -32220100.62948 -25090278.81647  20558534.7894                   20558530.2234
 11  8 12  0 34  0.0000000  0  6G12G10G05G09G04G02
 -17824007.11348 -13874712.86746  21791657.2814                   21791654.7584
 -26418160.60948 -20570939.00046  20903776.5314                   20903774.7814
 -11457004.95347  -8913930.99645  22654853.2114                   22654853.1524
 -16825125.54347 -13094333.37544  23057654.8364                   23057655.8054
 -37629165.99648 -29304255.99246  21024727.4304                   21024725.6844
 -32260555.66848 -25121802.20347  20550836.4774                   20550831.5474
 11  8 12  0 34 30.0000000  0  6G12G10G05G09G04G02
 -17924151.08647 -13952747.10546  21772600.7894                   21772597.8554
 -26471204.37548 -20612271.77346  20893682.8134                   20893680.7704
 -11583995.78147  -9012884.77745  22630687.1174                   22630686.6174
 -16780786.99647 -13059783.91844  23066092.6094                   23066092.7344
 -37586751.09848 -29271205.42246  21032799.1024                   21032796.9264
 -32300562.21548 -25152976.11347  20543223.4694                   20543218.8444
 11  8 12  0 35  0.0000000  0  6G12G10G05G09G04G02
 -18023837.29347 -14030424.64546  21753631.0084                   21753628.4494
 -26523536.37548 -20653049.91446  20883724.2584                   20883722.5004
 -11710687.47347  -9111605.46945  22606578.7114                   22606578.5164
 -16736042.97347 -13024918.50844  23074606.9844                   23074606.7274
 -37543992.65648 -29237887.14146  21040935.3984                   21040933.6724
 -32340121.79348 -25183801.74247  20535695.2114                   20535690.8954
 11  8 12  0 35 30.0000000  0  6G12G10G05G09G04G02
 -18123063.00848 -14107743.34846  21734749.1024                   21734746.3404
 -26575155.37948 -20693272.46946  20873901.5944                   20873899.8794
 -11837076.98047  -9210090.69545  22582527.4924                   22582527.2344
 -16690896.96147 -12989739.87144  23083197.9064                   23083198.4534
 -37500892.74648 -29204302.78946  21049137.1564                   21049135.0164
 -32379235.29348 -25214279.78147  20528251.9064                   20528247.6414
 11  8 12  0 36  0.0000000  0  6G12G10G05G09G04G02
 -18221828.73448 -14184703.61746  21715954.5234                   21715951.8754
 -26626062.77348 -20732940.53146  20864214.2734                   20864212.1024
 -11963164.44947  -9308340.56645  22558533.2584                   22558533.2974
 -16645355.40247 -12954253.00844  23091864.5004                   23091864.8054
 -37457456.90648 -29170456.67646  21057402.6564                   21057401.0274
 -32417906.48848 -25244413.16447  20520893.1954                   20520889.0394
 11  8 12  0 36 30.0000000  0  6G12G10G05G09G04G02
 -18320132.28548 -14261303.73446  21697247.6644                   21697244.9454
 -26676257.55148 -20772053.31246  20854662.2034                   20854660.7234
 -12088947.18047  -9406352.97745  22534597.8914                   22534597.4184
 -16599421.66447 -12918460.53544  23100605.1954                   23100605.6214
 -37413687.28548 -29136350.48446  21065731.6414                   21065730.1684
 -32456136.10948 -25274202.47347  20513618.5314                   20513614.6884
 11  8 12  0 37  0.0000000  0  6G12G10G05G09G04G02
 -18417974.71148 -14337544.55146  21678629.2194                   21678626.3594
 -26725742.07448 -20810612.64146  20845245.7814                   20845243.8674
 -12214425.68047  -9504128.32045  22510720.1484                   22510720.0664
 -16553103.07447 -12882368.21944  23109418.8444                   23109419.6764
 -37369590.03548 -29101988.98446  21074123.4844                   21074121.6724
 -32493929.01248 -25303651.48047  20506426.5634                   20506422.7584
 11  8 12  0 37 30.0000000  0  6G12G10G05G09G04G02
 -18515354.26248 -14413424.67646  21660098.2974                   21660095.1764
 -26774515.79348 -20848618.09846  20835964.2114                   20835962.4924
 -12339598.01647  -9601665.09445  22486900.5394                   22486900.2074
 -16506403.87147 -12845979.28944  23118306.2034                   23118305.8754
 -37325168.13748 -29067374.52046  21082576.3204                   21082574.5784
 -32531286.93748 -25332761.55147  20499317.4694                   20499313.6094
 11  8 12  0 38  0.0000000  0  6G12G10G05G09G04G02
 -18612269.69148 -14488943.16046  21641655.5394                   21641652.8754
 -26822578.93448 -20886069.86746  20826818.0944                   20826816.3404
 -12464462.30147  -9698961.83645  22463139.3204                   22463139.1844
 -16459328.50047 -12809297.27044  23127264.2814                   23127263.9844
 -37280425.16848 -29032509.88346  21091090.7504                   21091088.7854
 -32568212.12548 -25361534.42647  20492291.5164                   20492286.7624
 11  8 12  0 38 30.0000000  0  6G12G10G05G09G04G02
 -18708718.35247 -14564097.90646  21623301.9924                   21623299.8554
 -26869929.78548 -20922966.58646  20817807.4774                   20817805.6604
 -12589015.55547  -9796016.21545  22439437.8444                   22439437.7424
 -16411880.19947 -12772324.63744  23136292.9844                   23136293.6994
 -37235363.41848 -28997396.84046  21099665.7664                   21099663.2934
 -32604705.54748 -25389970.86347  20485346.9774                   20485342.6134
 11  8 12  0 39  0.0000000  0  7G12G10G05G25G09G04G02
 -18804698.75448 -14638887.78946  21605037.5314                   21605034.8674
 -26916568.25047 -20959308.21946  20808932.7274                   20808930.5944
 -12713255.87947  -9892826.75445  22415795.3674                   22415795.0044
   1386440.72756   1094157.37153  24501299.1644                   24501300.4384
 -16364063.87547 -12735065.26244  23145392.4534                   23145392.7974
 -37189985.86348 -28962037.71546  21108300.7974                   21108299.0554
 -32640768.76248 -25418072.05947  20478484.0314                   20478479.6134
 11  8 12  0 39 30.0000000  0  7G12G10G05G25G09G04G02
 -18900213.52348 -14713314.84046  21586861.7974                   21586858.5704
 -26962497.79748 -20995097.44546  20800192.6334                   20800190.5594
 -12837184.79747  -9989394.64845  22392212.5944                   22392211.8874
   1257510.80946    993692.53143  24476764.3054                   24476765.5664
 -16315887.28947 -12697525.13344  23154560.3524                   23154560.5274
 -37144299.64548 -28926438.07846  21116994.6804                   21116992.2734
 -32676407.57048 -25445842.53547  20471702.3134                   20471697.6914
 11  8 12  0 40  0.0000000  0  7G12G10G05G25G09G04G02
 -17419842.40648 -13559778.87546  21868567.1174                   21868564.4454
 -25432301.84047 -19802736.92246  21091378.9774                   21091376.9024
 -11385381.17647  -8858118.99645  22668481.4534                   22668481.0274
   2704206.91846   2120988.23043  24752061.6884                   24752062.8594
 -14691941.21547 -11432112.71544  23463587.3284                   23463587.6804
 -35522893.84448 -27663005.00046  21425538.1174                   21425535.9454
 -31136207.09848 -24245686.30147  20764792.5944                   20764788.4614
 11  8 12  0 40 30.0000000  0  7G12G10G05G25G09G04G02
 -17514431.57447 -13633484.69146  21850567.0394                   21850564.5824
 -25476824.43748 -19837429.82446  21082906.8364                   21082904.7154
 -11508692.72747  -8954205.83645  22645015.8674                   22645015.7344
   2575680.59846   2020837.88344  24727604.1334                   24727604.7344
 -14643068.37147 -11394030.05944  23472886.8204                   23472888.0164
 -35476610.38748 -27626939.98046  21434345.5004                   21434343.5274
 -31171013.36348 -24272808.04747  20758169.2814                   20758164.5904
 11  8 12  0 41  0.0000000  0  7G12G10G05G25G09G04G02
 -17608555.50047 -13706827.97746  21832655.6334                   21832653.4534
 -25520642.94948 -19871574.08646  21074568.1724                   21074566.3634
 -11631692.32447  -9050049.58245  22621609.9614                   22621608.9574
   2447358.40246   1920846.58644  24703184.7814                   24703185.9924
 -14593853.88347 -11355681.20744  23482252.6724                   23482253.2734
 -35430033.19148 -27590646.07846  21443209.0084                   21443207.0664
 -31205406.54348 -24299607.93047  20751624.3054                   20751620.1254
 11  8 12  0 41 30.0000000  0  7G12G10G05G25G09G04G02
 -17702212.22747 -13779807.22346  21814833.8754                   21814832.0004
 -25563756.73448 -19905169.20746  21066363.8444                   21066361.8054
 -11754377.61747  -9145648.42645  22598263.4454                   22598262.9384
   2319242.31346   1821015.93844  24678805.5234                   24678807.3164
 -14544301.51647 -11317069.07844  23491681.6954                   23491682.4184
 -35383164.96948 -27554125.40646  21452127.2504                   21452125.9184
 -31239387.93048 -24326086.92647  20745157.6644                   20745153.4964
 11  8 12  0 42  0.0000000  0  7G12G10G05G25G09G04G02
 -17795401.29748 -13852422.05546  21797100.6024                   21797097.6684
 -25606166.96948 -19938216.10946  21058293.6174                   21058291.4884
 -11876747.42247  -9241001.41445  22574977.1174                   22574976.9144
   2191332.84847   1721346.30543  24654465.0704                   24654466.7544
 -14494416.86347 -11278198.01244  23501174.4614                   23501175.1454
 -35336009.80548 -27517381.14546  21461100.5164                   21461098.9694
 -31272960.40248 -24352247.27747  20738769.6564                   20738764.9064
 11  8 12  0 42 30.0000000  0  7G12G10G05G25G09G04G02
 -17888120.34448 -13924670.64146  21779456.4844                   21779453.7624
 -25647872.54748 -19970713.94146  21050357.5944                   21050354.9924
 -11998799.02747  -9336106.46145  22551751.5704                   22551750.8984
   2063632.42247   1621839.54743  24630164.4924                   24630165.3594
 -14444203.57447 -11239070.87544  23510730.1724                   23510730.5664
 -35288569.93747 -27480415.03946  21470128.2344                   21470126.5084
 -31306125.14548 -24378089.91847  20732458.2734                   20732453.6764
 11  8 12  0 43  0.0000000  0  7G12G10G05G25G09G04G02
 -17980366.85948 -13996551.02746  21761902.5474                   21761899.7624
 -25688872.43748 -20002661.88346  21042555.0164                   21042553.1454
 -12120529.46147  -9430961.24645  22528586.5554                   22528586.1174
   1936143.56647   1522497.66443  24605903.7504                   24605904.6524
 -14393664.48447 -11199689.86344  23520347.2894                   23520348.6564
 -35240847.38348 -27443228.64546  21479209.8524                   21479207.7854
 -31338882.64548 -24403615.22747  20726224.6174                   20726220.2544
 11  8 12  0 43 30.0000000  0  7G12G10G05G25G09G04G02
 -18072137.78548 -14068060.81246  21744438.9694                   21744436.5744
 -25729165.52348 -20034059.07446  21034887.6174                   21034885.3634
 -12241935.48447  -9525563.23445  22505484.1804                   22505483.3984
   1808869.10247   1423322.85943  24581684.1414                   24581685.1454
 -14342803.00047 -11160057.63744  23530026.5704                   23530026.9184
 -35192844.13348 -27405823.52346  21488344.2974                   21488342.8914
 -31371233.88348 -24428823.97747  20720068.4224                   20720063.9574
 11  8 12  0 44  0.0000000  0  7G12G10G05G25G09G04G02
 -18163432.10947 -14139199.22346  21727066.3444                   21727063.6054
 -25768752.14548 -20064905.75846  21027354.5864                   21027352.6134
 -12363015.19147  -9619910.95746  22482443.0004                   22482443.0944
   1681810.33247   1324316.12543  24557506.1094                   24557505.8524
 -14291623.87147 -11120177.89844  23539766.0394                   23539766.2774
 -35144563.63748 -27368202.36746  21497531.7584                   21497530.2114
 -31403180.98448 -24453717.80547  20713988.7734                   20713984.8444
 11  8 12  0 44 30.0000000  0  7G12G10G05G25G09G04G02
 -18254248.35548 -14209965.10946  21709784.4454                   21709782.3324
 -25807632.34848 -20095202.00846  21019956.0234                   21019953.3524
 -12483766.73447  -9714002.97345  22459465.2424                   22459464.0944
   1554968.58246   1225478.51243  24533368.1254                   24533368.3204
 -14240131.75047 -11080054.28144  23549564.1174                   23549565.0594
 -35096009.13748 -27330367.71146  21506771.5394                   21506769.9414
 -31434726.19948 -24478298.49647  20707986.1804                   20707981.9654
 11  8 12  0 45  0.0000000  0  7G12G10G05G25G09G04G02
 -18344585.07847 -14280357.32846  21692594.2344                   21692591.1844
 -25845805.72348 -20124947.48046  21012691.4454                   21012689.5474
 -12604187.75047  -9807837.43445  22436549.8204                   22436549.1254
   1428345.89146   1126811.61743  24509273.2894                   24509272.4734
 -14188330.29746 -11039689.60544  23559421.5634                   23559422.3204
 -35047183.25848 -27292321.57446  21516062.8914                   21516060.8484
 -31465870.82848 -24502567.03947  20702059.4144                   20702054.8364
 11  8 12  0 45 30.0000000  0  7G12G10G05G25G09G04G02
 -18434439.91047 -14350374.05546  21675495.2584                   21675492.9454
 -25883271.77748 -20154141.79746  21005562.4144                   21005559.8524
 -12724275.64147  -9901412.32045  22413697.1254                   22413696.9774
   1301944.34846   1028316.96943  24485219.3134                   24485219.4064
 -14136223.68047 -10999087.14844  23569337.0314                   23569338.8634
 -34998088.39848 -27254065.84846  21525405.1804                   21525403.2934
 -31496616.14548 -24526524.40647  20696208.6724                   20696204.4734
 11  8 12  0 46  0.0000000  0  7G12G10G05G25G09G04G02
 -18523810.94547 -14420013.79346  21658488.3754                   21658485.7774
 -25920030.30148 -20182784.78146  20998567.4694                   20998564.9964
 -12844028.03147  -9994725.76645  22390908.8674                   22390908.4064
   1175765.77346    929996.11743  24461208.0864                   24461208.7304
 -14083815.71147 -10958249.89544  23579310.4924                   23579311.5204
 -34948727.66848 -27215602.94546  21534798.1804                   21534796.0864
 -31526964.33648 -24550172.33247  20690434.0944                   20690429.1914
 11  8 12  0 46 30.0000000  0  7G12G10G05G25G09G04G02
 -18612695.48048 -14489274.43746  21641574.3674                   21641571.5984
 -25956080.04348 -20210875.48046  20991707.4614                   20991705.4144
 -12963441.78947 -10087775.34445  22368185.7344                   22368185.1484
   1049813.29346    831851.45344  24437240.0634                   24437241.4304
 -14031109.36347 -10917180.11344  23589340.5634                   23589341.6914
 -34899102.56648 -27176934.04345  21544241.6884                   21544239.4064
 -31556915.18748 -24573510.64847  20684734.5394                   20684729.9574
 11  8 12  0 47  0.0000000  0  7G12G10G05G25G09G04G02
 -18701089.75847 -14558153.06246  21624753.5084                   21624751.0004
 -25991419.10948 -20238412.39846  20984982.6094                   20984980.2974
 -13082512.34047 -10180557.49645  22345527.0474                   22345525.9774
    924090.57847    733885.76644  24413316.3834                   24413316.6604
 -13978106.89147 -10875879.57044  23599425.7734                   23599427.4454
 -34849213.93048 -27138059.79346  21553735.1334                   21553732.6604
 -31586468.89148 -24596539.50847  20679110.4384                   20679106.1454
 11  8 12  0 47 30.0000000  0  7G12G10G05G25G09G04G02
 -18788992.55547 -14626648.71546  21608026.2664                   21608022.9304
 -26026048.19548 -20265396.07846  20978392.8134                   20978390.8984
 -13201238.36347 -10273071.19546  22322934.2894                   22322933.4454
    798598.84447    636100.05144  24389435.8984                   24389436.7464
 -13924813.06247 -10834352.00044  23609567.2034                   23609568.6724
 -34799065.32848 -27098982.96945  21563278.2344                   21563276.0044
 -31615627.88748 -24619260.79747  20673561.8674                   20673557.6054
 11  8 12  0 48  0.0000000  0  7G12G10G05G25G09G04G02
 -18876400.67648 -14694758.89546  21591392.7274                   21591390.3014
 -26059965.60548 -20291825.20746  20971938.2344                   20971936.2304
 -13319616.05547 -10365313.45345  22300407.6094                   22300406.6524
    673341.62547    538497.06344  24365600.3914                   24365601.1054
 -13871230.41046 -10792599.39144  23619764.2584                   23619765.2194
 -34748657.78548 -27059704.38746  21572870.1564                   21572868.2624
 -31644392.25448 -24641674.59046  20668088.3204                   20668083.5594
 11  8 12  0 48 30.0000000  0  7G12G10G05G25G09G04G02
 -18963312.36747 -14762482.26646  21574854.4384                   21574851.3984
 -26093171.02048 -20317699.53946  20965619.5314                   20965617.7344
 -13437642.71947 -10457282.17245  22277947.5704                   22277947.0434
    548320.94547    441078.37944  24341809.6414                   24341810.8524
 -13817362.71146 -10750624.65643  23630014.9774                   23630015.8714
 -34697994.00848 -27020226.13346  21582511.4144                   21582509.3404
 -31672763.35948 -24663781.93447  20662689.2114                   20662685.0474
 11  8 12  0 49  0.0000000  0  7G12G10G05G25G09G04G02
 -19049723.96947 -14829815.96946  21558410.4304                   21558407.3794
 -26125662.71948 -20343017.72746  20959436.3054                   20959434.7194
 -13555314.44547 -10548974.32846  22255555.5864                   22255554.7194
    423540.40647    343846.82844  24318064.3754                   24318065.6374
 -13763212.36347 -10708429.68044  23640319.7344                   23640320.3954
 -34647075.00848 -26980549.00446  21592200.8754                   21592198.8284
 -31700741.20748 -24685582.84047  20657365.4694                   20657360.7974
 11  8 12  0 49 30.0000000  0  7G12G10G05G25G09G04G02
 -19135633.11747 -14896758.13746  21542062.6024                   21542059.8014
 -26157439.98848 -20367779.21146  20953389.4304                   20953387.6564
 -13672628.23847 -10640387.57845  22233231.7974                   22233230.3404
    299002.70347    246804.45744  24294365.7424                   24294366.0984
 -13708782.76247 -10666017.11744  23650677.2424                   23650677.5314
 -34595902.82448 -26940674.58246  21601938.7974                   21601936.7074
 -31728326.74248 -24707078.04747  20652115.8054                   20652111.2894
 11  8 12  0 50  0.0000000  0  7G12G10G05G25G09G04G02
 -19221037.63748 -14963307.10546  21525810.6094                   21525808.0514
 -26188502.44948 -20391983.70346  20947478.9534                   20947476.6484
 -13789581.39547 -10731519.81646  22210976.3444                   22210974.9414
    174710.21547    149953.19544  24270713.4924                   24270713.7774
 -13654077.45747 -10623389.68044  23661087.3204                   23661088.3914
 -34544479.71148 -26900604.64846  21611724.3444                   21611722.3164
 -31755521.28548 -24728268.58647  20646940.9534                   20646936.5314
 11  8 12  0 50 30.0000000  0  7G12G10G05G25G09G04G02
 -19305937.84047 -15029463.09446  21509654.3984                   21509651.9924
 -26218852.23448 -20415632.86746  20941703.4774                   20941701.1374
 -13906173.16447 -10822370.44945  22188789.3054                   22188787.8754
     50662.86347     53292.95343  24247107.7974                   24247108.8554
 -13599102.53947 -10580552.18744  23671548.9924                   23671549.8634
 -34492810.26648 -26860342.76646  21621556.3134                   21621554.7774
 -31782328.51248 -24749157.32047  20641839.5864                   20641835.1374
 11  8 12  0 51  0.0000000  0  7G12G10G05G25G09G04G02
 -19390332.84848 -15095225.41846  21493594.8674                   21493592.2734
 -26248490.15648 -20438727.33646  20936063.1884                   20936061.3014
 -14022403.13347 -10912939.15246  22166671.4224                   22166670.3594
    -73138.19146    -43175.39543  24223548.7814                   24223549.9494
 -13543863.07447 -10537508.53944  23682061.2424                   23682061.7194
 -34440898.17248 -26819891.80946  21631434.9384                   21631433.1054
 -31808750.90248 -24769746.18747  20636811.5634                   20636807.1374
 11  8 12  0 51 30.0000000  0  7G12G10G05G25G09G04G02
 -19474219.03948 -15160591.28146  21477631.8054                   21477628.5904
 -26277414.59848 -20461265.83646  20930559.2344                   20930557.1334
 -14138266.45347 -11003222.16046  22144622.8204                   22144621.9494
   -196689.20747   -139448.90643  24200038.7114                   24200039.0274
 -13488360.80947 -10494260.11744  23692622.4384                   23692623.5824
 -34388744.21548 -26779252.38346  21641359.6334                   21641358.1134
 -31834788.41448 -24790035.14547  20631857.0004                   20631852.5904
 11  8 12  0 52  0.0000000  0  7G12G10G05G25G09G04G02
 -19557595.26248 -15225559.76246  21461766.0864                   21461763.0274
 -26305625.91048 -20483248.65646  20925190.6804                   20925188.8014
 -14253761.30947 -11093218.04346  22122645.2194                   22122644.3874
   -319988.68446   -235526.43443  24176575.1094                   24176576.1134
 -13432600.64547 -10450810.71944  23703233.3754                   23703234.1764
 -34336351.74648 -26738427.09846  21651329.5394                   21651327.8134
 -31860443.19148 -24810025.85546  20626974.8134                   20626970.1484
 11  8 12  0 52 30.0000000  0  7G12G10G05G25G09G04G02
 -19640459.92248 -15290129.61346  21445997.1564                   21445994.1954
 -26333124.71948 -20504676.27046  20919957.7344                   20919956.0704
 -14368885.85547 -11182925.39146  22100737.4774                   22100737.0044
   -443034.94147   -331406.65644  24153160.3054                   24153160.9694
 -13376586.93047 -10407163.75844  23713892.8444                   23713893.2274
 -34283723.21148 -26697417.87945  21661344.6954                   21661342.9344
 -31885717.19148 -24829719.86747  20622165.2504                   20622161.0704
 11  8 12  0 53  0.0000000  0  7G12G10G05G25G09G04G02
 -19722813.04347 -15354300.87146  21430326.0314                   21430323.3094
 -26359912.71948 -20525550.01246  20914860.2974                   20914858.2034
 -14483639.34047 -11272343.59446  22078900.4534                   22078899.5744
   -565827.34847   -427089.03144  24129794.0004                   24129795.3554
 -13320324.95347 -10363323.32844  23724598.6414                   23724599.6414
 -34230863.04348 -26656228.16045  21671403.6724                   21671402.0514
 -31910613.23048 -24849119.36747  20617428.0004                   20617423.1914
 11  8 12  0 53 30.0000000  0  7G12G10G05G25G09G04G02
 -19804652.54348 -15418071.89146  21414752.4304                   21414749.6454
 -26385990.10548 -20545870.02346  20909897.6024                   20909895.4104
 -14598019.01247 -11361470.53146  22057134.6254                   22057133.6414
   -688363.76647   -522571.96944  24106475.9924                   24106477.2504
 -13263818.52347 -10319292.47344  23735352.5944                   23735352.9024
 -34177773.59448 -26614859.78145  21681505.9454                   21681504.2384
 -31935133.13748 -24868225.77047  20612762.0394                   20612757.3674
 11  8 12  0 54  0.0000000  0  7G12G10G05G25G09G04G02
 -19885977.43448 -15481441.91446  21399276.8754                   21399273.9064
 -26411357.62948 -20565636.90246  20905070.0634                   20905068.3834
 -14712023.52047 -11450305.12146  22035440.8914                   22035440.1884
   -810642.89147   -617854.38744  24083207.5474                   24083208.3164
 -13207072.33647 -10275074.77744  23746150.3914                   23746151.8284
 -34124458.17248 -26573315.32845  21691651.5394                   21691649.8794
 -31959279.17648 -24887040.85247  20608167.2034                   20608162.7624
 11  8 12  0 54 30.0000000  0  7G12G10G05G25G09G04G02
 -19966787.98448 -15544411.15246  21383899.3204                   21383896.3284
 -26436017.39547 -20584852.29346  20900378.0004                   20900375.8794
 -14825653.03947 -11538847.51646  22013817.8364                   22013816.5084
   -932664.85247   -712936.42245  24059987.5394                   24059988.6914
 -13150092.55546 -10230675.04744  23756993.2114                   23756994.1134
 -34070921.72748 -26531598.63745  21701839.0864                   21701837.7034
 -31983055.15648 -24905567.56647  20603642.8984                   20603637.9494
 11  8 12  0 55  0.0000000  0  7G12G10G05G25G09G04G02
 -20047082.00848 -15606977.88746  21368619.5234                   21368616.5474
 -26459969.35948 -20603516.13746  20895819.7664                   20895818.5314
 -14938903.69147 -11627094.69546  21992266.3284                   21992265.3134
  -1054426.68747   -807815.74644  24036816.4304                   24036817.9184
 -13092882.21547 -10186095.67644  23767880.1484                   23767882.0824
 -34017165.41848 -26489710.62945  21712068.7194                   21712067.2424
 -32006461.82848 -24923806.51247  20599188.6644                   20599184.0354
 11  8 12  0 55 30.0000000  0  7G12G10G05G25G09G04G02
 -20126857.57048 -15669140.63746  21353438.6564                   21353435.7934
 -26483213.53548 -20621628.45746  20891396.6484                   20891394.7814
 -15051773.37147 -11715045.00446  21970787.9924                   21970786.6024
  -1175926.32447   -902490.75044  24013696.5394                   24013697.1764
 -13035445.35247 -10141339.79344  23778810.1644                   23778811.5474
 -33963192.41048 -26447653.75045  21722339.9144                   21722337.3834
 -32029501.05148 -24941759.12947  20594804.0084                   20594799.5474
 11  8 12  0 56  0.0000000  0  7G12G10G05G25G09G04G02
 -20206113.70348 -15730898.62546  21338356.7424                   21338354.0664
 -26505751.23048 -20639190.28546  20887108.1644                   20887105.9884
 -15164260.79347 -11802697.45746  21949382.5554                   21949381.3444
  -1297162.56647   -996960.50444  23990625.4924                   23990626.6094
 -12977786.73847 -10096411.12144  23789782.3914                   23789783.2304
 -33909005.61348 -26405430.30145  21732650.9614                   21732648.8324
 -32052175.18448 -24959427.26247  20590489.5554                   20590484.6914
 11  8 12  0 56 30.0000000  0  7G12G10G05G25G09G04G02
 -20284849.63748 -15792251.25846  21323373.8914                   21323371.1884
 -26527583.46947 -20656202.39546  20882953.2424                   20882950.9884
 -15276364.12547 -11890050.62146  21928049.4534                   21928048.6724
  -1418134.12147  -1091223.94144  23967604.7734                   23967606.2934
 -12919911.38747 -10051313.58644  23800796.1094                   23800796.8244
 -33854608.40248 -26363042.87545  21743002.7274                   21743001.0394
 -32074486.45748 -24976812.66846  20586243.6724                   20586239.0274
 11  8 12  0 57  0.0000000  0  7G12G10G05G25G09G04G02
 -20363064.05948 -15853197.52046  21308489.9694                   21308486.8014
 -26548710.81248 -20672665.23846  20878932.8594                   20878930.9774
 -15388081.71547 -11977103.20746  21906790.7584                   21906789.0864
  -1538839.27047  -1185279.82844  23944636.0554                   23944636.7424
 -12861823.50046 -10006050.41844  23811849.3444                   23811850.4574
 -33800003.73848 -26320493.80545  21753393.0704                   21753391.7154
 -32096437.37948 -24993917.26647  20582066.7584                   20582061.7464
 11  8 12  0 57 30.0000000  0  7G12G10G05G25G09G04G02
 -20440756.73448 -15913737.24246  21293705.7584                   21293702.5554
 -26569134.89848 -20688580.09446  20875046.4454                   20875044.4534
 -15499412.38747 -12063854.29746  21885604.6724                   21885603.8794
  -1659277.17647  -1279127.44544  23921716.7664                   23921718.2074
 -12803528.02747  -9960625.46144  23822942.9774                   23822944.1804
 -33745195.56648 -26277786.14145  21763822.9694                   21763821.6024
 -32118030.41048 -25010742.99247  20577957.4534                   20577953.3444
 11  8 12  0 58  0.0000000  0  7G12G10G05G25G09G04G02
 -20517927.21548 -15973870.05546  21279020.0944                   21279016.9304
 -26588857.71147 -20703948.50046  20871292.9694                   20871290.8524
 -15610355.34447 -12150303.27046  21864492.9614                   21864492.0204
  -1779447.13347  -1372766.28144  23898849.5004                   23898850.4264
 -12745030.16047  -9915042.82444  23834074.7034                   23834075.6214
 -33690187.55148 -26234922.77045  21774290.7114                   21774289.4924
 -32139268.80148 -25027292.37546  20573916.1094                   20573911.3364
 11  8 12  0 58 30.0000000  0  7G12G10G05G25G09G04G02
 -20594573.55948 -16033594.45746  21264435.4774                   21264432.6604
 -26607879.56647 -20718770.70346  20867673.3914                   20867670.9384
 -15720908.05947 -12236448.16046  21843455.3054                   21843454.4494
  -1899346.96147  -1466194.64544  23876033.5164                   23876034.2974
 -12686334.12947  -9869305.76644  23845244.5234                   23845245.7774
 -33634982.07448 -26191905.52345  21784795.6484                   21784794.1884
 -32160154.24248 -25043566.74247  20569941.7194                   20569937.2934
 11  8 12  0 59  0.0000000  0  7G12G10G05G25G09G04G02
 -20670693.72348 -16092908.86346  21249950.0944                   21249946.8134
 -26626200.21147 -20733046.50446  20864187.0314                   20864184.8714
 -15831067.58247 -12322286.65646  21822492.5234                   21822491.5904
  -2018973.79747  -1559410.28944  23853268.8594                   23853269.5514
 -12627442.69547  -9823416.44944  23856450.9384                   23856453.1294
 -33579580.89548 -26148735.78545  21795338.6644                   21795337.1804
 -32180687.32448 -25059566.54747  20566034.0864                   20566029.4534
 11  8 12  0 59 30.0000000  0  7G12G10G05G25G09G04G02
 -20746284.44948 -16151810.71946  21235565.4614                   21235562.7974
 -26643819.03948 -20746775.43046  20860834.6804                   20860832.3284
 -15940830.80947 -12407816.36746  21801605.6174                   21801604.3554
  -2138324.68747  -1652410.91044  23830557.0314                   23830557.6724
 -12568359.04347  -9777377.33244  23867694.1804                   23867696.1054
 -33523985.61348 -26105414.79345  21805918.2814                   21805916.3674
 -32200869.03148 -25075292.55947  20562193.6804                   20562189.5474
 11  8 12  1  0  0.0000000  0  7G12G10G05G25G09G04G02
 -20821345.28948 -16210299.68046  21221282.0474                   21221279.0274
 -26660736.78147 -20759958.05946  20857615.0704                   20857612.7304
 -16050195.68747 -12493035.67646  21780793.9774                   21780792.8914
  -2257397.66847  -1745195.00444  23807898.6024                   23807898.7464
 -12509087.34447  -9731191.69944  23878973.6724                   23878975.7114
 -33468198.87148 -26061944.60545  21816533.7194                   21816532.4774
 -32220701.36348 -25090746.34047  20558419.7424                   20558415.2774
 11  8 12  1  0 30.0000000  0  7G12G10G05G25G09G04G02
 -20895873.86348 -16268373.89546  21207099.6094                   21207096.9654
 -26676953.75048 -20772594.62946  20854529.2114                   20854526.9574
 -16159159.14147 -12577942.18046  21760058.7814                   21760057.4804
  -2376189.99247  -1837760.40244  23785293.0944                   23785293.2384
 -12449630.57847  -9684861.85544  23890288.1724                   23890289.5204
 -33412222.41048 -26018326.58645  21827185.7424                   21827184.1764
 -32240184.85248 -25105928.27347  20554712.4144                   20554707.7544
 11  8 12  1  1  0.0000000  0  7G12G10G05G25G09G04G02
 -20969868.91848 -16326032.38346  21193018.5314                   21193016.1214
 -26692470.72348 -20784685.74646  20851576.3054                   20851573.9574
 -16267719.38748 -12662534.50046  21739400.8984                   21739399.2074
  -2494700.07447  -1930105.87944  23762740.8444                   23762741.5864
 -12389993.38747  -9638391.38744  23901636.2344                   23901637.6374
 -33356059.09448 -25974562.96145  21837873.4454                   21837871.7544
 -32259321.81248 -25120840.18747  20551070.3914                   20551066.1644
 11  8 12  1  1 30.0000000  0  7G12G10G05G25G09G04G02
 -21043327.09048 -16383272.52046  21179040.4064                   21179037.3634
 -26707286.80948 -20796230.70746  20848756.9454                   20848754.4804
 -16375872.60547 -12746809.66446  21718819.6804                   21718818.2154
  -2612924.19547  -2022228.52344  23740244.0004                   23740243.7384
 -12330178.35247  -9591782.39544  23913018.6954                   23913019.8484
 -33299709.79748 -25930654.41845  21848596.1884                   21848594.7974
 -32278112.46948 -25135482.24247  20547495.1724                   20547490.4804
 11  8 12  1  2  0.0000000  0  7G12G10G05G25G09G04G02
 -21116248.11348 -16440094.10546  21165163.9454                   21165161.0514
 -26721403.87548 -20807230.98446  20846070.4384                   20846068.1094
 -16483617.62147 -12830766.73846  21698316.5864                   21698314.9534
  -2730861.43747  -2114127.63744  23717801.2034                   23717801.5514
 -12270190.30547  -9545038.60544  23924435.0394                   23924435.8554
 -33243178.13348 -25886603.77345  21859353.7894                   21859352.0354
 -32296559.77748 -25149856.75047  20543984.6884                   20543980.1334
 11  8 12  1  2 30.0000000  0  7G12G10G05G25G09G04G02
 -21188629.30548 -16496495.02746  21151389.9454                   21151386.6804
 -26734821.91448 -20817686.55146  20843517.0084                   20843515.1024
 -16590951.48847 -12914403.43446  21677891.0084                   21677889.9344
  -2848508.61747  -2205800.71544  23695413.1254                   23695414.0664
 -12210031.99247  -9498162.06244  23935882.1484                   23935884.3284
 -33186465.39548 -25842412.03145  21870145.7584                   21870144.2464
 -32314664.25848 -25163964.12947  20540539.3284                   20540534.8554
 11  8 12  1  3  0.0000000  0  7G12G10G05G25G09G04G02
 -21260466.17248 -16552471.80546  21137720.0234                   21137717.0314
 -26747538.41047 -20827595.47346  20841097.2974                   20841095.2074
 -16697868.85547 -12997715.59046  21657545.6724                   21657544.1604
  -2965860.72347  -2297243.87144  23673081.9924                   23673082.5554
 -12149704.81247  -9451153.99644  23947362.1804                   23947364.1054
 -33129571.40648 -25798079.05145  21880972.2424                   21880970.7774
 -32332424.82848 -25177803.51247  20537159.4384                   20537155.0824
 11  8 12  1  3 30.0000000  0  7G12G10G05G25G09G04G02
 -21331757.57448 -16608023.54346  21124153.7974                   21124150.7774
 -26759554.18448 -20836958.36746  20838810.4694                   20838808.1334
 -16804367.81647 -13080701.70746  21637279.5554                   21637277.7934
  -3082915.74247  -2388455.55944  23650806.9924                   23650808.0164
 -12089212.42246  -9404017.18444  23958873.8134                   23958875.7584
 -33072498.44548 -25753606.60545  21891833.3594                   21891831.7234
 -32349843.35248 -25191376.37947  20533845.0474                   20533840.6684
 11  8 12  1  4  0.0000000  0  7G12G10G05G25G09G04G02
 -21402501.64548 -16663148.77746  21110691.2344                   21110688.8094
 -26770869.87148 -20845775.75046  20836657.3754                   20836655.0084
 -16910446.06247 -13163359.99646  21617093.3594                   21617091.8404
  -3199671.39147  -2479433.96544  23628589.4774                   23628589.1644
 -12028558.23446  -9356754.29344  23970416.0394                   23970417.8984
 -33015248.74648 -25708996.46145  21902727.5944                   21902725.5434
 -32366921.07448 -25204683.68447  20530595.1644                   20530590.6844
 11  8 12  1  4 30.0000000  0  7G12G10G05G25G09G04G02
 -21472696.07448 -16717845.69946  21097333.9844                   21097330.6374
 -26781485.63348 -20854047.73846  20834637.0704                   20834634.5944
 -17016100.35247 -13245687.93046  21596987.7584                   21596986.4064
  -3316124.77347  -2570176.84044  23606429.5314                   23606429.3754
 -11967745.60946  -9309367.96143  23981987.7504                   23981989.9264
 -32957823.82848 -25664249.77345  21913654.8284                   21913653.3324
 -32383658.91448 -25217726.14547  20527410.0084                   20527405.8134
 11  8 12  1  5  0.0000000  0  7G12G10G05G25G09G04G02
 -21542337.07048 -16772111.38346  21084081.9844                   21084078.6024
 -26791399.96548 -20861773.14846  20832750.3284                   20832748.2464
 -17121326.03547 -13327681.89546  21576964.3444                   21576962.5904
  -3432271.30547  -2660680.58244  23584327.3914                   23584327.3634
 -11906776.20746  -9261859.46944  23993590.2424                   23993592.2344
 -32900223.69948 -25619366.55145  21924615.9924                   21924613.9184
 -32400056.33248 -25230503.34047  20524289.7734                   20524285.2464
 11  8 12  1  5 30.0000000  0  7G12G10G05G25G09G04G02
 -21611423.98448 -16825945.30146  21070934.7274                   21070931.5664
 -26800614.40648 -20868953.20746  20830996.9304                   20830994.2274
 -17226122.15247 -13409341.12546  21557021.7344                   21557020.2274
  -3548109.81647  -2750944.32844  23562283.9454                   23562283.9024
 -11845654.61746  -9214232.41844  24005220.7894                   24005223.1644
 -32842451.64148 -25574349.36345  21935609.5394                   21935607.9654
 -32416115.94148 -25243017.29347  20521233.5474                   20521228.8714
 11  8 12  1  6  0.0000000  0  7G12G10G05G25G09G04G02
 -21679955.73848 -16879346.62946  21057893.4144                   21057890.6884
 -26809129.88348 -20875588.60546  20829376.6334                   20829374.0704
 -17330486.44147 -13490663.87946  21537162.2504                   21537160.3794
  -3663638.10547  -2840966.31244  23540299.1334                   23540299.7814
 -11784384.85546  -9166489.92644  24016880.5164                   24016882.7074
 -32784509.98048 -25529200.02345  21946635.7034                   21946634.1334
 -32431839.33648 -25255269.27047  20518241.6644                   20518237.1454
 11  8 12  1  6 30.0000000  0  7G12G10G05G25G09G04G02
 -21747930.48048 -16932313.91846  21044958.3364                   21044955.9064
 -26816946.87948 -20881679.74646  20827888.7274                   20827886.3714
 -17434416.43047 -13571648.20746  21517384.6174                   21517382.8914
  -3778853.85947  -2930744.79744  23518374.4534                   23518374.0634
 -11722970.34046  -9118634.60244  24028567.5394                   24028569.8164
 -32726400.60948 -25483919.98845  21957693.2664                   21957691.6994
 -32447227.96148 -25267260.38747  20515313.1644                   20515308.7234
 11  8 12  1  7  0.0000000  0  7G12G10G05G25G09G04G02
 -21815344.38348 -16984844.19546  21032130.2034                   21032127.1724
 -26824064.37148 -20887225.81246  20826534.3914                   20826532.1374
 -17537907.56648 -13652290.57846  21497690.8914                   21497689.2934
  -3893752.61747  -3020276.24644  23496509.9144                   23496510.7464
 -11661412.48847  -9070667.60244  24040281.7814                   24040284.4104
 -32668123.75448 -25438509.45745  21968782.9064                   21968781.3954
 -32462281.20748 -25278990.17247  20512448.8284                   20512444.4804
 11  8 12  1  7 30.0000000  0  7G12G10G05G25G09G04G02
 -21882198.23448 -17036938.06646  21019407.9534                   21019404.7424
 -26830485.77348 -20892229.47346  20825312.5314                   20825310.5904
 -17640960.14148 -13732591.20746  21478080.5634                   21478079.1414
  -4008334.60547  -3109560.85544  23474705.8594                   23474706.5004
 -11599717.85947  -9022594.02344  24052021.6954                   24052024.7194
 -32609684.15648 -25392972.11345  21979903.8364                   21979902.1804
 -32477003.23048 -25290461.85547  20509647.1094                   20509642.6564
 11  8 12  1  8  0.0000000  0  7G12G10G05G25G09G04G02
 -21948488.02348 -17088592.41446  21006793.6174                   21006790.6804
 -26836209.09848 -20896689.18446  20824223.0474                   20824221.0704
 -17743569.15248 -13812546.20746  21458554.8754                   21458553.4304
  -4122594.84447  -3198594.75845  23452963.1564                   23452963.6684
 -11537887.25047  -8974414.44944  24063788.1724                   24063790.9144
 -32551081.10947 -25347307.40245  21991055.4924                   21991053.8834
 -32491392.73848 -25301674.43447  20506909.1094                   20506904.3244
 11  8 12  1  8 30.0000000  0  7G12G10G05G25G09G04G02
 -22014214.46148 -17139807.78546  20994286.3054                   20994283.2234
 -26841237.70748 -20900607.56646  20823266.5004                   20823264.0864
 -17845734.77348 -13892155.70346  21439113.6644                   21439111.8054
  -4236533.37947  -3287377.98045  23431280.6724                   23431281.7774
 -11475926.77747  -8926133.73044  24075579.3754                   24075581.3754
 -32492319.12947 -25301518.85245  22002237.6254                   22002236.0554
 -32505453.64848 -25312630.96147  20504233.5314                   20504228.4064
 11  8 12  1  9  0.0000000  0  7G12G10G05G25G09G04G02
 -22079375.11348 -17190582.27746  20981886.6024                   20981883.4304
 -26845571.05147 -20903984.16846  20822441.8754                   20822439.5554
 -17947453.43048 -13971416.93746  21419756.3594                   21419755.2854
  -4350146.87147  -3375907.95745  23409660.8284                   23409661.5904
 -11413839.03947  -8877753.83644  24087394.3594                   24087396.3284
 -32433399.24247 -25255607.26645  22013449.9454                   22013448.1724
 -32519186.59048 -25323331.93447  20501620.0704                   20501615.3794
 11  8 12  1  9 30.0000000  0  7G12G10G05G25G09G04G02
 -22143969.36348 -17240915.43746  20969594.6644                   20969591.5784
 -26849211.27348 -20906820.68746  20821748.9774                   20821746.5124
 -18048724.24248 -14050329.18746  21400485.2424                   21400483.9064
  -4463434.04347  -3464183.64844  23388103.4144                   23388103.8014
 -11351628.49247  -8829278.27744  24099232.8054                   24099234.4884
 -32374324.56647 -25209575.05545  22024691.2974                   22024689.4844
 -32532594.44948 -25333779.59447  20499068.3134                   20499063.8634
 11  8 12  1 10  0.0000000  0  7G12G10G05G25G09G04G02
 -22207994.27348 -17290804.96146  20957411.3284                   20957408.0274
 -26852157.87148 -20909116.71946  20821188.3054                   20821185.7974
 -18149543.20347 -14128889.35246  21381299.9614                   21381299.0314
  -4576391.03547  -3552202.06645  23366607.6724                   23366608.6214
 -11289297.26247  -8780708.66043  24111093.5554                   24111096.2894
 -32315095.77347 -25163422.75845  22035962.3834                   22035960.5554
 -32545676.60548 -25343973.45747  20496579.0394                   20496574.2344
 11  8 12  1 10 30.0000000  0  7G12G10G05G25G09G04G02
 -22271448.27748 -17340249.62146  20945336.4454                   20945333.5004
 -26854411.83648 -20910873.03946  20820759.6414                   20820756.7504
 -18249908.00448 -14207095.62546  21362201.5394                   21362199.5594
  -4689015.60547  -3639961.46145  23345176.2814                   23345176.6484
 -11226849.06247  -8732047.93043  24122977.3204                   24122980.0594
 -32255714.81247 -25117151.88345  22047261.8834                   22047260.5314
 -32558434.85548 -25353914.91047  20494151.3754                   20494146.5274
 11  8 12  1 11  0.0000000  0  7G12G10G05G25G09G04G02
 -22334328.53548 -17389247.20746  20933370.3444                   20933367.1254
 -26855972.46947 -20912089.09846  20820462.3984                   20820460.2234
 -18349814.53148 -14284944.80546  21343189.9304                   21343188.2194
  -4801303.71547  -3727458.65644  23323808.4924                   23323809.0474
 -11164285.91047  -8683297.58644  24134883.0474                   24134884.9614
 -32196182.18047 -25070762.83645  22058591.0164                   22058589.1484
 -32570869.10948 -25363603.91847  20491785.0004                   20491780.1414
 11  8 12  1 11 30.0000000  0  7G12G10G05G25G09G04G02
 -22396633.94548 -17437796.86346  20921514.1254                   20921510.8794
 -26856841.59048 -20912766.32846  20820296.9614                   20820294.5904
 -18449261.68748 -14362436.03146  21324265.6254                   21324264.0744
  -4913253.90647  -3814692.54344  23302505.0394                   23302505.2114
 -11101611.98447  -8634460.93443  24146809.7664                   24146811.9964
 -32136500.84847 -25024257.91845  22069947.5004                   22069946.1254
 -32582981.64148 -25373042.21947  20489480.1094                   20489475.3794
 11  8 12  1 12  0.0000000  0  7G12G10G05G25G09G04G02
 -22458363.21148 -17485897.57846  20909767.2974                   20909764.4534
 -26857020.10247 -20912905.41446  20820263.2974                   20820260.5434
 -18548247.08248 -14439567.43446  21305429.4304                   21305427.7034
  -5024863.54347  -3901661.07044  23281266.1724                   23281266.6954
 -11038830.77347  -8585540.66844  24158756.0864                   24158759.0474
 -32076672.50047 -24977638.44545  22081332.7584                   22081330.8134
 -32594773.63748 -25382230.75447  20487236.4694                   20487231.7584
 11  8 12  1 12 30.0000000  0  7G12G10G05G25G09G04G02
 -22519514.22748 -17533547.70346  20898130.6414                   20898127.7194
 -26856508.76648 -20912506.96146  20820360.3284                   20820357.8594
 -18646768.07048 -14516336.97346  21286681.4384                   21286679.9224
  -5136129.88747  -3988362.08644  23260092.8364                   23260093.3754
 -10975945.54746  -8536539.37143  24170723.1254                   24170725.7304
 -32016698.53147 -24930905.50045  22092745.6884                   22092743.5044
 -32606246.46148 -25391170.58646  20485052.7424                   20485047.8914
 11  8 12  1 13  0.0000000  0  7G12G10G05G25G09G04G02
 -22580087.04348 -17580747.29746  20886604.1884                   20886601.0634
 -26855309.90247 -20911572.77046  20820588.2194                   20820585.8714
 -18744823.73048 -14592743.91046  21268022.1644                   21268020.1254
  -5247052.02047  -4074794.86744  23238985.2504                   23238984.8674
 -10912961.21146  -8487460.82043  24182709.0944                   24182710.9574
 -31956582.66047 -24884061.98045  22104185.0234                   22104182.9344
 -32617403.03548 -25399864.00847  20482929.9224                   20482925.0514
 11  8 12  1 13 30.0000000  0  7G12G10G05G25G09G04G02
 -22640079.41448 -17627494.59046  20875188.3984                   20875185.0204
 -26853423.77348 -20910103.04746  20820947.0554                   20820945.1214
 -18842410.76247 -14668785.69546  21249451.7424                   21249450.0744
  -5357626.64547  -4160956.84444  23217943.7274                   23217943.4224
 -10849880.41046  -8438307.18043  24194712.9454                   24194714.4534
 -31896325.86347 -24837108.65645  22115650.8444                   22115649.6454
 -32628243.84448 -25408311.37547  20480866.7344                   20480861.8634
 11  8 12  1 14  0.0000000  0  7G12G10G05G25G09G04G02
 -22699490.14848 -17673788.66046  20863882.4304                   20863879.6914
 -26850851.85948 -20908098.93746  20821437.0234                   20821435.0394
 -18939527.27348 -14744460.83246  21230970.9064                   21230969.3874
  -5467851.75047  -4246846.44544  23196967.9144                   23196968.9064
 -10786706.85246  -8389081.17643  24206733.7664                   24206736.3444
 -31835930.32447 -24790047.23045  22127144.2584                   22127142.5514
 -32638770.69548 -25416514.08647  20478863.6414                   20478858.9694
 11  8 12  1 14 30.0000000  0  7G12G10G05G25G09G04G02
 -21182897.28148 -16492027.97346  21152480.8284                   21152477.7974
 -25272176.49648 -19677962.28146  21121848.7424                   21121846.4064
 -17460749.35948 -13592166.30146  21512373.1174                   21512371.6094
  -4002302.53547  -3104859.93744  23475853.3674                   23475853.5314
  -9148027.40246  -7112188.22743  24518564.6174                   24518567.4064
 -30199981.32847 -23515281.80945  22438454.8594                   22438453.1764
 -31073566.17248 -24196874.18447  20776712.1414                   20776707.6804
 11  8 12  1 15  0.0000000  0  7G12G10G05G25G09G04G02
 -21241143.44148 -16537414.57846  21141396.6724                   21141393.6914
 -25268238.84848 -19674893.96146  21122598.1954                   21122595.7934
 -17556921.20348 -13667105.33246  21494072.1804                   21494070.5354
  -4111824.15647  -3190201.34444  23455011.7034                   23455011.8594
  -9084681.89546  -7062828.22743  24530619.0704                   24530622.7544
 -30139316.92647 -23468010.87945  22449999.2114                   22449997.4844
 -31083472.19148 -24204593.14847  20774827.0944                   20774822.9144
 11  8 12  1 15 30.0000000  0  7G12G10G05G25G09G04G02
 -21298804.72348 -16582345.43046  21130424.3284                   21130421.1604
 -25263620.10948 -19671294.93446  21123477.0234                   21123474.4184
 -17652617.14548 -13741673.52046  21475861.6094                   21475859.5594
  -4220990.23847  -3275265.71145  23434238.0004                   23434237.9224
  -9021255.32846  -7013405.08243  24542688.2344                   24542692.1764
 -30078520.73047 -23420637.23845  22461567.8754                   22461566.9304
 -31093069.69148 -24212071.71147  20773000.6724                   20772996.1414
 11  8 12  1 16  0.0000000  0  7G12G10G05G25G09G04G02
 -21355879.81248 -16626819.52046  21119563.3754                   21119560.0004
 -25258320.78548 -19667165.57046  21124485.1724                   21124483.0514
 -17747834.56647 -13815868.85546  21457742.1564                   21457740.1334
  -4329798.23847  -3360051.04745  23413532.6484                   23413532.1994
  -8957750.80946  -6963921.21543  24554773.6644                   24554776.5314
 -30017594.26247 -23373162.10245  22473162.0314                   22473160.4414
 -31102360.11748 -24219310.98847  20771233.1644                   20771228.2504
 11  8 12  1 16 30.0000000  0  7G12G10G05G25G09G04G02
 -21412367.57448 -16670835.94146  21108813.6564                   21108810.2774
 -25252343.19548 -19662507.68746  21125623.0004                   21125620.4144
 -17842571.87548 -13889690.07446  21439714.3444                   21439712.7304
  -4438246.19547  -3444555.85245  23392895.5084                   23392895.5314
  -8894172.50846  -6914379.88344  24566872.2424                   24566875.3134
 -29956540.02747 -23325587.39545  22484780.1884                   22484778.7344
 -31111345.30548 -24226312.42647  20769523.1564                   20769518.3874
 11  8 12  1 17  0.0000000  0  7G12G10G05G25G09G04G02
 -21468266.24648 -16714393.32846  21098176.7194                   21098174.0514
 -25245687.72348 -19657321.59046  21126889.0084                   21126886.9304
 -17936826.43447 -13963135.12546  21421778.4304                   21421776.4964
  -4546331.30547  -3528777.91045  23372327.4534                   23372328.4104
  -8830523.27746  -6864783.24243  24578985.1174                   24578987.8714
 -29895359.32047 -23277914.14545  22496423.0554                   22496421.2234
 -31120026.13748 -24233076.70746  20767871.0314                   20767866.6134
 11  8 12  1 17 30.0000000  0  7G12G10G05G25G09G04G02
 -21523577.02348 -16757492.62146  21087651.4454                   21087648.6334
 -25238357.84848 -19651609.97746  21128283.9064                   21128281.7974
 -18030598.14848 -14036203.93446  21403934.4064                   21403932.2624
  -4654053.25447  -3612717.00845  23351828.5234                   23351829.3674
  -8766808.93446  -6815135.84044  24591109.2584                   24591112.7664
 -29834056.25847 -23230145.53945  22508088.4694                   22508086.6134
 -31128406.32448 -24239606.71146  20766276.4614                   20766271.6054
 11  8 12  1 18  0.0000000  0  7G12G10G05G25G09G04G02
 -21578298.30148 -16800132.55146  21077238.0474                   21077235.2544
 -25230354.75048 -19645373.78546  21129807.0234                   21129804.5274
 -18123884.78948 -14108894.76246  21386182.1254                   21386179.8954
  -4761409.53147  -3696371.15645  23331398.9224                   23331399.9104
  -8703032.43447  -6765440.01644  24603245.3754                   24603248.4494
 -29772632.42647 -23182282.82845  22519777.2504                   22519775.2734
 -31136487.28948 -24245903.54746  20764738.4534                   20764733.7894
 11  8 12  1 18 30.0000000  0  7G12G10G05G25G09G04G02
 -21632428.29348 -16842311.73046  21066937.2344                   21066934.9184
 -25221679.91848 -19638614.16046  21131457.8674                   21131455.3634
 -18216683.99648 -14181205.77046  21368523.1174                   21368520.9104
  -4868397.73047  -3779738.52045  23311039.6644                   23311040.6724
  -8639197.51647  -6715698.69143  24615393.6484                   24615396.1914
 -29711089.58247 -23134327.38345  22531488.1174                   22531486.9264
 -31144270.20348 -24251968.14546  20763257.6174                   20763252.8094
 11  8 12  1 19  0.0000000  0  7G12G10G05G25G09G04G02
 -21685965.94148 -16884029.34046  21056749.6954                   21056746.9964
 -25212334.01248 -19631331.61746  21133236.0164                   21133233.8164
 -18308993.44948 -14253135.15646  21350956.8914                   21350954.8554
  -4975015.16447  -3862817.00845  23290751.1644                   23290752.0314
  -8575307.19147  -6665914.16844  24627551.3284                   24627554.0004
 -29649429.27747 -23086280.39545  22543221.6884                   22543220.0904
 -31151756.27748 -24257801.43746  20761833.0554                   20761828.3014
 11  8 12  1 19 30.0000000  0  7G12G10G05G25G09G04G02
 -21738910.62148 -16925284.89846  21046674.5474                   21046671.4024
 -25202319.37148 -19623527.98446  21135141.8054                   21135139.5744
 -18400811.72348 -14324681.80546  21333484.9384                   21333482.5784
  -5081260.18747  -3945605.30945  23270533.7344                   23270533.4024
  -8511365.33247  -6616089.50444  24639719.2424                   24639722.6844
 -29587653.94547 -23038143.77745  22554977.2034                   22554975.5164
 -31158947.47748 -24263404.96147  20760464.4064                   20760460.2344
 11  8 12  1 20  0.0000000  0  7G12G10G05G25G09G04G02
 -21791260.46548 -16966076.95746  21036712.5634                   21036709.4964
 -25191636.61748 -19615203.74646  21137174.9144                   21137172.3244
 -18492136.17648 -14395843.65246  21316106.0474                   21316103.5944
  -5187129.93047  -4028101.21544  23250386.7274                   23250387.2934
  -8447374.80946  -6566226.93743  24651895.6174                   24651900.1054
 -29525764.87947 -22989918.53145  22566754.6094                   22566753.1954
 -31165844.87148 -24268779.55146  20759152.1644                   20759147.1334
 11  8 12  1 20 30.0000000  0  7G12G10G05G25G09G04G02
 -21843015.26248 -17006405.35246  21026863.7974                   21026861.2034
 -25180288.37947 -19606360.94546  21139334.2584                   21139331.6484
 -18582965.84448 -14466619.94946  21298821.9534                   21298819.5274
  -5292623.07047  -4110303.71144  23230312.6334                   23230312.3284
  -8383340.39546  -6516330.25843  24664081.8834                   24664085.2304
 -29463765.07447 -22941606.99245  22578552.9694                   22578551.3134
 -31172451.10248 -24273927.25446  20757894.8674                   20757890.1214
 11  8 12  1 21  0.0000000  0  7G12G10G05G25G09G04G02
 -21894173.04748 -17046268.53146  21017129.2034                   21017126.0124
 -25168275.48047 -19597000.22746  21141620.1334                   21141617.7504
 -18673297.65248 -14537008.30546  21281632.1094                   21281630.0554
  -5397736.27347  -4192210.17645  23210310.2814                   23210309.7814
  -8319264.12546  -6466400.91443  24676276.0864                   24676278.8484
 -29401655.28947 -22893209.77345  22590371.5314                   22590370.2664
 -31178766.91048 -24278848.65646  20756692.9454                   20756688.3244
 11  8 12  1 21 30.0000000  0  7G12G10G05G25G09G04G02
 -21944733.75848 -17085666.47346  21007507.4844                   21007504.4534
 -25155600.52748 -19587123.62146  21144032.0164                   21144029.8794
 -18763130.66848 -14607007.99246  21264537.0634                   21264535.5434
  -5502468.36347  -4273819.67645  23190380.6024                   23190380.0864
  -8255150.68446  -6416442.49643  24688475.5704                   24688479.2584
 -29339438.39547 -22844729.07045  22602211.2894                   22602209.8794
 -31184794.40648 -24283545.39846  20755546.1644                   20755541.4694
 11  8 12  1 22  0.0000000  0  7G12G10G05G25G09G04G02
 -21994696.87548 -17124598.74646  20998000.1254                   20997996.6374
 -25142265.16448 -19576732.41446  21146569.6484                   21146567.6564
 -18852463.19548 -14676617.68046  21247538.0164                   21247535.9884
  -5606817.28147  -4355130.60245  23170523.7504                   23170524.2854
  -8191003.94146  -6366458.20343  24700682.6804                   24700686.2974
 -29277116.62147 -22796166.65645  22614070.3914                   22614068.9734
 -31190535.62548 -24288019.07446  20754453.4454                   20754448.9694
 11  8 12  1 22 30.0000000  0  7G12G10G05G25G09G04G02
 -22044060.83248 -17163064.14846  20988606.4774                   20988603.1684
 -25128270.82448 -19565827.71946  21149232.8754                   21149230.5084
 -18941293.12548 -14745835.74246  21230634.1254                   21230632.2074
  -5710780.37947  -4436140.88345  23150740.2814                   23150740.5314
  -8126827.06646  -6316450.46543  24712895.7664                   24712897.6914
 -29214691.41447 -22747523.63745  22625949.5234                   22625947.8754
 -31195991.68748 -24292270.52346  20753415.6414                   20753410.7664
 11  8 12  1 23  0.0000000  0  7G12G10G05G25G09G04G02
 -22092823.62148 -17201061.10546  20979327.0084                   20979324.3874
 -25113618.07847 -19554409.97346  21152021.1174                   21152018.8874
 -19029617.40248 -14814659.79746  21213826.3444                   21213824.6954
  -5814354.51247  -4516848.05545  23131030.8364                   23131031.6414
  -8062622.19546  -6266420.84443  24725113.5784                   24725116.1644
 -29152163.57847 -22698800.64845  22637848.1644                   22637846.7304
 -31201163.24648 -24296300.30146  20752430.9774                   20752426.3094
 11  8 12  1 23 30.0000000  0  7G12G10G05G25G09G04G02
 -22140984.78948 -17238589.27046  20970162.4064                   20970159.2934
 -25098309.55548 -19542481.23446  21154934.1024                   21154932.0434
 -19117435.42648 -14883089.35546  21197115.4144                   21197113.5474
  -5917538.33247  -4597251.04345  23111395.9924                   23111396.3834
  -7998394.05146  -6216373.14143  24737335.2974                   24737338.1374
 -29089535.98847 -22649999.94144  22649765.8364                   22649764.3874
 -31206053.05148 -24300110.50446  20751500.8524                   20751495.6644
 11  8 12  1 24  0.0000000  0  7G12G10G05G25G09G04G02
 -22188544.20748 -17275648.54746  20961111.7814                   20961109.3874
 -25082347.37948 -19530043.14146  21157971.6484                   21157969.3284
 -19204745.08248 -14951122.79746  21180500.8054                   21180498.8714
  -6020329.71947  -4677348.21145  23091834.6884                   23091835.3754
  -7934146.30546  -6166310.16443  24749561.6174                   24749564.9144
 -29026810.70347 -22601123.09845  22661702.5394                   22661700.9304
 -31210662.52048 -24303702.27746  20750623.3834                   20750618.2424
 11  8 12  1 24 30.0000000  0  7G12G10G05G25G09G04G02
 -22235500.08648 -17312237.52046  20952176.3284                   20952173.4804
 -25065732.55948 -19517096.50446  21161133.2814                   21161130.9384
 -19291543.81648 -15018758.10946  21163983.3914                   21163981.5004
  -6122725.64147  -4757137.17645  23072349.4924                   23072350.4964
  -7869881.43446  -6116233.85543  24761791.4614                   24761795.0274
 -28963988.56247 -22552170.80545  22673657.0784                   22673655.0084
 -31214992.62148 -24307076.35546  20749799.1484                   20749794.0084
 11  8 12  1 25  0.0000000  0  7G12G10G05G25G09G04G02
 -22281850.45748 -17348354.68746  20943356.1564                   20943353.3204
 -25048465.65248 -19503641.75046  21164419.6094                   21164417.0904
 -19377828.46148 -15085992.82446  21147563.8834                   21147561.9224
  -6224722.94947  -4836615.48845  23052939.9144                   23052940.4774
  -7805601.80146  -6066146.05943  24774022.5394                   24774026.9454
 -28901070.40247 -22503143.66044  22685630.5164                   22685628.1954
 -31219043.69948 -24310233.02046  20749028.5944                   20749023.6994
 11  8 12  1 25 30.0000000  0  7G12G10G05G25G09G04G02
 -22327594.64548 -17383999.50046  20934651.3674                   20934648.2304
 -25030548.74248 -19489680.49246  21167828.4694                   21167826.4264
 -19463598.13348 -15152826.27346  21131242.4774                   21131240.3244
  -6326319.85247  -4915781.78545  23033606.1254                   23033606.9304
  -7741311.35946  -6016049.88743  24786257.0864                   24786260.8094
 -28838058.50447 -22454043.48844  22697620.5084                   22697618.8674
 -31222817.81648 -24313173.88346  20748310.5944                   20748305.2934
 11  8 12  1 26  0.0000000  0  7G12G10G05G25G09G04G02
 -22372731.14548 -17419170.78146  20926062.3364                   20926059.2584
 -25011983.34048 -19475213.92246  21171361.1804                   21171358.9694
 -19548850.40248 -15219256.53546  21115019.2974                   21115017.4384
  -6427513.63747  -4994633.97345  23014350.3134                   23014350.7774
  -7677012.80946  -5965947.31243  24798493.5864                   24798496.6254
 -28774953.97747 -22404871.13344  22709629.7814                   22709627.5164
 -31226316.10548 -24315899.81246  20747644.6024                   20747640.1994
 11  8 12  1 26 30.0000000  0  7G12G10G05G25G09G04G02
 -22417259.31648 -17453868.04346  20917588.8594                   20917585.9414
 -24992771.07048 -19460243.28946  21175017.7194                   21175014.6804
 -19633583.06248 -15285281.92246  21098895.3444                   21098893.2034
  -6528301.77747  -5073170.09445  22995170.7734                   22995171.3444
  -7612709.59846  -5915841.16843  24810729.5944                   24810733.3554
 -28711758.66047 -22355628.03145  22721654.9224                   22721652.8524
 -31229539.72348 -24318411.71146  20747031.0084                   20747026.1484
 11  8 12  1 27  0.0000000  0  7G12G10G05G25G09G04G02
 -22461179.05548 -17488091.20346  20909231.1024                   20909228.4024
 -24972914.93048 -19444770.94146  21178795.7734                   21178793.5554
 -19717795.25848 -15350901.75446  21082870.0004                   21082867.9804
  -6628683.14847  -5151389.26645  22976068.9224                   22976069.0274
  -7548406.07046  -5865734.75043  24822967.0164                   24822970.3484
 -28648475.08247 -22306316.15245  22733697.6414                   22733695.4574
 -31232491.03548 -24320711.41846  20746469.2194                   20746464.7664
 11  8 12  1 27 30.0000000  0  7G12G10G05G25G09G04G02
 -22504488.55148 -17521838.85247  20900989.4454                   20900986.5474
 -24952415.84048 -19428797.60246  21182696.4304                   21182694.0664
 -19801484.57848 -15416114.14846  21066944.9224                   21066942.7774
  -6728654.60247  -5229289.00445  22957044.8054                   22957044.7974
  -7484104.45746  -5815629.82043  24835202.7584                   24835207.1094
 -28585104.14147 -22256936.19545  22745756.2894                   22745754.5554
 -31235170.88748 -24322799.59446  20745959.7894                   20745954.9774
 11  8 12  1 28  0.0000000  0  7G12G10G05G25G09G04G02
 -22547187.26248 -17555110.56246  20892864.1094                   20892861.3164
 -24931275.62148 -19412324.68046  21186719.4304                   21186716.8674
 -19884649.07448 -15480917.60246  21051118.8984                   21051116.7304
  -6828213.93047  -5306867.62545  22938099.5234                   22938099.3954
  -7419808.40646  -5765529.36743  24847438.5554                   24847443.0084
 -28521647.36747 -22207489.36745  22757832.0864                   22757829.8794
 -31237580.95748 -24324677.55946  20745500.7974                   20745496.3594
 11  8 12  1 28 30.0000000  0  7G12G10G05G25G09G04G02
 -22589273.81248 -17587905.25846  20884855.4924                   20884852.6024
 -24909495.61748 -19395353.21546  21190864.2194                   21190861.6644
 -19967286.54348 -15545310.37946  21035393.2974                   21035391.1884
  -6927358.44147  -5384123.03945  22919233.0474                   22919232.2384
  -7355520.31647  -5715434.94543  24859671.9614                   24859676.7344
 -28458106.17247 -22157976.74645  22769923.1414                   22769921.6564
 -31239722.04348 -24326345.91446  20745093.3984                   20745088.7774
 11  8 12  1 29  0.0000000  0  7G12G10G05G25G09G04G02
 -22630747.41848 -17620222.33246  20876963.2114                   20876960.2974
 -24887077.62548 -19377884.62546  21195130.3284                   21195128.3244
 -20049395.16848 -15609291.07046  21019768.3594                   21019766.8324
  -7026085.81647  -5461053.42645  22900445.8284                   22900445.1174
  -7291243.79746  -5665349.58243  24871903.8284                   24871908.4614
 -28394482.06647 -22108399.52045  22782030.4924                   22782029.0784
 -31241595.46548 -24327805.70746  20744737.0314                   20744732.3484
 11  8 12  1 29 30.0000000  0  7G12G10G05G25G09G04G02
 -22671606.88348 -17652060.86346  20869187.9924                   20869185.2034
 -24864023.32047 -19359920.21946  21199517.2664                   21199514.8484
 -20130972.82448 -15672858.01646  21004244.7344                   21004242.7974
  -7124393.37947  -5537656.72345  22881738.2814                   22881737.5044
  -7226981.62946  -5615275.43443  24884132.0704                   24884136.5124
 -28330776.31647 -22058758.67645  22794153.4384                   22794151.9574
 -31243202.43748 -24329057.87146  20744431.1644                   20744426.5234
 11  8 12  1 30  0.0000000  0  6G12G10G05G25G04G02
 -22711851.46948 -17683420.25446  20861529.5164                   20861526.7154
 -24840335.08648 -19341461.84046  21204024.9534                   21204022.9064
 -20212017.82848 -15736009.91846  20988822.1564                   20988820.2344
  -7222279.14547  -5613931.35945  22863110.9614                   22863111.2544
 -28266990.85947 -22009055.72344  22806291.1884                   22806289.6254
 -31244544.66448 -24330103.74646  20744176.0164                   20744170.7304
 11  8 12  1 30 30.0000000  0  6G12G10G05G25G04G02
 -22751481.00848 -17714300.39546  20853988.5314                   20853985.7074
 -24816015.15648 -19322511.23046  21208652.8204                   21208650.7344
 -20292529.05548 -15798745.87546  20973501.2424                   20973499.3754
  -7319741.39547  -5689875.96545  22844564.7274                   22844564.5044
 -28203127.78147 -21959292.27044  22818444.0394                   22818442.0744
 -31245624.07048 -24330944.80546  20743970.8134                   20743965.3984
 11  8 12  1 31  0.0000000  0  6G12G10G05G25G04G02
 -22790492.08248 -17744698.60246  20846564.4064                   20846561.8834
 -24791062.67248 -19303067.71546  21213401.1954                   21213399.0274
 -20372501.91448 -15861062.33246  20958283.1094                   20958280.8914
  -7416775.01247  -5765486.57845  22826099.7424                   22826099.7894
 -28139185.83247 -21909467.37544  22830611.6564                   22830609.6484
 -31246439.38348 -24331580.08246  20743815.1024                   20743810.4494
 11  8 12  1 31 30.0000000  0  6G12G10G05G25G04G02
 -22828882.30148 -17774613.03146  20839259.3364                   20839256.3164
 -24765477.93748 -19283131.55546  21218269.5784                   21218267.6294
 -20451933.10548 -15922956.72346  20943167.9144                   20943165.8164
  -7513376.10247  -5840760.14845  22807717.0084                   22807717.4774
 -28075164.83647 -21859580.87144  22842794.3134                   22842792.6954
 -31246990.13348 -24332009.20746  20743710.3134                   20743705.6374
 11  8 12  1 32  0.0000000  0  6G12G10G05G25G04G02
 -22866649.82848 -17804042.24646  20832072.2664                   20832069.6954
 -24739261.89548 -19262703.45746  21223258.7274                   21223256.0434
 -20530819.42248 -15984426.52746  20928156.4384                   20928154.5044
  -7609541.18747  -5915693.98845  22789417.3444                   22789417.7664
 -28011065.23047 -21809633.12144  22854992.1644                   22854990.3754
 -31247276.84848 -24332232.59046  20743655.3364                   20743650.7304
 11  8 12  1 32 30.0000000  0  6G12G10G05G25G04G02
 -22903793.31248 -17832985.20346  20825004.0164                   20825001.1914
 -24712415.75848 -19241784.38746  21228366.6954                   21228364.2344
 -20609158.74648 -16045470.10546  20913249.0004                   20913246.5594
  -7705267.34447  -5990285.80145  22771201.2424                   22771201.6884
 -27946887.72347 -21759624.64844  22867204.4144                   22867202.9224
 -31247300.19548 -24332250.75846  20743651.3984                   20743646.6684
 11  8 12  1 33  0.0000000  0  6G12G10G05G25G04G02
 -22940313.25448 -17861442.27746  20818054.5704                   20818051.9344
 -24684943.28548 -19220377.25846  21233595.0314                   21233592.8204
 -20686950.85548 -16106087.28946  20898445.2344                   20898443.1804
  -7800553.75447  -6064534.92645  22753069.0944                   22753069.5944
 -27882635.50847 -21709557.97744  22879431.7894                   22879429.4774
 -31247062.87548 -24332065.81246  20743696.6484                   20743691.5784
 11  8 12  1 33 30.0000000  0  6G12G10G05G25G04G02
 -22976210.65248 -17889414.26246  20811223.3754                   20811220.3014
 -24656847.93048 -19198484.77046  21238941.6024                   21238938.7384
 -20764195.80148 -16166278.09446  20883746.2504                   20883743.7464
  -7895399.81247  -6138440.90645  22735020.3674                   22735021.2344
 -27818311.58247 -21659435.41844  22891672.5554                   22891670.4694
 -31246567.97348 -24331680.16446  20743790.3284                   20743785.7194
 11  8 12  1 34  0.0000000  0  6G12G10G05G25G04G02
 -23011485.47748 -17916901.10546  20804510.9774                   20804508.6564
 -24628131.96548 -19176108.68746  21244405.9924                   21244403.1454
 -20840892.05148 -16226041.35546  20869151.3594                   20869149.2734
  -7989803.51247  -6212002.16845  22717055.9224                   22717056.5354
 -27753917.87547 -21609258.49244  22903925.3054                   22903924.4844
 -31245817.16048 -24331095.10246  20743933.6254                   20743928.4344
 11  8 12  1 34 30.0000000  0  6G12G10G05G25G04G02
 -23046138.10548 -17943903.13346  20797917.0234                   20797914.0164
 -24598798.66047 -19153251.56646  21249987.6644                   21249985.4924
 -20917039.25048 -16285376.78146  20854660.8914                   20854658.9184
  -8083763.82847  -6285217.93045  22699176.0234                   22699176.2854
 -27689456.80147 -21559029.07044  22916192.3134                   22916191.1484
 -31244813.12148 -24330312.72346  20744124.4304                   20744119.6884
 11  8 12  1 35  0.0000000  0  6G12G10G05G25G04G02
 -23080168.22348 -17970420.09046  20791441.2974                   20791438.2384
 -24568850.51647 -19129915.35246  21255686.8754                   21255684.2234
 -20992635.62148 -16344282.99646  20840275.2504                   20840273.5824
  -8177278.62547  -6358086.52345  22681380.0164                   22681380.6414
 -27624930.04747 -21508748.47744  22928471.3834                   22928470.2814
 -31243557.07448 -24329333.98046  20744363.3914                   20744359.3634
 11  8 12  1 35 30.0000000  0  6G12G10G05G25G04G02
 -23113575.39848 -17996451.63746  20785083.8754                   20785080.9844
 -24538289.75047 -19106101.75846  21261502.2274                   21261500.0044
 -21067679.92248 -16402759.02746  20825995.0784                   20825992.8754
  -8270345.92647  -6430606.43045  22663670.0784                   22663670.6914
 -27560339.32047 -21458418.03944  22940762.0234                   22940761.0514
 -31242050.78148 -24328160.22346  20744650.1884                   20744645.0984
 11  8 12  1 36  0.0000000  0  6G12G10G05G25G04G02
 -23146358.97748 -18021997.26246  20778845.4224                   20778842.1644
 -24507118.37148 -19081812.37546  21267433.9774                   21267431.3094
 -21142170.46548 -16460803.56246  20811819.8914                   20811817.8094
  -8362963.39147  -6502775.80145  22646045.7424                   22646045.5824
 -27495685.82047 -21408038.68444  22953065.6724                   22953064.2234
 -31240295.44148 -24326792.41846  20744984.0474                   20744979.5314
 11  8 12  1 36 30.0000000  0  6G12G10G05G25G04G02
 -23178518.36348 -18047056.52046  20772725.6024                   20772722.7504
 -24475338.52748 -19057048.85246  21273481.1954                   21273479.2664
 -21216105.87148 -16518415.51246  20797750.2974                   20797748.3834
  -8455128.93048  -6574593.03945  22628507.3754                   22628507.7734
 -27430971.27747 -21357611.75844  22965380.7344                   22965378.7384
 -31238292.57848 -24325231.72346  20745365.5474                   20745360.6604
 11  8 12  1 37  0.0000000  0  6G12G10G05G25G04G02
 -23210053.88348 -18071629.62546  20766724.6414                   20766721.9844
 -24442953.30148 -19031813.60246  21279644.0474                   21279641.5274
 -21289485.04348 -16575594.03546  20783786.7504                   20783784.6134
  -8546841.19147  -6646057.07045  22611055.2504                   22611054.7274
 -27366197.72747 -21307138.86344  22977706.4694                   22977704.5044
 -31236044.25848 -24323479.77346  20745792.7974                   20745788.2624
 11  8 12  1 37 30.0000000  0  6G12G10G05G25G04G02
 -23240964.14548 -18095715.52346  20760842.7814                   20760839.6374
 -24409963.58247 -19006107.31246  21285921.8054                   21285919.1914
 -21362305.80548 -16632337.43746  20769929.1804                   20769927.0434
  -8638096.72747  -6717165.19545  22593689.6174                   22593689.5394
 -27301365.61747 -21256620.32844  22990043.5704                   22990041.6604
 -31233550.89548 -24321536.87146  20746267.5474                   20746262.7704
 11  8 12  1 38  0.0000000  0  6G12G10G05G25G04G02
 -23271249.21948 -18119314.26646  20755079.5944                   20755076.8984
 -24376372.51647 -18979932.46546  21292314.0864                   21292311.3054
 -21434566.87548 -16688644.72346  20756178.5084                   20756176.5164
  -8728894.06647  -6787916.29745  22576411.0554                   22576410.8444
 -27236476.65647 -21206057.50044  23002391.7194                   23002390.1414
 -31230814.21948 -24319404.36746  20746788.1884                   20746783.1994
 11  8 12  1 38 30.0000000  0  6G12G10G05G25G04G02
 -23300908.60948 -18142425.47346  20749435.7814                   20749432.5554
 -24342182.28547 -18953290.71946  21298820.3674                   21298817.9614
 -21506266.94148 -16744514.84846  20742534.3524                   20742532.3364
  -8819230.90648  -6858308.59845  22559221.1334                   22559220.5044
 -27171532.50447 -21155451.66444  23014750.1174                   23014748.0984
 -31227835.34448 -24317083.14146  20747355.1644                   20747350.1604
 11  8 12  1 39  0.0000000  0  6G12G10G05G25G04G02
 -23329942.71548 -18165049.43746  20743910.5944                   20743907.8324
 -24307395.75847 -18926184.33245  21305439.7034                   21305437.5004
 -21577405.09048 -16799947.12546  20728997.1414                   20728994.9804
  -8909105.96547  -6928341.07445  22542118.0784                   22542117.3524
 -27106535.05547 -21104804.31244  23027118.5004                   23027117.0904
 -31224616.55548 -24314574.96546  20747967.8984                   20747962.9964
 11  8 12  1 39 30.0000000  0  6G12G10G05G25G04G02
 -23358350.27348 -18187185.19146  20738505.1724                   20738502.0314
 -24272014.37148 -18898614.41445  21312172.7274                   21312170.0514
 -21647979.17648 -16854939.86746  20715567.3674                   20715565.1724
  -8998516.31247  -6998011.46145  22525103.3834                   22525102.7464
 -27041485.13747 -21054116.06244  23039497.1724                   23039495.5594
 -31221158.89548 -24311880.64146  20748625.8134                   20748620.8524
 11  8 12  1 40  0.0000000  0  6G12G10G05G25G04G02
 -23386130.56248 -18208832.16446  20733218.2894                   20733215.5314
 -24236040.21947 -18870582.59846  21319018.2344                   21319015.9654
 -21717987.42648 -16909491.68746  20702245.4454                   20702243.3984
  -9087459.31247  -7067317.67645  22508178.0554                   22508177.9774
 -26976383.66447 -21003387.62544  23051885.5634                   23051884.3324
 -31217463.07448 -24309000.74646  20749328.7584                   20749324.3484
 11  8 12  1 40 30.0000000  0  7G12G10G05G25G29G04G02
 -23413285.68448 -18229991.99246  20728050.9064                   20728048.3284
 -24199477.23047 -18842091.95346  21325975.9924                   21325973.4964
 -21787430.23848 -16963602.92247  20689030.5164                   20689028.2934
  -9175934.66447  -7136259.49245  22491342.0474                   22491341.2894
   4583777.96155   3582226.88753  24598614.0554                   24598613.1994
 -26911233.40246 -20952621.18044  23064282.8754                   23064281.0554
 -31213532.15648 -24305937.66446  20750076.8134                   20750071.8324
 11  8 12  1 41  0.0000000  0  7G12G10G05G25G29G04G02
 -23439816.14848 -18250665.07847  20723002.6174                   20722999.3914
 -24162329.36348 -18813145.56246  21333045.0474                   21333042.3634
 -21856307.57848 -17017273.52347  20675923.8444                   20675921.5164
  -9263941.69547  -7204836.37145  22474595.0164                   22474594.3444
   4486301.48046   3506271.21543  24580065.8204                   24580064.7034
 -26846037.46546 -20901819.14844  23076689.6334                   23076687.6884
 -31209368.55948 -24302693.28146  20750869.1254                   20750864.3324
 11  8 12  1 41 30.0000000  0  7G12G10G05G25G29G04G02
 -23465725.18748 -18270853.93746  20718072.3134                   20718069.0434
 -24124602.92248 -18783748.32846  21340224.7894                   21340221.9414
 -21924622.03948 -17070505.51646  20662923.7974                   20662921.5204
  -9351481.96147  -7273049.55945  22457936.7424                   22457936.7704
   4388793.34046   3430290.94543  24561510.1254                   24561508.1214
 -26780801.05547 -20850985.55544  23089103.5944                   23089102.1724
 -31204977.62148 -24299271.74646  20751704.2974                   20751699.9804
 11  8 12  1 42  0.0000000  0  7G12G10G05G25G29G04G02
 -23491012.77048 -18290558.54347  20713259.9844                   20713256.9844
 -24086299.33248 -18753901.37546  21347513.1334                   21347510.7194
 -21992371.28948 -17123297.07847  20650031.7034                   20650029.1954
  -9438552.84047  -7340896.99645  22441367.5394                   22441367.2074
   4291254.25846   3354286.53543  24542948.9534                   24542947.4304
 -26715524.55147 -20800120.71944  23101524.8364                   23101523.6684
 -31200360.15648 -24295673.69146  20752583.4844                   20752578.4184
 11  8 12  1 42 30.0000000  0  7G12G10G05G25G29G04G02
 -23515679.64148 -18309779.47746  20708565.8134                   20708563.0004
 -24047422.78148 -18723607.94946  21354911.1024                   21354908.4454
 -22059555.75048 -17175648.55147  20637246.5944                   20637244.3754
  -9525153.72747  -7408378.21545  22424887.9064                   22424887.9774
   4193682.82046   3278257.00043  24524381.4454                   24524379.7854
 -26650211.01646 -20749227.04744  23113953.5704                   23113952.6884
 -31195518.99648 -24291901.32846  20753504.4844                   20753499.6214
 11  8 12  1 43  0.0000000  0  7G12G10G05G25G29G04G02
 -23539723.09848 -18328514.64846  20703990.6564                   20703987.3094
 -24007972.59048 -18692867.52746  21362418.1564                   21362415.9064
 -22126171.21948 -17227556.66046  20624570.1564                   20624568.2234
  -9611279.77047  -7475489.41445  22408498.7664                   22408498.5274
   4096082.67246   3202205.03143  24505808.3134                   24505807.8404
 -26584858.89846 -20698303.30144  23126390.0864                   23126388.8914
 -31190452.73848 -24287953.57446  20754468.7424                   20754463.3714
 11  8 12  1 43 30.0000000  0  7G12G10G05G25G29G04G02
 -23563143.30148 -18346764.16046  20699534.2734                   20699530.7934
 -23967951.65648 -18661682.37546  21370033.5004                   21370031.3714
 -22192216.93748 -17279020.80546  20612002.0164                   20611999.4304
  -9696929.12147  -7542229.14845  22392199.7504                   22392200.3284
   3998453.35246   3126130.40243  24487230.9614                   24487229.0354
 -26519469.90246 -20647350.83644  23138833.7344                   23138831.8364
 -31185162.94148 -24283831.63746  20755475.2974                   20755470.1134
 11  8 12  1 44  0.0000000  0  7G12G10G05G25G29G04G02
 -23585938.94948 -18364527.00446  20695196.3284                   20695193.0944
 -23927361.58648 -18630053.73446  21377757.7664                   21377755.0084
 -22257691.00448 -17330039.50847  20599542.5314                   20599540.3754
  -9782099.19147  -7608595.40245  22375992.3834                   22375992.6884
   3900795.90646   3050033.81344  24468646.3594                   24468645.8794
 -26454044.45746 -20596369.93044  23151284.1804                   23151281.5314
 -31179650.27048 -24279536.03546  20756524.2734                   20756519.4924
 11  8 12  1 44 30.0000000  0  7G12G10G05G25G29G04G02
 -23608109.85948 -18381803.03546  20690977.0554                   20690973.9184
 -23886204.76247 -18597983.47346  21385589.5554                   21385587.4344
 -22322591.60548 -17380611.35547  20587192.6094                   20587190.5164
  -9866787.37547  -7674586.14545  22359876.8364                   22359877.2704
   3803111.33247   2973916.08643  24450057.9064                   24450056.5004
 -26388583.51247 -20545361.41444  23163740.4694                   23163738.5664
 -31173915.35248 -24275067.26246  20757615.5394                   20757610.4774
 11  8 12  1 45  0.0000000  0  7G12G10G05G25G29G04G02
 -23629657.23848 -18398593.19546  20686876.8674                   20686874.0824
 -23844484.91047 -18565474.48446  21393528.9844                   21393526.4964
 -22386918.59048 -17430736.23446  20574951.3134                   20574948.9304
  -9950992.93447  -7740200.79345  22343852.9844                   22343853.4414
   3705398.37546   2897776.25044  24431463.9534                   24431462.3554
 -26323089.38347 -20494327.01244  23176203.1334                   23176201.7814
 -31167960.94148 -24270427.44946  20758748.7894                   20758743.6414
 11  8 12  1 45 30.0000000  0  7G12G10G05G25G29G04G02
 -23650579.60548 -18414896.33246  20682895.4534                   20682892.3094
 -23802203.18747 -18532527.67246  21401574.6644                   21401572.2544
 -22450669.73848 -17480412.41447  20562819.8984                   20562817.8094
 -10034712.66047  -7805436.87945  22327921.5554                   22327921.9224
   3607658.56647   2821615.45344  24412864.3914                   24412862.9144
 -26257562.26247 -20443266.91444  23188672.6954                   23188670.5164
 -31161787.09448 -24265616.65646  20759923.1884                   20759918.1254
 11  8 12  1 46  0.0000000  0  7G12G10G05G25G29G04G02
 -23670877.98848 -18430713.23846  20679032.7974                   20679029.8714
 -23759362.89548 -18499145.61345  21409727.1334                   21409724.4264
 -22513844.82848 -17529639.71547  20550797.7974                   20550796.0274
 -10117945.38347  -7870293.49245  22312083.3754                   22312083.5634
   3509891.46547   2745433.38343  24394259.6644                   24394257.9304
 -26192004.22346 -20392182.73044  23201148.0944                   23201146.1604
 -31155395.96148 -24260636.54346  20761139.3834                   20761134.6254
 11  8 12  1 46 30.0000000  0  7G12G10G05G25G29G04G02
 -23690552.07448 -18446043.68446  20675289.1804                   20675285.6804
 -23715966.89847 -18465330.54745  21417984.7194                   21417982.4614
 -22576442.66848 -17578417.19947  20538886.0554                   20538883.6374
 -10200689.25847  -7934769.18045  22296337.3984                   22296337.0514
   3412097.23447   2669230.16443  24375650.2584                   24375648.5984
 -26126416.65647 -20341075.54344  23213628.9534                   23213627.1374
 -31148789.07848 -24255488.32446  20762396.7974                   20762391.7384
 11  8 12  1 47  0.0000000  0  7G12G10G05G25G29G04G02
 -23709602.34048 -18460888.03546  20671663.6174                   20671660.8794
 -23672017.50847 -18431084.24645  21426348.5634                   21426345.8204
 -22638462.14148 -17626744.02046  20527084.0784                   20527081.7384
 -10282942.25447  -7998862.33245  22280685.3364                   22280685.2894
   3314276.39847   2593006.20743  24357034.6564                   24357033.2544
 -26060800.67247 -20289946.19944  23226114.7734                   23226113.5704
 -31141967.66048 -24250172.93446  20763695.0234                   20763689.6724
 11  8 12  1 47 30.0000000  0  7G12G10G05G25G29G04G02
 -23728028.32448 -18475245.93746  20668157.5314                   20668154.5044
 -23627516.63747 -18396408.23845  21434816.1644                   21434814.0004
 -22699901.48448 -17674618.79746  20515392.7814                   20515390.2734
 -10364701.69947  -8062570.90646  22265126.8134                   22265126.8914
   3216430.05947   2516762.35543  24338415.6174                   24338413.2344
 -25995156.92247 -20238795.25844  23238606.7504                   23238605.3444
 -31134932.16048 -24244690.73046  20765033.8984                   20765028.7974
 11  8 12  1 48  0.0000000  0  7G12G10G05G25G29G04G02
 -23745829.36348 -18489116.87546  20664769.7974                   20664766.7664
 -23582466.64547 -18361304.32845  21443389.1884                   21443387.1484
 -22760759.40248 -17722040.51247  20503811.6484                   20503809.3554
 -10445965.39547  -8125893.18046  22249662.7664                   22249662.9104
   3118559.03947   2440499.25043  24319791.6334                   24319789.9184
 -25929486.15247 -20187623.23044  23251103.6024                   23251101.7584
 -31127683.60548 -24239042.51646  20766413.1094                   20766408.2544
 11  8 12  1 48 30.0000000  0  7G12G10G05G25G29G04G02
 -23763005.68048 -18502501.00046  20661501.1564                   20661498.3674
 -23536870.41848 -18325774.80145  21452065.8204                   21452063.2774
 -22821035.06648 -17769008.52347  20492341.7664                   20492339.2774
 -10526731.56247  -8188827.78146  22234293.5554                   22234293.7194
   3020663.42246   2364217.00843  24301162.5314                   24301160.6764
 -25863789.83246 -20136431.30944  23263605.0864                   23263603.1644
 -31120223.48448 -24233229.43746  20767832.8134                   20767827.8794
 11  8 12  1 49  0.0000000  0  7G12G10G05G25G29G04G02
 -23779556.69548 -18515397.89546  20658351.9224                   20658348.2464
 -23490729.86347 -18289821.12545  21460846.2664                   21460843.2074
 -22880726.65648 -17815521.41447  20480982.4224                   20480980.2544
 -10606997.73447  -8251372.77045  22219019.3984                   22219018.9734
   2922743.82847   2287916.04743  24282529.1954                   24282526.8524
 -25798068.53146 -20085219.91844  23276111.8524                   23276109.4064
 -31112552.47348 -24227252.03546  20769292.6334                   20769287.8754
 11  8 12  1 49 30.0000000  0  7G12G10G05G25G29G04G02
 -23795485.27748 -18527809.77046  20655320.8204                   20655317.7974
 -23444049.90247 -18253447.12145  21469728.5554                   21469726.5704
 -22939835.27348 -17861580.03547  20469734.6954                   20469732.1564
 -10686764.06248  -8313528.28145  22203840.0394                   22203839.9184
   2824798.89146   2211595.35543  24263890.8984                   24263888.2234
 -25732325.42647 -20033991.55144  23288621.9304                   23288620.9224
 -31104673.96548 -24221112.94146  20770791.5784                   20770786.5594
 11  8 12  1 50  0.0000000  0  7G12G10G05G25G29G04G02
 -23810791.07048 -18539736.35946  20652408.2034                   20652404.8014
 -23396832.73848 -18216654.52045  21478713.9224                   21478711.5274
 -22998359.69548 -17907183.44947  20458597.8984                   20458595.5274
 -10766028.25047  -8375292.52745  22188756.6724                   22188755.7854
   2726829.33246   2135255.52043  24245247.3134                   24245245.5704
 -25666561.40647 -19982746.87144  23301136.9844                   23301135.3874
 -31096588.68748 -24214812.73446  20772329.9384                   20772325.6174
 11  8 12  1 50 30.0000000  0  7G12G10G05G25G29G04G02
 -23825473.98848 -18551177.59046  20649614.2894                   20649610.8054
 -23349081.47347 -18179445.73445  21487800.4454                   21487798.2234
 -23056299.19148 -17952331.06247  20447572.1334                   20447570.0634
 -10844788.71148  -8436664.25446  22173768.8674                   22173768.5084
   2628835.39547   2058896.64843  24226600.3754                   24226598.4654
 -25600777.91447 -19931487.03544  23313654.6724                   23313652.9264
 -31088298.23848 -24208352.64146  20773907.9304                   20773903.0084
 11  8 12  1 51  0.0000000  0  7G12G10G05G25G29G04G02
 -23839533.51248 -18562133.05546  20646938.6954                   20646934.9964
 -23300797.21547 -18141821.62545  21496989.0634                   21496986.6024
 -23113651.57048 -17997021.19147  20436658.4064                   20436656.0554
 -10923042.34847  -8497641.06645  22158877.4224                   22158877.2114
   2530818.69147   1982520.06343  24207948.2194                   24207945.7384
 -25534974.74247 -19880211.83244  23326176.4774                   23326174.3164
 -31079802.85948 -24201732.87146  20775524.9224                   20775519.6414
 11  8 12  1 51 30.0000000  0  7G12G10G05G25G29G04G02
 -23852971.66048 -18572604.33646  20644381.4694                   20644377.9924
 -23251984.47347 -18103785.71145  21506277.4454                   21506275.3054
 -23170417.72348 -18041254.51647  20425856.0704                   20425853.6564
 -11000789.06247  -8558222.85945  22144083.3524                   22144082.4264
   2432778.10247   1906124.83644  24189291.4064                   24189290.0274
 -25469154.82447 -19828923.60944  23338702.1724                   23338700.1414
 -31071105.43448 -24194955.65246  20777179.6884                   20777174.9534
 11  8 12  1 52  0.0000000  0  7G12G10G05G25G29G04G02
 -23865786.93748 -18582590.28146  20641942.8204                   20641939.8444
 -23202644.31647 -18065338.83645  21515666.9384                   21515664.2424
 -23226594.92648 -18085028.92647  20415165.8984                   20415163.9304
 -11078025.12147  -8618406.74646  22129385.6564                   22129385.0394
   2334715.68047   1829712.60944  24170630.7504                   24170629.2034
 -25403317.59847 -19777621.89544  23351229.8284                   23351228.4064
 -31062205.35548 -24188020.52046  20778872.8594                   20778868.2504
 11  8 12  1 52 30.0000000  0  7G12G10G05G25G29G04G02
 -23877980.22348 -18592091.54746  20639622.4614                   20639619.2774
 -23152780.12947 -18026483.62945  21525155.8524                   21525153.3714
 -23282182.87948 -18128344.17647  20404588.1724                   20404585.5664
 -11154749.55548  -8678191.97746  22114784.8054                   22114784.4844
   2236631.13347   1753283.16444  24151965.4614                   24151964.1294
 -25337464.76246 -19726307.99244  23363761.9694                   23363759.5634
 -31053104.64548 -24180929.05946  20780605.1484                   20780600.4804
 11  8 12  1 53  0.0000000  0  7G12G10G05G25G29G04G02
 -23889552.24648 -18601108.70746  20637420.5864                   20637417.3164
 -23102394.94947 -17987222.44545  21534743.6254                   21534741.0084
 -23337181.18748 -18171199.96947  20394122.2424                   20394119.5124
 -11230960.81247  -8737577.34045  22100282.5784                   22100282.1094
   2138524.75847   1676836.70344  24133296.1884                   24133294.8714
 -25271597.85247 -19674983.12944  23376295.4774                   23376293.5234
 -31043804.82448 -24173682.44546  20782374.4534                   20782369.9264
 11  8 12  1 53 30.0000000  0  7G12G10G05G25G29G04G02
 -23900501.41048 -18609640.53546  20635336.9774                   20635333.7074
 -23051490.04747 -17947556.28545  21544430.7114                   21544428.1454
 -23391587.32048 -18213594.32047  20383768.9454                   20383766.3714
 -11306655.51648  -8796560.19546  22085878.2814                   22085878.3164
   2040398.55546   1600374.82844  24114624.2274                   24114623.0474
 -25205716.19546 -19623646.77744  23388832.0164                   23388830.8524
 -31034305.69548 -24166280.52046  20784182.5084                   20784177.6254
 11  8 12  1 54  0.0000000  0  7G12G10G05G25G29G04G02
 -23910829.77348 -18617688.61346  20633371.3134                   20633368.0904
 -23000069.41847 -17907488.25845  21554215.8054                   21554213.4534
 -23445402.26248 -18255528.01647  20373528.1884                   20373525.7154
 -11381833.42647  -8855140.35946  22071572.4614                   22071572.6994
   1942251.54346   1523896.69544  24095947.7034                   24095945.8754
 -25139822.71546 -19572301.21544  23401371.1954                   23401369.5004
 -31024609.64148 -24158725.14846  20786027.3754                   20786022.6024
 11  8 12  1 54 30.0000000  0  7G12G10G05G25G29G04G02
 -23920536.63348 -18625252.41046  20631524.4384                   20631521.1054
 -22948134.48047 -17867019.47745  21564098.5314                   21564095.7344
 -23498623.72348 -18296999.25447  20363400.4224                   20363398.2664
 -11456491.30548  -8913315.30546  22057365.6564                   22057365.3284
   1844085.56646   1447403.79344  24077266.3984                   24077266.4694
 -25073916.68746 -19520945.88744  23413912.8524                   23413911.2734
 -31014716.52748 -24151016.20746  20787909.9694                   20787905.3094
 11  8 12  1 55  0.0000000  0  7G12G10G05G25G29G04G02
 -23929620.52348 -18632330.77346  20629795.7344                   20629792.1174
 -22895686.16847 -17826150.66445  21574079.4224                   21574076.8404
 -23551249.33648 -18338006.19147  20353386.2194                   20353383.5514
 -11530625.63748  -8971082.28546  22043258.3284                   22043258.3244
   1745902.69946   1370897.71544  24058582.5084                   24058581.8444
 -25007997.53547 -19469580.32444  23426456.8364                   23426455.6254
 -31004625.89548 -24143153.37146  20789830.1094                   20789825.2154
 11  8 12  1 55 30.0000000  0  7G12G10G05G25G29G04G02
 -23938085.32448 -18638926.73846  20628184.9774                   20628181.6134
 -22842730.65247 -17784886.62545  21584156.3054                   21584153.5904
 -23603281.18448 -18378550.45347  20343484.8914                   20343482.3324
 -11604237.86348  -9028442.43046  22029250.8284                   22029249.9064
   1647700.68446   1294376.70744  24039895.1804                   24039894.4384
 -24942069.59447 -19418207.91844  23439002.7274                   23439000.7974
 -30994342.32448 -24135140.18446  20791786.8594                   20791782.0594
 11  8 12  1 56  0.0000000  0  7G12G10G05G25G29G04G02
 -23945930.59048 -18645039.93746  20626692.0944                   20626688.9734
 -22789270.47347 -17743229.33645  21594329.1094                   21594326.5984
 -23654718.07048 -18418631.10947  20333696.6174                   20333693.9144
 -11677325.73048  -9085393.98846  22015342.1334                   22015341.8524
   1549480.53146   1217841.54744  24021204.6414                   24021203.6804
 -24876133.12147 -19366828.86344  23451550.3364                   23451548.2974
 -30983866.14148 -24126976.90646  20793780.7504                   20793776.1804
 11  8 12  1 56 30.0000000  0  7G12G10G05G25G29G04G02
 -23953155.30548 -18650669.59446  20625317.0084                   20625314.3524
 -22735306.62947 -17701179.59845  21604598.4844                   21604596.0234
 -23705557.89548 -18458246.52747  20324022.1024                   20324019.7344
 -11749885.79348  -9141934.29746  22001534.7344                   22001534.2504
   1451244.03146   1141293.62944  24002511.0314                   24002510.7814
 -24810187.75847 -19315442.89544  23464099.2424                   23464097.7734
 -30973196.94948 -24118663.22746  20795810.9534                   20795805.9344
 11  8 12  1 57  0.0000000  0  7G12G10G05G25G29G04G02
 -23959759.57048 -18655815.78146  20624060.4224                   20624057.5824
 -22680841.26647 -17658739.05945  21614962.6414                   21614960.5124
 -23755799.51648 -18497395.80947  20314461.5864                   20314458.8524
 -11821916.08248  -9198061.77046  21987827.6254                   21987827.0864
   1352992.55946   1064734.06643  23983815.3914                   23983813.6094
 -24744234.04747 -19264050.40244  23476650.1724                   23476648.0864
 -30962335.56648 -24110199.78946  20797877.8054                   20797873.1844
 11  8 12  1 57 30.0000000  0  7G12G10G05G25G29G04G02
 -23965743.35948 -18660478.49246  20622921.7974                   20622918.5354
 -22625877.20747 -17615909.92645  21625421.8594                   21625419.4184
 -23805441.83248 -18536078.10247  20305014.7344                   20305012.0044
 -11893414.41848  -9253774.74246  21974222.0634                   21974221.3014
   1254727.13346    988163.58243  23965115.0784                   23965113.3094
 -24678272.62947 -19212651.88743  23489201.5234                   23489200.1294
 -30951282.79748 -24101587.21146  20799981.3674                   20799975.9734
 11  8 12  1 58  0.0000000  0  7G12G10G05G25G29G04G02
 -22395687.21948 -17437058.14146  20921693.4844                   20921690.1294
 -20994999.03947 -16345095.78145  21935767.6094                   21935765.2384
 -22279062.45348 -17346691.52747  20595474.8594                   20595472.3244
 -10388956.67648  -8081469.99646  22260510.4384                   22260510.4184
   2731871.67246   2139185.31343  24246206.7194                   24246204.9144
 -23036886.43447 -17933649.68743  23801546.7034                   23801545.2234
 -29364620.22348 -22865226.74246  21101912.6954                   21101907.6484
 11  8 12  1 58 30.0000000  0  7G12G10G05G25G29G04G02
 -22400433.14548 -17440756.27746  20920790.6954                   20920787.5864
 -20939046.75447 -16301496.60945  21946414.8594                   21946412.8984
 -22327504.93748 -17384438.87547  20586256.5474                   20586253.9804
 -10459386.96148  -8136350.71946  22247107.8054                   22247107.8524
   2633579.22746   2062593.76643  24227501.8524                   24227499.7464
 -22970913.01647 -17882241.85244  23814101.3204                   23814099.1414
 -29353189.35248 -22856319.53946  21104087.8364                   21104083.1994
 11  8 12  1 59  0.0000000  0  7G12G10G05G25G29G04G02
 -22404560.63748 -17443972.51246  20920005.2034                   20920002.1524
 -20882603.92247 -16257515.18445  21957155.8134                   21957153.8594
 -22375346.43748 -17421717.92647  20577152.7194                   20577149.9804
 -10529280.46948  -8190813.17646  22233807.7114                   22233807.3524
   2535274.46146   1985992.64544  24208795.4774                   24208794.0354
 -22904934.82847 -17830830.30143  23826656.6414                   23826654.8404
 -29341570.33648 -22847265.74246  21106299.0784                   21106294.1334
 11  8 12  1 59 30.0000000  0  7G12G10G05G25G29G04G02
 -22408070.04748 -17446707.13346  20919337.2274                   20919334.3404
 -20825672.79347 -16213153.27345  21967989.2814                   21967987.0164
 -22422585.88348 -17458527.84047  20568163.6094                   20568161.2344
 -10598634.91848  -8244855.59446  22220610.2274                   22220609.9774
   2436958.46946   1909382.79744  24190086.3134                   24190085.1804
 -22838952.30547 -17779415.35943  23839212.4144                   23839210.8054
 -29329763.97348 -22838065.96146  21108545.6024                   21108541.1454
 11  8 12  2  0  0.0000000  0  7G12G10G05G25G29G04G02
 -22410963.35548 -17448961.66046  20918786.9384                   20918783.3554
 -20768258.37948 -16168414.78545  21978915.0474                   21978912.9654
 -22469224.18748 -17494869.32847  20559288.4694                   20559285.9104
 -10667450.43448  -8298478.05946  22207514.8834                   22207514.1134
   2338630.52747   1832763.66444  24171374.8594                   24171374.2424
 -22772967.86347 -17727998.91043  23851768.6484                   23851767.3404
 -29317773.04748 -22828722.37146  21110827.6174                   21110822.5984
 11  8 12  2  0 30.0000000  0  7G12G10G05G25G29G04G02
 -22413240.51648 -17450736.07447  20918353.3754                   20918350.5664
 -20710362.70347 -16123301.27745  21989932.7194                   21989930.0904
 -22515260.22748 -17530741.51647  20550527.9844                   20550525.1884
 -10735724.66048  -8351678.74646  22194522.2584                   22194522.3444
   2240291.67247   1756136.02744  24152662.2894                   24152661.0004
 -22706981.90247 -17676581.27343  23864325.6414                   23864324.0434
 -29305597.94548 -22819235.26646  21113144.4304                   21113139.5784
 11  8 12  2  1  0.0000000  0  7G12G10G05G25G29G04G02
 -22414903.07848 -17452031.58646  20918036.8674                   20918033.7544
 -20651989.17247 -16077815.41045  22001040.1484                   22001037.8284
 -22560694.48848 -17566144.79747  20541881.9224                   20541879.4774
 -10803456.73048  -8404456.96546  22181633.3754                   22181633.1564
   2141942.03547   1679500.01644  24133946.4844                   24133944.9654
 -22640995.93747 -17625163.63744  23876882.4144                   23876880.6524
 -29293240.62948 -22809606.18046  21115495.8754                   21115491.1414
 11  8 12  2  1 30.0000000  0  7G12G10G05G25G29G04G02
 -22415951.17648 -17452848.29346  20917837.4224                   20917834.5514
 -20593140.16048 -16031959.04745  22012239.6414                   22012236.7544
 -22605525.57448 -17601078.05947  20533350.6414                   20533348.5514
 -10870644.37948  -8456810.95746  22168847.8444                   22168847.9104
   2043582.98446   1602856.68044  24115229.5084                   24115228.2734
 -22575010.18747 -17573746.16844  23889438.6094                   23889437.7894
 -29280701.36748 -22799835.32046  21117882.2344                   21117877.5044
 11  8 12  2  2  0.0000000  0  7G12G10G05G25G29G04G02
 -22416386.89848 -17453187.82846  20917754.7114                   20917751.7194
 -20533820.01247 -15985735.56245  22023527.6804                   22023524.5634
 -22649754.14148 -17635541.83647  20524934.4454                   20524932.1334
 -10937287.24648  -8508740.44546  22156166.5234                   22156165.8134
   1945213.87146   1526205.52044  24096511.0784                   24096508.8594
 -22509026.68447 -17522330.46544  23901995.3754                   23901994.1524
 -29267982.67648 -22789924.64146  21120302.2664                   21120297.4384
 11  8 12  2  2 30.0000000  0  7G12G10G05G25G29G04G02
 -22416211.09448 -17453050.85546  20917788.1094                   20917785.2774
 -20474031.47347 -15939147.08245  22034904.7504                   22034902.0164
 -22693380.48048 -17669536.34447  20516632.6954                   20516630.6414
 -11003384.08248  -8560244.46546  22143588.5234                   22143587.9884
   1846835.29746   1449546.99244  24077789.0004                   24077788.2854
 -22443046.86347 -17470917.58243  23914551.1804                   23914549.5314
 -29255085.75448 -22779875.09846  21122756.1174                   21122751.6214
 11  8 12  2  3  0.0000000  0  7G12G10G05G25G29G04G02
 -22415425.26248 -17452438.53546  20917937.7974                   20917934.7584
 -20413778.02347 -15892196.33645  22046370.7274                   22046368.3444
 -22736404.27748 -17703061.34847  20508445.3674                   20508442.8714
 -11068933.97748  -8611322.29346  22131115.0234                   22131114.5124
   1748447.15646   1372881.03144  24059066.4064                   24059065.5234
 -22377071.85547 -17419508.49244  23927105.4304                   23927104.1564
 -29242012.30548 -22769688.00046  21125244.1024                   21125239.4104
 11  8 12  2  3 30.0000000  0  7G12G10G05G25G29G04G02
 -22414029.52048 -17451350.94946  20918202.9534                   20918199.8284
 -20353062.92647 -15844885.88345  22057924.4774                   22057921.6884
 -22778824.87148 -17736116.30947  20500373.0704                   20500370.4264
 -11133935.30948  -8661972.66046  22118745.9844                   22118745.2074
   1650050.26647   1296208.26644  24040342.1094                   24040341.5084
 -22311102.66047 -17368103.91043  23939659.8364                   23939657.2384
 -29228763.30548 -22759364.10946  21127765.4924                   21127760.7274
 11  8 12  2  4  0.0000000  0  7G12G10G05G25G29G04G02
 -22412025.64848 -17449789.51246  20918584.1564                   20918581.2814
 -20291888.82047 -15797217.74645  22069565.7584                   22069562.9224
 -22820642.22748 -17768701.23447  20492415.3594                   20492413.0204
 -11198386.46548  -8712194.32846  22106481.3134                   22106480.3324
   1551645.86346   1219529.63344  24021616.2584                   24021614.6804
 -22245139.81247 -17316704.27343  23952211.5004                   23952209.7234
 -29215339.51248 -22748904.01246  21130319.9534                   21130315.3794
 11  8 12  2  4 30.0000000  0  7G12G10G05G25G29G04G02
 -22409413.06648 -17447753.74246  20919081.4384                   20919078.8954
 -20230257.85547 -15749193.60945  22081293.0314                   22081290.7344
 -22861855.01248 -17800815.05147  20484572.9304                   20484570.2734
 -11262285.05148  -8761985.40646  22094321.4454                   22094321.1334
   1453235.68046   1142846.44944  24002889.4224                   24002887.6214
 -22179183.20347 -17265309.49643  23964762.5394                   23964760.5164
 -29201741.18748 -22738307.92646  21132907.3204                   21132902.7734
 11  8 12  2  5  0.0000000  0  7G12G10G05G25G29G04G02
 -22406191.98448 -17445243.82046  20919694.6804                   20919691.7464
 -20168172.28147 -15700815.25045  22093107.8284                   22093105.6994
 -22902462.42248 -17832457.15647  20476845.7504                   20476843.2034
 -11325628.92648  -8811344.25046  22082267.5004                   22082267.2934
   1354820.53946   1066159.43444  23984162.1724                   23984159.9884
 -22113233.16447 -17213919.84844  23977312.3524                   23977310.7384
 -29187968.88748 -22727576.27046  21135528.3444                   21135523.3404
 11  8 12  2  5 30.0000000  0  7G12G10G05G25G29G04G02
 -22402364.31648 -17442261.23046  20920423.0314                   20920419.9304
 -20105635.57047 -15652085.34045  22105008.3674                   22105005.9024
 -22942464.65248 -17863627.68447  20469233.3204                   20469230.4454
 -11388417.43748  -8860270.33246  22070319.1024                   22070319.2034
   1256400.74646    989468.78944  23965432.9384                   23965431.7774
 -22047291.20346 -17162536.48443  23989860.6094                   23989859.2504
 -29174024.13748 -22716710.23846  21138182.0004                   21138177.1134
 11  8 12  2  6  0.0000000  0  7G12G10G05G25G29G04G02
 -22397930.35248 -17438806.20746  20921266.8134                   20921263.7854
 -20042650.30947 -15603005.90645  22116993.5554                   22116991.3834
 -22981861.08248 -17894326.16847  20461736.5314                   20461733.6914
 -11450648.88748  -8908762.34846  22058477.0004                   22058476.7034
   1157977.59046    912775.48444  23946703.9064                   23946701.5084
 -21981357.88746 -17111159.88743  24002408.2734                   24002406.2814
 -29159907.81648 -22705710.52046  21140868.1414                   21140863.5664
 11  8 12  2  6 30.0000000  0  7G12G10G05G25G29G04G02
 -22392892.33248 -17434880.49246  20922225.3444                   20922222.8244
 -19979220.82047 -15553580.32845  22129063.9454                   22129061.7234
 -23020652.83648 -17924553.47347  20454354.2344                   20454352.1024
 -11512322.92648  -8956820.02346  22046740.8914                   22046740.6724
   1059550.82446    836079.33644  23927973.2974                   23927971.0514
 -21915434.92246 -17059791.36344  24014952.0314                   24014950.8134
 -29145621.96548 -22694578.69146  21143586.8054                   21143581.7194
 11  8 12  2  7  0.0000000  0  7G12G10G05G25G29G04G02
 -22387250.69548 -17430484.41846  20923299.0394                   20923295.8634
 -19915349.44947 -15503810.43045  22141218.2344                   22141216.0944
 -23058838.87948 -17954308.79347  20447087.9924                   20447085.6454
 -11573437.57848  -9004441.81646  22035110.9694                   22035111.0004
    961121.59447    759381.26244  23909243.1644                   23909241.6294
 -21849522.66846 -17008431.18444  24027494.6174                   24027493.4414
 -29131166.85548 -22683314.98446  21146337.7894                   21146332.6804
 11  8 12  2  7 30.0000000  0  7G12G10G05G25G29G04G02
 -22381006.04748 -17425618.46146  20924487.2584                   20924484.0744
 -19851038.80947 -15453698.23845  22153456.4224                   22153453.8324
 -23096418.60248 -17983591.66447  20439937.0164                   20439934.3554
 -11633990.99648  -9051626.28946  22023588.1414                   22023587.8444
    862691.07447    682682.16844  23890512.2274                   23890511.4774
 -21783621.20346 -16957079.41444  24040035.5634                   24040034.8284
 -29116543.05548 -22671919.82046  21149120.3594                   21149115.6994
 11  8 12  2  8  0.0000000  0  7G12G10G05G25G29G04G02
 -22374159.18048 -17420283.25046  20925790.3284                   20925787.5164
 -19786291.62147 -15403245.88745  22165777.0394                   22165774.7934
 -23133392.05548 -18012402.11347  20432901.4454                   20432898.4964
 -11693981.91448  -9098372.45346  22012172.6644                   22012171.9924
    764260.08647    605982.72344  23871781.7424                   23871779.8284
 -21717731.62146 -16905736.87944  24052573.4774                   24052572.6524
 -29101751.87148 -22660394.23846  21151935.0164                   21151930.0474
 11  8 12  2  8 30.0000000  0  7G12G10G05G25G29G04G02
 -22366713.37948 -17414481.33646  20927207.2894                   20927204.4694
 -19721112.50447 -15352456.95745  22178180.3524                   22178178.4304
 -23169760.61748 -18040741.21947  20425980.0554                   20425977.5704
 -11753410.69948  -9144680.60246  22000863.5314                   22000862.9184
    665827.85247    529282.30944  23853050.8524                   23853049.7344
 -21651856.09846 -16854405.32443  24065109.3754                   24065108.0234
 -29086795.84048 -22648740.19546  21154781.0234                   21154775.9924
 11  8 12  2  9  0.0000000  0  7G12G10G05G25G29G04G02
 -22358668.25848 -17408212.43046  20928738.3284                   20928735.5044
 -19655503.36747 -15301332.95745  22190665.4384                   22190662.9654
 -23205522.76248 -18068607.78947  20419175.1334                   20419172.0864
 -11812274.69548  -9190548.65246  21989661.8284                   21989661.5594
    567396.68447    452582.71144  23834319.4924                   23834317.4844
 -21585994.08646 -16803084.29743  24077642.6484                   24077640.5044
 -29071674.51248 -22636957.34846  21157658.4224                   21157654.0664
 11  8 12  2  9 30.0000000  0  7G12G10G05G25G29G04G02
 -22350024.71148 -17401477.19946  20930383.0394                   20930380.3324
 -19589466.79747 -15249875.89145  22203231.4844                   22203229.3134
 -23240678.54348 -18096001.87147  20412484.9384                   20412482.2704
 -11870572.35948  -9235975.39146  21978568.0554                   21978568.0274
    468967.77347    375884.85944  23815589.0234                   23815588.1524
 -21520146.10547 -16751774.18743  24090173.4694                   24090171.6134
 -29056388.59448 -22625046.25446  21160567.2584                   21160562.6374
 11  8 12  2 10  0.0000000  0  7G12G10G05G25G29G04G02
 -22340784.39148 -17394276.95746  20932141.3524                   20932138.1804
 -19523006.39847 -15198088.55945  22215878.7734                   22215876.2074
 -23275228.23848 -18122923.68047  20405910.3054                   20405907.8954
 -11928303.05948  -9280960.35246  21967582.1724                   21967582.1724
    370541.21547    299188.89144  23796859.0944                   23796857.5164
 -21454313.57846 -16700476.09443  24102701.2504                   24102698.6564
 -29040939.83648 -22613008.26246  21163507.1334                   21163502.1254
 11  8 12  2 10 30.0000000  0  7G12G10G05G25G29G04G02
 -22330949.49248 -17386613.40646  20934013.0394                   20934009.8284
 -19456126.25447 -15145974.15645  22228605.6254                   22228603.3714
 -23309172.78148 -18149373.94947  20399450.8364                   20399448.1374
 -11985466.50848  -9325503.29746  21956704.8754                   21956704.6564
    272116.78147    222494.57444  23778129.7974                   23778128.5634
 -21388498.07847 -16649191.30543  24115225.2894                   24115222.4384
 -29025330.18048 -22600844.89146  21166477.6174                   21166472.6484
 11  8 12  2 11  0.0000000  0  7G12G10G05G25G29G04G02
 -22320519.53148 -17378486.17246  20935997.8834                   20935994.5164
 -19388827.94947 -15093533.91045  22241412.2894                   22241409.5634
 -23342510.60248 -18175351.44947  20393106.8984                   20393103.9734
 -12042060.01248  -9369602.12946  21945935.1884                   21945934.7234
    173697.28147    145804.12144  23759400.6724                   23759399.2934
 -21322698.92646 -16597919.23843  24127746.1804                   24127744.6294
 -29009559.03548 -22588555.69146  21169478.9304                   21169473.7464
 11  8 12  2 11 30.0000000  0  7G12G10G05G25G29G04G02
 -22309495.20348 -17369895.78946  20938095.5944                   20938092.6644
 -19321113.53947 -15040769.44145  22254297.6024                   22254295.0594
 -23375240.89548 -18200855.54347  20386878.2034                   20386875.9924
 -12098081.46147  -9413255.19946  21935274.4844                   21935274.4414
     75284.21947     69118.67244  23740673.8984                   23740672.9264
 -21256915.92246 -16546659.75043  24140264.3054                   24140262.2854
 -28993626.32448 -22576140.58246  21172510.6334                   21172505.9494
 11  8 12  2 12  0.0000000  0  7G12G10G05G25G29G04G02
 -22297878.64148 -17360843.93046  20940306.0314                   20940303.2854
 -19252987.27747 -14987684.03545  22267261.5944                   22267258.9384
 -23407364.74248 -18225887.09047  20380765.4614                   20380762.9614
 -12153530.91448  -9456462.56646  21924722.7424                   21924722.9144
    -23122.72747     -7562.02044  23721947.2194                   23721945.1024
 -21191150.78946 -16495414.20343  24152778.8054                   24152777.0634
 -28977534.44148 -22563601.44546  21175572.7974                   21175568.0864
 11  8 12  2 12 30.0000000  0  7G12G10G05G25G29G04G02
 -22285669.21548 -17351330.08646  20942629.6094                   20942626.3834
 -19184450.30547 -14934278.61345  22280303.9844                   22280301.3324
 -23438880.72348 -18250444.97747  20374768.3674                   20374765.6294
 -12208405.39148  -9499221.91046  21914280.4144                   21914280.1724
   -121520.62147    -84235.65245  23703223.2114                   23703221.2154
 -21125402.61346 -16444181.85543  24165290.4454                   24165288.8014
 -28961282.36748 -22550937.47746  21178665.4844                   21178660.8244
 11  8 12  2 13  0.0000000  0  7G12G10G05G25G29G04G02
 -22272869.54348 -17341356.31246  20945065.3594                   20945062.0944
 -19115506.69547 -14880556.31645  22293423.0394                   22293420.7154
 -23469789.77748 -18274529.93747  20368886.6254                   20368883.9884
 -12262704.70748  -9541533.06246  21903948.1254                   21903947.6564
   -219909.61747   -160902.37144  23684499.8524                   23684498.3204
 -21059672.88746 -16392963.89843  24177798.2114                   24177796.9734
 -28944871.96948 -22538150.14846  21181788.3984                   21181783.6254
 11  8 12  2 13 30.0000000  0  7G12G10G05G25G29G04G02
 -22259479.69148 -17330922.65246  20947613.1174                   20947609.9064
 -19046158.47347 -14826518.74245  22306619.9694                   22306617.2194
 -23500090.66848 -18298140.99647  20363120.2274                   20363117.7584
 -12316426.67648  -9583394.33646  21893724.8834                   21893724.3444
   -318287.93047   -237560.76244  23665779.7814                   23665777.9264
 -20993961.19946 -16341759.97343  24190303.2274                   24190301.6644
 -28928303.11748 -22525239.34446  21184940.8364                   21184936.4414
 11  8 12  2 14  0.0000000  0  7G12G10G05G25G29G04G02
 -22245502.11748 -17320031.03546  20950272.9304                   20950269.5434
 -18976409.66047 -14772169.02045  22319892.5634                   22319890.0004
 -23529784.89148 -18321279.32447  20357469.5944                   20357467.1524
 -12369571.21148  -9624805.64146  21883611.8054                   21883611.4884
   -416655.28947   -314210.59844  23647060.4304                   23647058.7154
 -20928269.10946 -16290571.37143  24202803.3444                   24202801.9804
 -28911577.83248 -22512206.65246  21188123.8364                   21188119.2114
 11  8 12  2 14 30.0000000  0  7G12G10G05G25G29G04G02
 -22230937.42648 -17308681.93746  20953044.6564                   20953041.4384
 -18906262.43747 -14717508.84845  22333241.0164                   22333239.0784
 -23558871.57048 -18343944.23847  20351934.6954                   20351931.8914
 -12422136.37148  -9665765.50046  21873609.0944                   21873608.7584
   -515009.82047   -390850.43744  23628344.3914                   23628342.3014
 -20862596.66046 -16239398.03543  24215300.7734                   24215299.3054
 -28894695.87148 -22499051.86346  21191336.4774                   21191331.6844
 11  8 12  2 15  0.0000000  0  7G12G10G05G25G29G04G02
 -22215786.74248 -17296876.21546  20955927.9694                   20955924.1414
 -18835719.64847 -14662540.45345  22346665.0314                   22346662.2854
 -23587350.71548 -18366135.76247  20346515.1564                   20346512.4574
 -12474121.10248  -9706273.06246  21863716.4774                   21863716.4734
   -613350.75447   -467479.67244  23609630.0554                   23609628.0044
 -20796944.35246 -16188240.40243  24227794.3674                   24227792.7814
 -28877658.35547 -22485775.87546  21194578.5784                   21194573.8094
 11  8 12  2 15 30.0000000  0  7G12G10G05G25G29G04G02
 -22200052.01648 -17284615.39846  20958921.7114                   20958918.2624
 -18764785.04347 -14607266.73045  22360162.9694                   22360160.8914
 -23615223.43048 -18387854.73847  20341211.3284                   20341208.4064
 -12525524.86748  -9746327.92646  21853934.8754                   21853934.5664
   -711677.46947   -544097.83244  23590919.2974                   23590917.7074
 -20731313.34446 -16137099.35543  24240283.6484                   24240281.5394
 -28860466.46948 -22472379.58646  21197850.0634                   21197845.0274
 11  8 12  2 16  0.0000000  0  7G12G10G05G25G29G04G02
 -22183735.35248 -17271901.12946  20962026.8984                   20962023.6024
 -18693462.19947 -14551690.51245  22373735.7664                   22373733.4774
 -23642490.46148 -18409101.75847  20336022.2274                   20336019.7034
 -12576347.14148  -9785929.68746  21844263.7114                   21844263.7234
   -809989.58647   -620704.61344  23572211.1094                   23572209.5474
 -20665704.72746 -16085975.76243  24252767.8914                   24252766.8014
 -28843122.01248 -22458864.40646  21201150.6174                   21201145.4924
 11  8 12  2 16 30.0000000  0  7G12G10G05G25G29G04G02
 -22166838.40248 -17258734.68046  20965241.8984                   20965239.0864
 -18621754.57847 -14495814.44945  22387381.2504                   22387378.8874
 -23669151.96148 -18429876.92247  20330948.8754                   20330946.2624
 -12626587.20348  -9825077.77346  21834703.5314                   21834702.9574
   -908286.20347   -697299.30144  23553505.8284                   23553503.7974
 -20600119.26646 -16034870.20743  24265248.7114                   24265247.1334
 -28825625.99648 -22445231.13746  21204479.9774                   21204475.2504
 11  8 12  2 17  0.0000000  0  7G12G10G05G25G29G04G02
 -22149361.33248 -17245116.18746  20968567.5944                   20968564.6644
 -18549663.89547 -14439639.90245  22401100.0634                   22401097.7274
 -23695207.43748 -18450179.86747  20325990.9064                   20325988.0594
 -12676243.24648  -9863770.78946  21825253.8914                   21825254.3444
  -1006565.43747   -773880.44944  23534804.1724                   23534802.5634
 -20534556.63746 -15983782.43443  24277725.0394                   24277722.8444
 -28807978.21148 -22431479.60946  21207838.6334                   21207833.0314
 11  8 12  2 17 30.0000000  0  7G12G10G05G25G29G04G02
 -22131306.30148 -17231047.34446  20972003.9924                   20972000.9064
 -18477193.51647 -14383169.48845  22414890.2894                   22414887.9694
 -23720657.19148 -18470010.82047  20321147.7344                   20321144.9804
 -12725314.15648  -9902007.85246  21815916.3204                   21815916.0434
  -1104826.31647   -850447.32445  23516105.5084                   23516104.4024
 -20469017.71946 -15932713.17243  24290196.0634                   24290194.4964
 -28790179.32048 -22417610.32846  21211225.0634                   21211220.0354
 11  8 12  2 18  0.0000000  0  7G12G10G05G25G29G04G02
 -22112674.19948 -17216528.82046  20975549.1334                   20975546.0084
 -18404345.81647 -14326405.05145  22428752.8594                   22428750.6174
 -23745501.07048 -18489369.66047  20316420.2274                   20316417.0164
 -12773798.73448  -9939788.03546  21806690.1564                   21806690.0904
  -1203067.18747   -926998.59045  23497410.8284                   23497409.1174
 -20403502.22746 -15881662.13743  24302663.6094                   24302661.5164
 -28772230.06248 -22403623.88346  21214640.7814                   21214636.0434
 11  8 12  2 18 30.0000000  0  7G12G10G05G25G29G04G02
 -22093467.07048 -17201562.23446  20979204.3754                   20979201.1414
 -18331124.57847 -14269349.55545  22442686.0314                   22442684.1214
 -23769739.87148 -18508257.01247  20311807.9614                   20311804.9534
 -12821696.48848  -9977110.93746  21797575.1954                   21797575.1374
  -1301287.51647  -1003533.85945  23478720.6484                   23478718.5474
 -20338011.42246 -15830630.36343  24315126.3524                   24315124.1724
 -28754131.70348 -22389521.25846  21218084.9064                   21218079.7504
 11  8 12  2 19  0.0000000  0  7G12G10G05G25G29G04G02
 -22073685.54747 -17186148.05946  20982968.6484                   20982965.5004
 -18257531.81247 -14212004.55945  22456690.7734                   22456688.0864
 -23793373.37948 -18526672.71147  20307310.6094                   20307307.6334
 -12869005.68448 -10013975.22346  21788572.5554                   21788572.1844
  -1399485.38747  -1080051.60945  23460033.2194                   23460032.4884
 -20272545.07846 -15779617.60943  24327583.3754                   24327582.6724
 -28735884.07047 -22375302.31646  21221556.9534                   21221552.5314
 11  8 12  2 19 30.0000000  0  8G12G10G05G25G29G26G04G02
 -22053332.16848 -17170288.27346  20986841.9534                   20986838.7194
 -18183571.52747 -14154373.16845  22470764.9144                   22470762.4574
 -23816402.80948 -18544617.69147  20302927.7114                   20302925.3444
 -12915726.38748 -10050380.95346  21779682.0864                   21779681.6214
  -1497660.70747  -1156551.77345  23441351.7504                   23441349.8594
   6147043.97756   4796927.12553  24834196.9304                   24834198.4184
 -20207104.59846 -15728625.05143  24340036.7274                   24340035.2304
 -28717489.14848 -22360968.59446  21225057.5314                   21225052.8794
 11  8 12  2 20  0.0000000  0  8G12G10G05G25G29G26G04G02
 -22032410.11348 -17153985.37546  20990823.1094                   20990820.2194
 -18109248.73447 -14096459.32045  22484907.8134                   22484905.6524
 -23838830.05148 -18562093.44147  20298659.9534                   20298657.5004
 -12961859.57848 -10086328.89146  21770903.2734                   21770902.2934
  -1595814.37547  -1233035.08644  23422673.2814                   23422671.0004
   6038521.78546   4712364.59043  24813547.1564                   24813547.0864
 -20141692.28946 -15677654.44143  24352484.0164                   24352482.5704
 -28698949.31648 -22346521.96146  21228585.4614                   21228581.0394
 11  8 12  2 20 30.0000000  0  8G12G10G05G25G29G26G04G02
 -22010923.30948 -17137242.41046  20994911.8524                   20994908.6294
 -18034568.45747 -14038266.90245  22499118.9534                   22499117.0634
 -23860657.94948 -18579102.16447  20294506.2894                   20294503.7774
 -13007406.32048 -10121819.84446  21762236.1254                   21762235.8014
  -1693946.91847  -1309501.94944  23403999.7114                   23403997.7464
   5929898.02046   4627722.86343  24792876.2734                   24792876.3444
 -20076310.44546 -15626707.55543  24364926.2664                   24364924.3164
 -28680267.28548 -22331964.52346  21232140.8674                   21232136.0204
 11  8 12  2 21  0.0000000  0  8G12G10G05G25G29G26G04G02
 -21988874.84448 -17120061.78146  20999107.6334                   20999104.5784
 -17959535.37547 -13979799.57844  22513397.6644                   22513394.9494
 -23881888.34848 -18595645.30147  20290466.3284                   20290463.8204
 -13052367.55948 -10156854.57046  21753680.0784                   21753680.0234
  -1792058.70347  -1385952.62944  23385328.6724                   23385327.3634
   5821173.40646   4543002.56643  24772185.9064                   24772186.7814
 -20010961.55146 -15575786.34043  24377361.3754                   24377360.8484
 -28661445.71148 -22317298.35246  21235722.3054                   21235717.6094
 11  8 12  2 21 30.0000000  0  8G12G10G05G25G29G26G04G02
 -21966265.31648 -17102443.96546  21003409.9384                   21003406.8914
 -17884151.35547 -13921058.79744  22527742.8054                   22527739.7384
 -23902520.70748 -18611722.44147  20286540.0474                   20286537.0984
 -13096741.34848 -10191431.52746  21745236.0864                   21745235.5904
  -1890147.86746  -1462385.67244  23366663.1954                   23366661.4414
   5712352.07446   4458206.87143  24751478.7814                   24751478.1294
 -19945645.02346 -15524890.36743  24389790.6484                   24389789.5044
 -28642484.12148 -22302523.07446  21239330.5634                   21239325.4454
 11  8 12  2 22  0.0000000  0  8G12G10G05G25G29G26G04G02
 -21943095.70348 -17084389.71546  21007818.9774                   21007815.7464
 -17808418.46947 -13862046.16444  22542153.9304                   22542151.2854
 -23922554.48048 -18627333.14547  20282727.9304                   20282724.6884
 -13140526.01248 -10225549.43446  21736903.9774                   21736903.1294
  -1988212.23847  -1538799.41844  23348002.1174                   23348000.4264
   5603437.38346   4373338.45343  24730752.3284                   24730752.1914
 -19880360.13346 -15474019.03143  24402214.3204                   24402213.4654
 -28623382.43048 -22287638.62546  21242965.6024                   21242960.5634
 11  8 12  2 22 30.0000000  0  8G12G10G05G25G29G26G04G02
 -21919366.89148 -17065899.72746  21012334.3834                   21012331.3754
 -17732339.29747 -13802763.71144  22556631.4304                   22556628.8054
 -23941989.69148 -18642477.43447  20279029.1954                   20279026.4964
 -13183720.14548 -10259207.19546  21728684.1094                   21728683.8364
  -2086249.92247  -1615192.36344  23329346.0164                   23329344.5864
   5494432.85546   4288400.01643  24710009.0474                   24710009.4144
 -19815106.80146 -15423172.29343  24414631.2584                   24414630.4614
 -28604140.73448 -22272645.08646  21246627.1094                   21246622.2814
 11  8 12  2 23  0.0000000  0  8G12G10G05G25G29G26G04G02
 -21895080.60548 -17046975.35246  21016955.9384                   21016953.2704
 -17655917.03547 -13743213.90644  22571174.2584                   22571171.8524
 -23960827.02748 -18657155.85547  20275444.8754                   20275441.5704
 -13226323.04348 -10292404.25046  21720577.1414                   21720577.0084
  -2184259.73847  -1691563.57444  23310695.8834                   23310693.4454
   5385341.17646   4203393.70743  24689248.9924                   24689248.8954
 -19749885.48447 -15372350.48043  24427042.8134                   24427041.2274
 -28584759.85547 -22257543.08246  21250314.9534                   21250310.4104
 11  8 12  2 23 30.0000000  0  8G12G10G05G25G29G26G04G02
 -21870238.05948 -17027617.52746  21021683.7424                   21021680.7854
 -17579153.80147 -13683398.42244  22585781.6094                   22585779.5044
 -23979066.33648 -18671368.27047  20271973.7664                   20271970.7854
 -13268333.49648 -10325139.65246  21712582.8594                   21712582.4884
  -2282239.93747  -1767911.72345  23292050.5084                   23292048.7384
   5276165.80546   4118322.13343  24668473.6094                   24668473.6294
 -19684696.14546 -15321553.63743  24439447.3754                   24439446.1054
 -28565239.94147 -22242332.74646  21254029.6414                   21254024.9184
 11  8 12  2 24  0.0000000  0  8G12G10G05G25G29G26G04G02
 -21844840.56248 -17007827.27346  21026516.1414                   21026513.6994
 -17502052.07047 -13623319.16444  22600453.8834                   22600451.6334
 -23996707.37148 -18685114.51247  20268616.8284                   20268614.1214
 -13309750.06248 -10357412.27346  21704701.4454                   21704701.0554
  -2380188.91847  -1844235.54745  23273411.5314                   23273409.1644
   5166910.19146   4033188.06643  24647683.3984                   24647683.4104
 -19619538.37146 -15270781.34843  24451847.0004                   24451845.0864
 -28545581.18448 -22227014.23046  21257770.6804                   21257765.2194
 11  8 12  2 24 30.0000000  0  8G12G10G05G25G29G26G04G02
 -21818889.61348 -16987605.77046  21031454.6334                   21031451.7074
 -17424614.98447 -13562978.59444  22615189.7584                   22615186.8554
 -24013751.09048 -18698395.30547  20265373.7114                   20265370.6174
 -13350572.17648 -10389221.69946  21696933.4844                   21696932.2034
  -2478105.12547  -1920533.84045  23254778.8834                   23254777.5594
   5057577.02046   3947993.53543  24626877.5004                   24626878.0984
 -19554412.87146 -15220034.21543  24464240.3284                   24464238.9884
 -28525784.07048 -22211587.91046  21261537.8834                   21261532.9534
 11  8 12  2 25  0.0000000  0  8G12G10G05G25G29G26G04G02
 -21792386.89148 -16966954.31646  21036497.9304                   21036495.3594
 -17346845.25447 -13502378.84044  22629988.4064                   22629986.0124
 -24030197.42248 -18711210.60247  20262243.8054                   20262241.3834
 -13390798.84448 -10420567.14146  21689278.8594                   21689278.0354
  -2575986.91447  -1996805.32845  23236152.1174                   23236150.0204
   4948169.47346   3862741.06343  24606057.2504                   24606057.5824
 -19489319.50046 -15169312.10243  24476627.1094                   24476625.6884
 -28505848.98047 -22196054.07446  21265331.1884                   21265326.4534
 11  8 12  2 25 30.0000000  0  8G12G10G05G25G29G26G04G02
 -21765333.83248 -16945874.02746  21041646.2274                   21041643.1334
 -17268745.72747 -13441522.07044  22644850.6094                   22644848.1254
 -24046047.04748 -18723560.93047  20259227.9144                   20259224.5984
 -13430429.32448 -10451448.02346  21681736.9774                   21681736.4774
  -2673833.08247  -2073049.04745  23217533.4844                   23217530.6054
   4838690.53946   3777433.01243  24585224.3524                   24585224.7274
 -19424258.59046 -15118615.33243  24489007.1024                   24489006.7974
 -28485776.35247 -22180413.06246  21269150.8914                   21269146.0594
 11  8 12  2 26  0.0000000  0  8G12G10G05G25G29G26G04G02
 -21737730.81248 -16924365.18446  21046898.6564                   21046896.1254
 -17190318.11747 -13380409.66844  22659774.9694                   22659772.0704
 -24061299.38748 -18735445.84447  20256325.2034                   20256322.9494
 -13469461.75448 -10481862.89546  21674309.4064                   21674308.7424
  -2771641.04347  -2149263.00445  23198920.6644                   23198918.3634
   4729144.55546   3692072.69543  24564378.5234                   24564378.6254
 -19359229.44546 -15067943.27743  24501381.8054                   24501380.8594
 -28465565.68447 -22164664.50046  21272996.9694                   21272992.2704
 11  8 12  2 26 30.0000000  0  8G12G10G05G25G29G26G04G02
 -21709581.52048 -16902430.68746  21052255.7974                   21052252.3284
 -17111566.71947 -13319044.96544  22674760.8204                   22674757.9694
 -24075956.32848 -18746866.80147  20253536.3444                   20253533.5864
 -13507896.77348 -10511812.26246  21666995.4144                   21666994.6334
  -2869410.85547  -2225447.24245  23180315.3284                   23180313.6844
   4619532.88746   3606661.21143  24543520.4774                   24543520.7154
 -19294233.51246 -15017297.11343  24513750.0474                   24513749.5084
 -28445218.97747 -22148809.92646  21276869.0084                   21276864.0514
 11  8 12  2 27  0.0000000  0  8G12G10G05G25G29G26G04G02
 -21680888.21148 -16880072.27046  21057715.7424                   21057712.6214
 -17032495.57847 -13257431.10944  22689807.4844                   22689804.9304
 -24090019.61348 -18757825.18447  20250860.2114                   20250857.1914
 -13545734.84848 -10541296.46546  21659795.0704                   21659794.5434
  -2967142.02347  -2301601.33244  23161717.4844                   23161715.6524
   4509857.26646   3521199.84443  24522649.0704                   24522648.7234
 -19229272.09046 -14966677.80543  24526112.4454                   24526111.0824
 -28424737.97748 -22132850.71546  21280766.4304                   21280761.1414
 11  8 12  2 27 30.0000000  0  8G12G10G05G25G29G26G04G02
 -21651652.30148 -16857291.05946  21063279.1334                   21063276.0274
 -16953106.71547 -13195569.68444  22704915.0944                   22704912.3834
 -24103489.09048 -18768320.84847  20248296.9454                   20248294.6024
 -13582974.40248 -10570314.31246  21652708.8444                   21652708.2304
  -3064832.32046  -2377723.62544  23143127.8204                   23143126.1604
   4400121.83246   3435691.88343  24501767.1954                   24501767.3714
 -19164344.53546 -14916084.94143  24538467.2664                   24538465.7194
 -28404122.16448 -22116786.44946  21284689.6334                   21284684.6254
 11  8 12  2 28  0.0000000  0  8G12G10G05G25G29G26G04G02
 -21621875.83248 -16834088.64146  21068945.2034                   21068942.1294
 -16873403.29347 -13133463.14844  22720081.5704                   22720079.0084
 -24116365.49248 -18778354.37947  20245846.3754                   20245843.5554
 -13619615.02348 -10598865.45346  21645736.3204                   21645736.0554
  -3162480.57046  -2453813.14544  23124546.1724                   23124544.1334
   4290329.54346   3350139.61343  24480873.9924                   24480874.3094
 -19099451.45746 -14865518.89843  24550816.6724                   24550814.8444
 -28383372.35248 -22100617.78146  21288638.0394                   21288633.3634
 11  8 12  2 28 30.0000000  0  8G12G10G05G25G29G26G04G02
 -21591560.55548 -16810466.36346  21074714.2584                   21074710.9614
 -16793388.18047 -13071113.73444  22735308.1334                   22735305.5984
 -24128649.66848 -18787926.43747  20243508.8444                   20243506.1644
 -13655656.45348 -10626949.68046  21638877.7664                   21638877.2504
  -3260085.77747  -2529869.11744  23105972.9064                   23105970.4844
   4180483.15246   3264545.19543  24459970.9614                   24459970.8554
 -19034593.23046 -14814980.03143  24563158.1174                   24563156.8054
 -28362489.22748 -22084345.21946  21292612.0314                   21292606.7894
 11  8 12  2 29  0.0000000  0  8G12G10G05G25G29G26G04G02
 -21560708.91048 -16786426.13746  21080584.9064                   21080582.1604
 -16713065.40647 -13008524.58244  22750593.1334                   22750590.7664
 -24140342.73048 -18797037.89547  20241283.7034                   20241280.8404
 -13691098.51248 -10654566.87546  21632133.5784                   21632132.8204
  -3357646.72747  -2605890.59845  23087407.1024                   23087404.7074
   4070585.02346   3178910.47743  24439057.7974                   24439058.0554
 -18969770.68046 -14764468.94143  24575492.8984                   24575492.5124
 -28341473.39148 -22067969.25446  21296610.7034                   21296605.9844
 11  8 12  2 29 30.0000000  0  8G12G10G05G25G29G26G04G02
 -21529321.93448 -16761968.76246  21086557.9144                   21086554.7034
 -16632436.74647 -12945697.07444  22765936.2734                   22765933.9024
 -24151444.80548 -18805688.83647  20239171.3444                   20239168.1334
 -13725940.01648 -10681716.10246  21625503.7274                   21625502.5744
  -3455161.21147  -2681875.90645  23068850.9384                   23068848.0704
   3960638.97746   3093238.41443  24418134.9844                   24418136.2234
 -18904983.20746 -14713985.22743  24587822.5394                   24587820.4304
 -28320325.26648 -22051490.19146  21300635.3914                   21300630.4384
 11  8 12  2 30  0.0000000  0  8G12G10G05G25G29G26G04G02
 -21497401.57848 -16737095.77046  21092632.0634                   21092629.2584
 -16551504.74246 -12882633.19944  22781337.6024                   22781335.1764
 -24161956.43748 -18813879.69147  20237170.8054                   20237167.8524
 -13760180.26248 -10708396.81646  21618987.7034                   21618987.3914
  -3552627.61747  -2757823.74245  23050303.7274                   23050301.3874
   3850648.23446   3007531.48843  24397205.4534                   24397204.7464
 -18840230.73446 -14663528.74243  24600144.3984                   24600142.4064
 -28299045.09048 -22034908.24646  21304684.9454                   21304680.0164
 11  8 12  2 30 30.0000000  0  8G12G10G05G25G29G26G04G02
 -21464950.02048 -16711808.84446  21098807.3914                   21098803.7114
 -16470273.00047 -12819335.75044  22796794.5394                   22796792.5514
 -24171879.07448 -18821611.59847  20235282.6954                   20235279.7584
 -13793819.12148 -10734608.93446  21612586.1804                   21612586.5474
  -3650044.82847  -2833733.25045  23031765.8284                   23031763.7974
   3740615.42646   2921791.76643  24376265.9774                   24376266.4494
 -18775514.06646 -14613100.14143  24612459.5864                   24612457.7384
 -28277633.81647 -22018224.14146  21308759.4384                   21308754.7074
 11  8 12  2 31  0.0000000  0  8G12G10G05G25G29G26G04G02
 -21431968.61748 -16686109.06246  21105083.6024                   21105080.1724
 -16388743.98047 -12755806.67244  22812309.8134                   22812306.7624
 -24181212.86748 -18828884.66047  20233506.3444                   20233503.3874
 -13826855.99648 -10760351.97746  21606299.8914                   21606300.1094
  -3747411.21547  -2909603.15645  23013237.8134                   23013235.2464
   3630543.98847   2836021.97343  24355320.2584                   24355320.3134
 -18710833.21146 -14562699.47343  24624767.4844                   24624765.7774
 -28256091.64548 -22001438.03946  21312858.5554                   21312853.7274
 11  8 12  2 31 30.0000000  0  8G12G10G05G25G29G26G04G02
 -21398459.12148 -16659997.77746  21111460.0944                   21111457.4414
 -16306920.26247 -12692047.93744  22827879.7194                   22827877.8164
 -24189958.10248 -18835699.10247  20231842.3284                   20231839.0984
 -13859289.66848 -10785624.97346  21600127.8364                   21600127.4224
  -3844724.62147  -2985431.78145  22994719.5704                   22994717.2544
   3520437.73047   2750225.05943  24334367.9384                   24334367.5044
 -18646187.57846 -14512326.20342  24637069.1804                   24637067.3134
 -28234418.12948 -21984549.59446  21316983.0314                   21316978.3754
 11  8 12  2 32  0.0000000  0  7G12G10G05G25G29G26G02
 -21364424.06248 -16633476.96146  21117936.7894                   21117933.7814
 -16224805.35947 -12628062.32044  22843506.5084                   22843503.2114
 -24198116.59448 -18842056.34847  20230289.5784                   20230286.8094
 -13891120.74248 -10810428.39846  21594070.4924                   21594070.3204
  -3941984.57847  -3061218.72345  22976211.0634                   22976209.4614
   3410298.65247   2664402.52743  24313409.6094                   24313408.6564
 -28212614.83648 -21967560.02046  21321132.1254                   21321126.8874
 11  8 12  2 32 30.0000000  0  7G12G10G05G25G29G26G02
 -21329866.31248 -16606548.84846  21124513.0004                   21124510.2274
 -16142402.72347 -12563852.47344  22859187.1884                   22859184.4184
 -24205689.53548 -18847957.31247  20228848.3524                   20228845.5704
 -13922349.28548 -10834762.31646  21588127.9844                   21588127.7274
  -4039189.85247  -3136963.06245  22957714.1644                   22957712.3754
   3300129.41847   2578556.51643  24292444.6094                   24292444.4384
 -28190682.90648 -21950470.20346  21325305.6884                   21325300.9414
 11  8 12  2 33  0.0000000  0  7G12G10G05G25G29G26G02
 -21294785.36348 -16579213.05146  21131188.7274                   21131185.5944
 -16059712.59047 -12499418.62144  22874922.5634                   22874919.6414
 -24212675.55948 -18853400.94147  20227519.3204                   20227516.3914
 -13952972.44148 -10858624.48046  21582300.5394                   21582300.4414
  -4136336.74246  -3212661.89545  22939226.8984                   22939225.2274
   3189935.65647   2492691.40643  24271475.4844                   24271474.7034
 -28168620.15647 -21933278.43746  21329503.9774                   21329498.8594
 11  8 12  2 33 30.0000000  0  7G12G10G05G25G29G26G02
 -21259180.64848 -16551469.12146  21137963.9384                   21137961.2854
 -15976735.78147 -12434761.37944  22890711.8834                   22890709.7384
 -24219072.99248 -18858385.93747  20226301.7814                   20226298.8984
 -13982987.58648 -10882012.87546  21576588.6254                   21576588.5434
  -4233421.10947  -3288311.98045  22920752.1644                   22920750.5944
   3079722.92647   2406811.50043  24250502.3054                   24250502.1174
 -28146424.55948 -21915983.16446  21333727.6484                   21333722.9224
 11  8 12  2 34  0.0000000  0  7G12G10G05G25G29G26G02
 -21223052.93748 -16523317.66046  21144838.6884                   21144835.7664
 -15893473.92247 -12369882.02344  22906555.9304                   22906554.6804
 -24224881.64548 -18862912.13747  20225196.4534                   20225193.1214
 -14012393.12148 -10904926.24646  21570993.1174                   21570992.8674
  -4330440.14547  -3363911.17645  22902290.7114                   22902288.8444
   2969495.54347   2320920.13343  24229526.4224                   24229525.7664
 -28124095.52348 -21898583.89846  21337976.8054                   21337971.9924
 11  8 12  2 34 30.0000000  0  7G12G10G05G25G29G26G02
 -21186405.25048 -16494761.02046  21151812.7584                   21151809.7894
 -15809930.58247 -12304783.33644  22922454.5704                   22922452.1414
 -24230103.40248 -18866981.02347  20224202.7734                   20224199.4734
 -14041189.52048 -10927364.95346  21565513.6414                   21565513.0044
  -4427393.00847  -3439458.82445  22883841.2584                   22883838.3754
   2859255.84046   2235019.18043  24208548.0554                   24208547.9494
 -28101634.07448 -21881081.45746  21342251.1174                   21342245.6484
 11  8 12  2 35  0.0000000  0  7G12G10G05G25G29G26G02
 -21149242.35548 -16465802.92246  21158884.5944                   21158881.9694
 -15726111.02747 -12239469.40244  22938405.4454                   22938402.4774
 -24234741.38348 -18870595.00847  20223320.1024                   20223317.5514
 -14069379.02348 -10949330.75846  21560148.8984                   21560148.7274
  -4524280.59047  -3514955.60545  22865404.0704                   22865401.6214
   2749004.69146   2149109.32043  24187567.7584                   24187567.9414
 -28079043.08648 -21863478.08246  21346549.9224                   21346544.7154
 11  8 12  2 35 30.0000000  0  7G12G10G05G25G29G26G02
 -21111566.15648 -16436444.84846  21166054.0634                   21166051.0554
 -15642018.43047 -12173942.70744  22954407.2664                   22954404.8444
 -24238796.93448 -18873755.14847  20222548.4844                   20222545.1054
 -14096961.60548 -10970823.64146  21554900.2034                   21554899.8634
  -4621101.77047  -3590400.64145  22846979.5314                   22846977.1644
   2638744.91046   2063192.71143  24166585.9774                   24166586.5004
 -28056323.42248 -21845774.43746  21350873.1884                   21350868.2154
 11  8 12  2 36  0.0000000  0  7G12G10G05G25G29G26G02
 -21073379.65648 -16406689.14846  21173320.7894                   21173317.6054
 -15557656.55947 -12108206.19144  22970460.3204                   22970458.6294
 -24242271.77048 -18876462.78547  20221887.2034                   20221884.2154
 -14123938.08248 -10991844.23046  21549766.7114                   21549766.3954
  -4717856.01647  -3665793.52345  22828567.5084                   22828564.9414
   2528478.70746   1977271.05543  24145603.4144                   24145602.5354
 -28033476.17648 -21827971.37946  21355220.9224                   21355215.8364
 11  8 12  2 36 30.0000000  0  7G12G10G05G25G29G26G02
 -21034685.14148 -16376537.57446  21180684.0474                   21180681.0004
 -15473028.50047 -12042262.27044  22986564.5864                   22986562.5474
 -24245167.19948 -18878718.94547  20221336.0864                   20221332.8914
 -14150308.14848 -11012392.27346  21544748.5004                   21544748.0824
  -4814541.23447  -3741132.61345  22810169.1724                   22810165.9614
   2418209.50846   1891347.12943  24124619.8914                   24124618.9574
 -28010502.00048 -21810069.39846  21359592.8594                   21359588.0354
 11  8 12  2 37  0.0000000  0  7G12G10G05G25G29G26G02
 -20995485.30948 -16345992.25846  21188143.3834                   21188140.5664
 -15388137.47747 -11976113.42644  23002718.8594                   23002717.1334
 -24247484.71148 -18880524.77347  20220895.0394                   20220892.4454
 -14176072.03948 -11032467.99246  21539845.6024                   21539845.4024
  -4911156.43447  -3816417.13345  22791783.8594                   22791781.9774
   2307940.13746   1805423.03543  24103637.0554                   24103635.2774
 -27987401.49248 -21792068.99646  21363988.7274                   21363983.6954
 11  8 12  2 37 30.0000000  0  7G12G10G05G25G29G26G02
 -20955782.61748 -16315055.09846  21195698.6174                   21195695.5704
 -15302986.78947 -11909762.24644  23018922.0704                   23018920.5824
 -24249225.87548 -18881881.50847  20220563.5084                   20220560.4414
 -14201230.16048 -11052071.69546  21535058.4384                   21535057.7504
  -5007700.57047  -3891646.27745  22773412.0394                   22773409.6024
   2197673.05546   1719500.72343  24082652.9924                   24082652.4734
 -27964175.84848 -21773971.07446  21368408.2504                   21368403.4734
 11  8 12  2 38  0.0000000  0  7G12G10G05G25G29G26G02
 -20915580.22748 -16283728.56646  21203349.2734                   21203346.2304
 -15217580.10247 -11843211.59444  23035174.1644                   23035172.7194
 -24250392.60948 -18882790.62547  20220341.9454                   20220338.2854
 -14225783.51248 -11071204.15246  21530385.8204                   21530385.8954
  -5104173.10547  -3966819.63345  22755053.6644                   22755051.7704
   2087410.62146   1633582.03143  24061670.4454                   24061670.1564
 -27940825.98448 -21755776.37146  21372851.7664                   21372846.5474
 11  8 12  2 38 30.0000000  0  7G12G10G05G25G29G26G02
 -20874880.23048 -16252014.29346  21211093.7814                   21211091.1954
 -15131919.97747 -11776463.46544  23051474.8914                   23051473.1484
 -24250985.68448 -18883252.74647  20220228.7424                   20220225.5554
 -14249731.57448 -11089864.97346  21525829.0704                   21525828.1914
  -5200571.55147  -4041935.25845  22736709.6644                   22736707.0824
   1977156.37546   1547669.73443  24040690.1804                   24040689.5124
 -27917351.98448 -21737484.93446  21377318.3524                   21377313.8054
 11  8 12  2 39  0.0000000  0  7G12G10G05G25G29G26G02
 -20833685.08248 -16219914.18746  21218933.0944                   21218930.3674
 -15046010.27747 -11709520.85244  23067823.3754                   23067821.5744
 -24251007.33248 -18883269.60247  20220224.8524                   20220221.6334
 -14273075.09448 -11108054.70746  21521386.5474                   21521386.1954
  -5296895.27347  -4116992.66445  22718379.9304                   22718377.9414
   1866912.95746   1461765.88343  24019711.2584                   24019710.4414
 -27893755.30948 -21719097.91446  21381809.0784                   21381803.8754
 11  8 12  2 39 30.0000000  0  7G12G10G05G25G29G26G02
 -20791998.13348 -16187430.86346  21226865.7664                   21226862.7384
 -14959854.09447 -11642386.18044  23084218.0554                   23084215.9884
 -24250458.96148 -18882842.28947  20220329.3204                   20220326.1804
 -14295814.44148 -11125773.67646  21517059.6644                   21517059.1994
  -5393143.37947  -4191991.10945  22700064.0554                   22700062.8324
   1756683.10546   1375872.60543  23998734.8674                   23998734.4774
 -27870036.66448 -21700615.84046  21386322.7114                   21386317.6294
 11  8 12  2 40  0.0000000  0  7G12G10G05G25G29G26G02
 -20749821.18748 -16154565.71946  21234891.8054                   21234889.2304
 -14873454.00047 -11575061.42644  23100659.5944                   23100657.4064
 -24249341.43048 -18881971.47347  20220541.9844                   20220538.5904
 -14317949.45748 -11143021.74646  21512847.3754                   21512847.2464
  -5489313.87947  -4266929.08245  22681763.9614                   22681761.5164
   1646470.29346   1289992.59843  23977762.6954                   23977761.2624
 -27846195.93448 -21682038.63746  21390859.0784                   21390854.0634
 11  8 12  2 40 30.0000000  0  7G12G10G05G25G29G26G02
 -20707156.16048 -16121320.26246  21243011.0314                   21243007.9414
 -14786812.58247 -11507548.65644  23117147.2034                   23117145.0704
 -24247655.60948 -18880657.83647  20220862.5004                   20220859.3404
 -14339479.82448 -11159798.66846  21508750.0234                   21508749.7504
  -5585404.41047  -4341804.76645  22663478.4224                   22663475.9184
   1536278.14846   1204128.69943  23956793.5554                   23956792.3444
 -27822233.36748 -21663366.49246  21395418.9924                   21395414.1914
 11  8 12  2 41  0.0000000  0  7G12G10G05G25G29G26G02
 -20664006.77348 -16087697.37146  21251222.0164                   21251218.6414
 -14699934.32047 -11439851.30544  23133679.5554                   23133677.1454
 -24245404.47348 -18878903.69147  20221291.0394                   20221288.0474
 -14360407.14548 -11176105.67646  21504768.1024                   21504767.7274
  -5681415.16847  -4416618.29745  22645208.1414                   22645206.4184
   1426108.40246   1118282.26244  23935828.7504                   23935828.2854
 -27798150.78948 -21644600.84046  21400001.6024                   21399996.9804
 11  8 12  2 41 30.0000000  0  7G12G10G05G25G29G26G02
 -20620373.57448 -16053697.48846  21259524.6254                   21259522.1454
 -14612819.93747 -11371969.98044  23150257.0554                   23150254.2234
 -24242587.00848 -18876708.25047  20221827.0164                   20221824.1604
 -14380729.54748 -11191941.32446  21500900.6954                   21500900.2274
  -5777342.44947  -4491366.74245  22626953.4694                   22626951.5864
   1315966.34846   1032457.39843  23914868.9924                   23914868.8444
 -27773946.80148 -21625740.59846  21404607.6564                   21404602.7074
 11  8 12  2 42  0.0000000  0  7G12G10G05G25G29G26G02
 -20576258.93748 -16019322.45746  21267919.4534                   21267917.0394
 -14525472.68747 -11303907.19544  23166878.4304                   23166875.5234
 -24239204.93048 -18874072.86347  20222470.7504                   20222467.6454
 -14400447.45748 -11207305.95346  21497148.4614                   21497148.3404
  -5873184.88347  -4566049.08245  22608715.5394                   22608713.2624
   1205855.16446    946656.63343  23893915.4614                   23893914.7774
 -27749621.82048 -21606786.05146  21409236.4534                   21409231.6684
 11  8 12  2 42 30.0000000  0  7G12G10G05G25G29G26G02
 -20531665.68047 -15984574.48446  21276405.5474                   21276402.5944
 -14437895.61747 -11235665.31644  23183543.5864                   23183541.3204
 -24235259.88748 -18870998.79747  20223221.3134                   20223218.2034
 -14419561.20348 -11222199.78946  21493511.3204                   21493510.8444
  -5968940.85947  -4640664.05945  22590493.7034                   22590491.5234
   1095777.47746    860881.92243  23872968.0944                   23872967.6684
 -27725176.29748 -21587737.59846  21413888.7504                   21413883.3954
 11  8 12  2 43  0.0000000  0  7G12G10G05G25G29G26G02
 -20486596.50448 -15949455.65646  21284981.8914                   21284978.6804
 -14350091.63747 -11167246.63744  23200251.9384                   23200249.9414
 -24230753.48048 -18867487.30147  20224079.2584                   20224075.7894
 -14438071.28148 -11236623.23846  21489988.8524                   21489988.4804
  -6064608.79747  -4715210.41045  22572288.3364                   22572286.7154
    985736.68846    775136.00043  23852028.2894                   23852027.2974
 -27700610.89148 -21568595.71946  21418563.1564                   21418558.0904
 11  8 12  2 43 30.0000000  0  7G12G10G05G25G29G26G02
 -20441052.59048 -15913966.89846  21293648.5394                   21293646.0474
 -14262062.77347 -11098652.72344  23217003.0234                   23217001.0904
 -24225685.91848 -18863538.54747  20225042.9144                   20225039.9654
 -14455976.93748 -11250575.71546  21486581.5164                   21486581.5274
  -6160186.44147  -4789686.41045  22554100.6724                   22554098.4694
    875736.96946    689422.06343  23831095.9534                   23831095.2854
 -27675925.01248 -21549359.96546  21423260.3984                   21423255.7154
 11  8 12  2 44  0.0000000  0  7G12G10G05G25G29G26G02
 -20395035.13348 -15878109.15646  21302405.4774                   21302402.8954
 -14173810.66847 -11029884.84444  23233797.4304                   23233795.0394
 -24220057.43748 -18859152.71147  20226114.5704                   20226111.1374
 -14473277.09848 -11264056.38346  21483289.3054                   21483289.0084
  -6255670.41847  -4864089.43445  22535930.5394                   22535928.3874
    765782.81347    603743.60544  23810171.6414                   23810171.3554
 -27651117.72748 -21530029.61346  21427981.1954                   21427976.4804
 11  8 12  2 44 30.0000000  0  7G12G10G05G25G29G26G02
 -20348546.82848 -15841884.51646  21311251.5164                   21311249.0274
 -14085338.54747 -10960945.53544  23250633.1414                   23250631.0904
 -24213869.66048 -18854331.05947  20227291.3674                   20227288.5354
 -14489972.42248 -11277065.74246  21480112.5864                   21480112.4304
  -6351059.50047  -4938418.51245  22517778.6414                   22517776.6844
    655877.40647    518103.12943  23789258.0944                   23789256.6604
 -27626189.72748 -21510605.19546  21432724.7974                   21432719.9734
 11  8 12  2 45  0.0000000  0  7G12G10G05G25G29G26G02
 -20301590.03548 -15805294.81646  21320187.6884                   21320185.0164
 -13996648.70747 -10891836.57444  23267510.4454                   23267508.2074
 -24207123.76648 -18849074.50447  20228575.2504                   20228572.1024
 -14506062.90648 -11289603.79346  21477050.4384                   21477049.9184
  -6446351.71147  -5012672.10945  22499644.9614                   22499643.2274
    546024.10547    432503.28943  23768353.1954                   23768352.4804
 -27601140.82048 -21491086.56246  21437491.8444                   21437486.7704
 11  8 12  2 45 30.0000000  0  7G12G10G05G25G29G26G02
 -20254166.88348 -15768341.72746  21329211.6954                   21329208.8754
 -13907743.88747 -10822560.10244  23284427.9454                   23284426.2304
 -24199820.82048 -18843383.88347  20229965.1414                   20229961.6644
 -14521548.42648 -11301670.44946  21474104.0944                   21474103.9884
  -6541544.91047  -5086848.55145  22481530.2194                   22481527.1804
    436226.78147    346947.02043  23747459.2504                   23747458.7504
 -27575971.41448 -21471474.04346  21442280.9844                   21442276.2934
 11  8 12  2 46  0.0000000  0  7G12G10G05G25G29G26G02
 -20206281.05547 -15731028.09846  21338323.8674                   21338321.3324
 -13818627.85947 -10753119.05144  23301386.3834                   23301383.7274
 -24191963.62148 -18837261.37147  20231460.0864                   20231457.4144
 -14536430.57848 -11313266.94146  21471271.8674                   21471271.4654
  -6636638.52047  -5160947.39145  22463434.6804                   22463432.5084
    326487.59847    261436.08644  23726576.7504                   23726575.7464
 -27550682.30948 -21451768.24646  21447093.1644                   21447088.3404
 11  8 12  2 46 30.0000000  0  7G12G10G05G25G29G26G02
 -20157935.23448 -15693356.04346  21347524.1174                   21347520.9734
 -13729303.71547 -10683515.82444  23318384.4694                   23318381.9884
 -24183553.80548 -18830708.25047  20233060.5164                   20233057.5664
 -14550710.15248 -11324393.87946  21468554.6564                   21468554.5314
  -6731631.06647  -5234967.49245  22445358.1174                   22445355.2894
    216809.39847    175972.65244  23705705.8284                   23705704.7274
 -27525274.57848 -21431970.02046  21451928.3984                   21451923.0004
 11  8 12  2 47  0.0000000  0  7G12G10G05G25G29G26G02
 -20109132.14848 -15655327.66846  21356810.8284                   21356808.2194
 -13639774.62947 -10613752.89544  23335420.8914                   23335418.9384
 -24174593.18048 -18823725.93047  20234765.7424                   20234762.5394
 -14564387.55948 -11335051.57846  21465951.8364                   21465951.5864
  -6826520.98847  -5308907.62145  22427300.8284                   22427298.8754
    107195.70746     90559.48044  23684846.7424                   23684845.8524
 -27499748.64848 -21412079.69546  21456785.6414                   21456780.9414
 11  8 12  2 47 30.0000000  0  7G12G10G05G25G29G26G02
 -20059874.35948 -15616944.98446  21366184.2114                   21366181.6764
 -13550043.67247 -10543832.69944  23352496.5394                   23352494.6684
 -24165083.69548 -18816315.92247  20236575.5084                   20236572.4694
 -14577463.87948 -11345240.91046  21463463.6334                   21463462.8484
  -6921306.97347  -5382766.76245  22409264.0164                   22409261.3054
     -2350.74646      5198.70744  23664000.6484                   23664000.0084
 -27474105.15648 -21392097.74646  21461665.6884                   21461660.7774
 11  8 12  2 48  0.0000000  0  7G12G10G05G25G29G26G02
 -20010165.30148 -15578210.66446  21375643.7814                   21375641.2154
 -13460113.82447 -10473757.49244  23369609.0634                   23369607.0274
 -24155026.91448 -18808479.44547  20238488.9144                   20238486.2504
 -14589939.55148 -11354962.22346  21461089.3834                   21461089.0274
  -7015987.27747  -5456543.57845  22391246.1414                   22391244.2234
   -111826.62146    -80107.06244  23643168.0704                   23643167.5004
 -27448344.44148 -21372024.48446  21466567.6024                   21466563.2384
 11  8 12  2 48 30.0000000  0  7G12G10G05G25G29G26G02
 -19960006.55147 -15539125.93746  21385188.8444                   21385185.9384
 -13369987.42247 -10403529.12544  23386760.2424                   23386757.9614
 -24144423.84848 -18800217.29747  20240506.6884                   20240503.8204
 -14601814.60548 -11364215.52346  21458829.5554                   21458829.0744
  -7110559.76647  -5530236.38345  22373250.2664                   22373247.5164
   -221228.05146   -165354.83644  23622349.4844                   23622348.4184
 -27422466.33648 -21351859.73046  21471492.3674                   21471487.3834
 11  8 12  2 49  0.0000000  0  7G12G10G05G25G29G26G02
 -19909400.83648 -15499692.91446  21394818.7194                   21394815.9614
 -13279667.56647 -10333150.01244  23403948.0474                   23403945.1604
 -24133276.15248 -18791530.76247  20242627.8674                   20242624.8094
 -14613089.59448 -11373001.23046  21456684.2894                   21456683.6954
  -7205022.73847  -5603843.84445  22355274.6564                   22355272.4454
   -330551.88346   -250542.14544  23601545.7974                   23601544.8794
 -27396471.19948 -21331603.78146  21476438.9064                   21476433.8954
 11  8 12  2 49 30.0000000  0  7G12G10G05G25G29G26G02
 -19858350.21147 -15459913.21546  21404533.7504                   21404530.7664
 -13189156.11347 -10262621.61744  23421171.0704                   23421168.7304
 -24121585.10948 -18782420.83647  20244852.2504                   20244849.3954
 -14623764.66848 -11381319.48446  21454652.6644                   21454652.2974
  -7299373.68747  -5677364.00845  22337319.5864                   22337317.5234
   -439794.05946   -335665.82444  23580757.6484                   23580756.4384
 -27370358.86348 -21311256.50846  21481408.0004                   21481403.1214
 11  8 12  2 50  0.0000000  0  7G12G10G05G25G29G26G02
 -19806858.10947 -15419789.50046  21414332.0784                   21414329.0354
 -13098456.89147 -10191946.88344  23438430.8754                   23438427.7234
 -24109352.99648 -18772889.29347  20247180.2814                   20247177.1804
 -14633841.08648 -11389171.24646  21452734.8444                   21452734.8984
  -7393611.66047  -5750796.14145  22319386.8674                   22319384.1994
   -548951.84046   -420723.71944  23559985.6564                   23559984.5474
 -27344130.03548 -21290818.45346  21486399.1254                   21486394.2464
 11  8 12  2 50 30.0000000  0  7G12G10G05G25G29G26G02
 -19754926.07047 -15379322.98046  21424214.3054                   21424211.6884
 -13007571.35547 -10121126.97744  23455725.1564                   23455722.8834
 -24096580.40248 -18762936.60947  20249610.7504                   20249607.6414
 -14643318.53948 -11396556.27046  21450931.6254                   21450931.8404
  -7487733.78147  -5824138.00445  22301475.8444                   22301473.9304
   -658020.86346   -505712.45344  23539230.2974                   23539229.3364
 -27317784.19148 -21270289.20746  21491412.7424                   21491407.6374
 11  8 12  2 51  0.0000000  0  7G12G10G05G25G29G26G02
 -19702557.98847 -15338516.68046  21434179.7194                   21434176.6954
 -12916503.46547 -10050164.97743  23473055.0314                   23473052.7114
 -24083270.21548 -18752565.00847  20252143.7424                   20252140.8914
 -14652198.63348 -11403475.81246  21449241.7274                   21449241.3754
  -7581739.46947  -5897389.14145  22283587.1804                   22283584.6994
   -766998.93047   -590630.32044  23518492.3444                   23518491.2194
 -27291322.66048 -21249669.81646  21496448.2194                   21496443.2424
 11  8 12  2 51 30.0000000  0  8G12G10G05G25G29G26G15G02
 -19649759.44947 -15297374.94546  21444226.8914                   21444223.7704
 -12825259.23047  -9979065.56243  23490418.3284                   23490415.9184
 -24069426.89148 -18741777.98447  20254777.7664                   20254774.9534
 -14660485.15248 -11409932.82446  21447665.1564                   21447664.9064
  -7675630.00447  -5970550.52745  22265720.6334                   22265717.7854
   -875885.72347   -675477.06644  23497771.6254                   23497770.2194
   6036719.39156   4715437.32053  24437951.4384                   24437949.7974
 -27264748.89548 -21228962.96946  21501504.8914                   21501499.8794
 11  8 12  2 52  0.0000000  0  8G12G10G05G25G29G26G15G02
 -18021117.09847 -14028302.98046  21754147.0394                   21754144.3714
 -11158426.74247  -8680235.03943  23807605.7664                   23807603.3524
 -22479635.31248 -17502979.33647  20557305.6024                   20557302.1564
 -13092760.95348 -10188329.53946  21745993.0004                   21745992.6764
  -6193982.44147  -4816019.89545  22547668.6024                   22547666.0904
    590743.53147    467351.01644  23776862.3364                   23776860.9384
   7504371.02046   5859062.21943  24717236.6954                   24717235.1764
 -25662646.07848 -19980571.13346  21806374.7274                   21806369.9574
 11  8 12  2 52 30.0000000  0  8G12G10G05G25G29G26G15G02
 -17967471.26647 -13986501.01646  21764355.6804                   21764352.6644
 -11066843.54346  -8608871.52043  23825033.0084                   23825031.2034
 -22464736.83648 -17491370.11747  20560140.2894                   20560137.1564
 -13099867.89548 -10193867.39546  21744640.4144                   21744640.2274
  -6287642.09047  -4889001.39145  22529845.7274                   22529843.4454
    482044.14847    382650.30144  23756177.0234                   23756175.5904
   7396495.59446   5775003.60943  24696707.6954                   24696706.9884
 -25635853.59048 -19959693.84446  21811473.3834                   21811468.2114
 11  8 12  2 53  0.0000000  0  8G12G10G05G25G29G26G15G02
 -17913405.10547 -13944371.53146  21774644.0004                   21774641.4654
 -10975094.18447  -8537378.51243  23842493.1724                   23842490.4344
 -22449312.73448 -17479351.32047  20563074.9694                   20563072.4884
 -13106385.37548 -10198945.94146  21743400.4844                   21743399.8014
  -6381182.94947  -4961890.29745  22512045.3914                   22512043.2934
    373444.49647    298027.26644  23735510.9454                   23735510.1094
   7288520.10946   5690866.98443  24676161.0944                   24676160.5744
 -25608951.43048 -19938731.10246  21816592.6024                   21816587.7194
 11  8 12  2 53 30.0000000  0  8G12G10G05G25G29G26G15G02
 -17858921.36748 -13901916.66846  21785011.9224                   21785009.3714
 -10883181.97746  -8465758.62543  23859983.4774                   23859980.6524
 -22433364.92648 -17466924.43747  20566110.3204                   20566107.5204
 -13112314.62148 -10203566.12946  21742272.2814                   21742272.2624
  -6474603.48847  -5034685.44545  22494268.5084                   22494265.4224
    264947.58247    213484.30544  23714864.8284                   23714863.3204
   7180446.77046   5606654.12943  24655595.2424                   24655594.4694
 -25581940.16448 -19917683.33246  21821732.5944                   21821727.4964
 11  8 12  2 54  0.0000000  0  8G12G10G05G25G29G26G15G02
 -17804022.75447 -13859138.51246  21795458.8284                   21795455.9964
 -10791108.94146  -8394013.40643  23877504.4614                   23877502.1644
 -22416894.66048 -17454090.45747  20569244.3594                   20569241.1644
 -13117655.84448 -10207728.09046  21741255.4534                   21741255.2194
  -6567901.30147  -5107384.97345  22476513.8834                   22476511.4774
    156557.41047    129024.51244  23694239.1804                   23694237.2194
   7072278.57047   5522367.31643  24635011.5394                   24635010.6374
 -25554819.41047 -19896550.25846  21826893.3054                   21826888.4614
 11  8 12  2 54 30.0000000  0  8G12G10G05G25G29G26G15G02
 -17748710.50448 -13816038.05146  21805984.5314                   21805981.7544
 -10698876.42647  -8322143.89843  23895056.1254                   23895052.9804
 -22399902.60548 -17440849.88347  20572477.9454                   20572474.6254
 -13122408.73848 -10211431.63746  21740350.8444                   21740350.4774
  -6661073.50447  -5179986.61345  22458784.1644                   22458781.1374
     48278.45747     44651.37544  23673634.2584                   23673632.8954
   6964019.29747   5438009.53944  24614410.5474                   24614409.7504
 -25527587.98447 -19875330.93746  21832075.5944                   21832070.3204
 11  8 12  2 55  0.0000000  0  8G12G10G05G25G29G26G15G02
 -17692986.68447 -13772616.89146  21816588.2194                   21816585.2344
 -10606486.82447  -8250152.02343  23912637.6884                   23912634.4264
 -22382390.07048 -17427203.74647  20575810.3204                   20575807.3164
 -13126573.35248 -10214676.76646  21739558.6414                   21739558.2194
  -6754117.16047  -5252488.08245  22441078.2734                   22441075.3714
    -59884.98447    -39631.73844  23653051.1804                   23653049.1564
   6855672.27347   5353583.41444  24593793.4614                   24593791.6954
 -25500245.75448 -19854025.30146  21837278.4384                   21837273.2624
 11  8 12  2 55 30.0000000  0  8G12G10G05G25G29G26G15G02
 -17636851.24248 -13728874.98846  21827270.6414                   21827267.9804
 -10513939.91447  -8178037.55143  23930248.1644                   23930245.6604
 -22364355.69148 -17413150.97747  20579242.2664                   20579239.2154
 -13130147.69548 -10217461.94946  21738878.5004                   21738878.2774
  -6847027.62547  -5324885.77345  22423397.7894                   22423395.2034
   -167926.33647   -123819.72744  23632491.8284                   23632490.4844
   6747242.65647   5269092.93044  24573159.2274                   24573157.8244
 -25472789.98047 -19832631.16446  21842502.7894                   21842498.1214
 11  8 12  2 56  0.0000000  0  8G12G10G05G25G29G26G15G02
 -17580286.88747 -13684798.87946  21838034.5164                   21838031.3054
 -10421218.72347  -8105787.28944  23947892.2034                   23947890.1094
 -22345781.62948 -17398677.67647  20582776.8754                   20582773.3364
 -13133113.08248 -10219772.60546  21738313.9614                   21738313.7154
  -6939783.47347  -5397162.97345  22405746.7194                   22405744.6334
   -275822.84847   -207894.84044  23611959.8594                   23611958.1604
   6638752.69147   5184555.38744  24552513.9774                   24552512.8094
 -25445201.06647 -19811133.29346  21847752.9774                   21847747.6094
 11  8 12  2 56 30.0000000  0  8G12G10G05G25G29G26G15G02
 -17523314.76647 -13640405.02346  21848875.9384                   21848872.8984
 -10328343.80147  -8033417.19944  23965565.9384                   23965563.4064
 -22326687.52048 -17383799.14547  20586410.2584                   20586407.0044
 -13135488.09048 -10221623.23846  21737862.1954                   21737861.8874
  -7032400.54347  -5469332.04345  22388122.6094                   22388119.5744
   -383588.60247   -291868.08644  23591451.9924                   23591450.7114
   6530187.00047   5099958.88344  24531854.7034                   24531853.6094
 -25417496.82847 -19789545.56246  21853024.8754                   21853019.8014
 11  8 12  2 57  0.0000000  0  8G12G10G05G25G29G26G15G02
 -17465940.10547 -13595697.48846  21859793.7894                   21859790.7504
 -10235320.10247  -7960931.22344  23983267.2114                   23983265.0904
 -22307077.78948 -17368518.83647  20590141.8134                   20590138.3404
 -13137276.20348 -10223016.56646  21737521.8754                   21737521.0784
  -7124879.28547  -5541393.30945  22370524.5004                   22370521.5474
   -491222.56647   -375738.61744  23570969.8914                   23570968.7894
   6421545.75847   5015303.48844  24511180.4844                   24511179.5084
 -25389680.02747 -19767870.12546  21858318.1414                   21858313.2774
 11  8 12  2 57 30.0000000  0  8G12G10G05G25G29G26G15G02
 -17408164.89548 -13550677.85246  21870787.8674                   21870784.9774
 -10142149.73047  -7888330.93444  24000997.3204                   24000994.5514
 -22286954.02048 -17352837.96547  20593971.3674                   20593967.8984
 -13138478.03948 -10223953.07046  21737293.1804                   21737292.7894
  -7217217.42247  -5613345.03146  22352952.6254                   22352949.7464
   -598720.73847   -459503.34044  23550514.1024                   23550512.1564
   6312832.06347   4930591.60944  24490493.2974                   24490491.7974
 -25361750.43447 -19746106.80146  21863633.1414                   21863627.9924
 11  8 12  2 58  0.0000000  0  8G12G10G05G25G29G26G15G02
 -17349992.42247 -13505348.66446  21881857.6804                   21881854.9844
 -10048835.68747  -7815618.68743  24018754.0164                   24018752.0704
 -22266318.57048 -17336758.39547  20597898.1254                   20597894.8554
 -13139094.79748 -10224433.67246  21737176.0164                   21737175.7734
  -7309413.02747  -5685185.69145  22335408.3984                   22335405.5554
   -706080.00447   -543159.82044  23530083.9224                   23530083.1024
   6204048.25446   4845825.10544  24469792.1954                   24469790.6604
 -25333708.41447 -19724255.86746  21868969.3204                   21868964.1914
 11  8 12  2 58 30.0000000  0  8G12G10G05G25G29G26G15G02
 -17291426.03147 -13459712.52746  21893002.8054                   21892999.8444
  -9955381.20747  -7742797.01643  24036537.7344                   24036536.0784
 -22245172.98448 -17320281.30547  20601921.5004                   20601918.4024
 -13139127.96548 -10224459.52046  21737169.5084                   21737169.6094
  -7401464.93047  -5756914.39546  22317891.8444                   22317888.4574
   -813297.47747   -626705.80944  23509681.1724                   23509679.0204
   6095196.25847   4761005.46944  24449078.9304                   24449076.5274
 -25305554.71547 -19702317.91446  21874326.7274                   21874321.7234
 11  8 12  2 59  0.0000000  0  8G12G10G05G25G29G26G15G02
 -17232468.53947 -13413771.64146  21904221.7894                   21904219.2894
  -9861789.08647  -7669868.07443  24054347.1024                   24054345.3134
 -22223519.79748 -17303408.68747  20606042.0704                   20606038.9454
 -13138578.70348 -10224031.52046  21737274.1954                   21737273.3634
  -7493371.18447  -5828529.61345  22300402.2344                   22300399.4964
   -920369.48847   -710138.44544  23489305.3524                   23489304.4494
   5986278.68446   4676134.73843  24428351.6024                   24428351.0204
 -25277289.50047 -19680293.07446  21879705.6024                   21879700.6054
 11  8 12  2 59 30.0000000  0  8G12G10G05G25G29G26G15G02
 -17173123.21547 -13367528.55146  21915515.0784                   21915512.2584
  -9768062.40246  -7596834.29743  24072183.5864                   24072181.5784
 -22201361.35248 -17286142.35947  20610259.0004                   20610255.8204
 -13137448.46148 -10223150.81246  21737489.3204                   21737488.6564
  -7585130.11747  -5900030.03946  22282941.1334                   22282938.0944
  -1027293.02347   -793455.39544  23468959.4774                   23468957.4384
   5877297.43446   4591214.36743  24407613.4144                   24407610.9654
 -25248913.10547 -19658181.59046  21885105.5864                   21885100.3094
 11  8 12  3  0  0.0000000  0  8G12G10G05G25G29G26G15G02
 -17113393.10547 -13320985.62546  21926881.3914                   21926878.3134
  -9674204.18446  -7523698.01243  24090043.7344                   24090041.2734
 -22178700.09448 -17268484.23047  20614571.0864                   20614568.3094
 -13135738.97348 -10221818.75046  21737814.8054                   21737814.0784
  -7676740.50047  -5971414.73445  22265508.0394                   22265504.6804
  -1134065.18747   -876654.41444  23448640.6094                   23448639.6954
   5768254.65646   4506246.05543  24386863.2194                   24386861.2344
 -25220426.40248 -19635984.16046  21890526.1564                   21890521.4734
 11  8 12  3  0 30.0000000  0  8G12G10G05G25G29G26G15G02
 -17053280.53147 -13274144.67246  21938320.2424                   21938317.7154
  -9580216.51246  -7450460.87143  24107929.2504                   24107927.6604
 -22155537.17648 -17250435.19147  20618979.0944                   20618976.1174
 -13133450.42248 -10220035.46546  21738249.9064                   21738249.3134
  -7768199.41847  -6042681.39845  22248104.1884                   22248100.9534
  -1240681.41047   -959731.89844  23428353.0554                   23428351.2234
   5659153.98846   4421232.60943  24366102.5864                   24366100.1134
 -25191828.54747 -19613700.10946  21895968.4774                   21895963.0084
 11  8 12  3  1  0.0000000  0  8G12G10G05G25G29G26G15G02
 -16992788.12947 -13227007.75046  21949831.8914                   21949828.8554
  -9486101.62546  -7377124.57043  24125838.8524                   24125836.9774
 -22131874.62948 -17231996.84047  20623481.9614                   20623478.7934
 -13130583.84448 -10217801.78546  21738795.2974                   21738794.9264
  -7859504.78947  -6113828.45346  22230729.0634                   22230726.5824
  -1347138.07047  -1042685.06644  23408094.4224                   23408092.6954
   5549998.07846   4336176.14543  24345329.1724                   24345328.2814
 -25163119.58648 -19591329.49646  21901431.5004                   21901426.5554
 11  8 12  3  1 30.0000000  0  8G12G10G05G25G29G26G15G02
 -16931918.68448 -13179577.02346  21961414.7894                   21961412.0824
  -9391861.98846  -7303691.10243  24143772.6094                   24143770.7074
 -22107714.11348 -17213170.44947  20628079.4534                   20628076.2154
 -13127140.22348 -10215118.46946  21739450.9304                   21739450.6604
  -7950654.34447  -6184854.07846  22213384.0084                   22213381.8594
  -1453431.47347  -1125510.99244  23387867.2194                   23387865.8634
   5440789.68046   4251078.79743  24324548.6954                   24324546.5314
 -25134299.43048 -19568872.22746  21906915.4064                   21906910.3094
 11  8 12  3  2  0.0000000  0  8G12G10G05G25G29G26G15G02
 -16870674.09848 -13131853.96546  21973069.1414                   21973066.3954
  -9297499.33646  -7230161.75443  24161728.2034                   24161726.6024
 -22083056.55948 -17193956.76647  20632771.6254                   20632768.7034
 -13123119.84848 -10211985.72346  21740216.2274                   21740215.9884
  -8041645.26247  -6255756.12146  22196069.2814                   22196066.4104
  -1559556.97347  -1208206.09444  23367672.3834                   23367670.3674
   5331532.28846   4165943.22043  24303756.9534                   24303755.1414
 -25105367.20348 -19546327.62546  21912421.4144                   21912416.2424
 11  8 12  3  2 30.0000000  0  8G12G10G05G25G29G26G15G02
 -16809057.91048 -13083841.35546  21984794.4614                   21984791.4574
  -9203016.87146  -7156539.04343  24179707.5864                   24179705.7194
 -22057904.49248 -17174357.74247  20637557.6094                   20637554.7034
 -13118524.44548 -10208404.90646  21741090.2814                   21741090.2624
  -8132475.96148  -6326533.33245  22178784.5634                   22178781.9064
  -1665511.67247  -1290768.14144  23347509.9614                   23347507.8364
   5222228.41847   4080771.39843  24282957.5784                   24282955.6214
 -25076323.44548 -19523696.11746  21917947.8754                   21917943.3404
 11  8 12  3  3  0.0000000  0  8G12G10G05G25G29G26G15G02
 -16747073.69948 -13035541.96546  21996589.5634                   21996586.7304
  -9108417.82446  -7082825.52043  24197710.0944                   24197707.6334
 -22032260.82448 -17154375.64847  20642437.5004                   20642434.2274
 -13113355.99248 -10204377.55546  21742073.9924                   21742073.4574
  -8223145.21948  -6397184.74246  22161531.1414                   22161528.3244
  -1771292.84847  -1373194.93044  23327380.5474                   23327378.5554
   5112879.59047   3995564.59044  24262148.6954                   24262147.0594
 -25047169.30948 -19500978.60246  21923495.8444                   21923490.9344
 11  8 12  3  3 30.0000000  0  8G12G10G05G25G29G26G15G02
 -16684723.09448 -12986957.07446  22008454.4614                   22008451.6994
  -9013703.41046  -7009022.05543  24215733.3054                   24215731.1094
 -22006126.77748 -17134011.43746  20647411.0004                   20647407.8634
 -13107614.66048 -10199903.78946  21743166.2814                   21743165.7974
  -8313649.79747  -6467707.82846  22144308.2734                   22144306.3404
  -1876895.74647  -1455482.81644  23307284.6334                   23307282.7234
   5003489.73447   3910325.83243  24241332.7504                   24241331.0824
 -25017903.43048 -19478174.01246  21929064.8134                   21929059.8954
 11  8 12  3  4  0.0000000  0  8G12G10G05G25G29G26G15G02
 -16622009.48448 -12938089.31246  22020388.4774                   22020385.6844
  -8918876.49246  -6935130.93743  24233777.8594                   24233775.4924
 -21979504.23048 -17113266.58247  20652477.0004                   20652473.8754
 -13101302.03948 -10194984.86346  21744367.9144                   21744366.6484
  -8403988.01648  -6538101.29346  22127118.0944                   22127115.0124
  -1982316.99247  -1537629.15244  23287223.9694                   23287221.6914
   4894061.02347   3825056.76244  24220509.8524                   24220508.0004
 -24988526.17248 -19455282.62546  21934654.9924                   21934650.5984
 11  8 12  3  4 30.0000000  0  8G12G10G05G25G29G26G15G02
 -16558935.98448 -12888941.12146  22032391.2344                   22032388.4184
  -8823940.05546  -6861154.46143  24251843.9924                   24251841.2274
 -21952395.61348 -17092142.97747  20657635.7114                   20657632.3094
 -13094419.50048 -10189621.84446  21745677.4534                   21745676.8794
  -8494157.96147  -6608363.62146  22109958.8984                   22109956.2934
  -2087553.11347  -1619631.24644  23267198.0314                   23267195.9184
   4784596.31347   3739759.69144  24199678.9774                   24199677.6024
 -24959037.80948 -19432304.67646  21940266.5314                   21940261.7974
 11  8 12  3  5  0.0000000  0  8G12G10G05G25G29G26G15G02
 -16495504.90248 -12839514.28146  22044461.8914                   22044459.0904
  -8728896.45746  -6787094.52043  24269929.8444                   24269927.6644
 -21924802.75848 -17070642.03947  20662886.2504                   20662883.4494
 -13086968.19548 -10183815.62946  21747095.6804                   21747094.7704
  -8584157.27047  -6678492.96946  22092832.8364                   22092830.0314
  -2192600.49247  -1701486.26244  23247207.8834                   23247205.3594
   4675098.39147   3654436.69944  24178841.9384                   24178840.0864
 -24929438.05948 -19409239.92645  21945899.5554                   21945894.4964
 11  8 12  3  5 30.0000000  0  8G12G10G05G25G29G26G15G02
 -16431720.77348 -12789812.35546  22056599.2894                   22056596.3914
  -8633749.21946  -6712953.80143  24288036.0314                   24288034.0084
 -21896728.43447 -17048765.93447  20668228.6024                   20668225.3364
 -13078950.56648 -10177568.10946  21748621.2894                   21748620.7154
  -8673984.91847  -6748488.54346  22075739.2194                   22075736.1374
  -2297456.40247  -1783192.09844  23227254.2734                   23227252.4454
   4565569.01247   3569089.20344  24157999.2504                   24157997.5864
 -24899728.28947 -19386089.44946  21951553.1174                   21951548.2074
 11  8 12  3  6  0.0000000  0  8G12G10G05G25G29G26G15G02
 -16367586.48448 -12739837.57446  22068803.3754                   22068800.8754
  -8538500.98446  -6638734.36743  24306160.9694                   24306158.8284
 -21868175.43448 -17026516.83247  20673662.0234                   20673658.9574
 -13070368.20748 -10170880.54346  21750254.4384                   21750253.9494
  -8763639.19147  -6818348.96946  22058678.5234                   22058675.6054
  -2402117.44947  -1864746.08244  23207338.1254                   23207335.4064
   4456010.43446   3483718.98044  24137150.7734                   24137149.3554
 -24869908.72347 -19362853.42646  21957227.3834                   21957222.4694
 11  8 12  3  6 30.0000000  0  8G12G10G05G25G29G26G15G02
 -16303104.73848 -12689592.03946  22081074.1094                   22081071.1254
  -8443154.12546  -6564438.12143  24324305.3444                   24324303.3324
 -21839145.68748 -17003896.23447  20679186.5704                   20679182.8794
 -13061222.32448 -10163753.87146  21751994.8834                   21751994.1994
  -8853117.42647  -6888072.21546  22041651.1414                   22041648.5274
  -2506580.11747  -1946145.48044  23187459.5004                   23187456.9264
   4346425.56346   3398328.22744  24116297.6804                   24116296.3324
 -24839978.80947 -19339531.41445  21962922.9064                   21962918.4104
 11  8 12  3  7  0.0000000  0  8G12G10G05G25G29G26G15G02
 -16238279.02348 -12639078.48046  22093410.0004                   22093407.2814
  -8347711.64146  -6490067.34043  24342467.2734                   24342465.3484
 -21809641.64848 -16980906.06647  20684800.5164                   20684797.5084
 -13051514.85248 -10156189.59846  21753842.0234                   21753841.7974
  -8942418.32847  -6957657.25446  22024657.9694                   22024654.8444
  -2610840.96947  -2027387.62944  23167619.2114                   23167616.7854
   4236816.69946   3312918.76244  24095439.4304                   24095437.5664
 -24809939.08247 -19316123.84845  21968639.2734                   21968634.5634
 11  8 12  3  7 30.0000000  0  8G12G10G05G25G29G26G15G02
 -16173111.57448 -12588298.64146  22105811.0164                   22105808.2704
  -8252175.37146  -6415623.49243  24360646.4304                   24360645.2704
 -21779664.93448 -16957547.57447  20690505.0474                   20690502.0904
 -13041246.67648 -10148188.42646  21755795.8284                   21755795.4184
  -9031539.26247  -7027102.03946  22007698.5474                   22007695.4574
  -2714895.82447  -2108469.25844  23147817.9774                   23147815.7734
   4127187.26246   3227493.30544  24074577.6334                   24074576.4654
 -24779789.02347 -19292630.30945  21974376.3364                   21974371.6294
 11  8 12  3  8  0.0000000  0  8G12G10G05G25G29G26G15G02
 -16107606.04748 -12537255.36346  22118276.1954                   22118273.3874
  -8156548.50046  -6341109.02343  24378843.9694                   24378842.1524
 -21749218.13748 -16933822.77747  20696298.9694                   20696295.9024
 -13030419.74248 -10139751.85946  21757856.1414                   21757855.2934
  -9120478.41047  -7096405.16846  21990774.2424                   21990771.1374
  -2818741.81247  -2189388.12944  23128056.5234                   23128054.4964
   4017539.54346   3142053.61344  24053712.1954                   24053711.1414
 -24749529.46147 -19269051.43745  21980134.9384                   21980129.9024
 11  8 12  3  8 30.0000000  0  8G12G10G05G25G29G26G15G02
 -16041765.14548 -12485950.75046  22130805.1334                   22130802.6684
  -8060832.91446  -6266525.46143  24397058.8524                   24397056.8914
 -21718303.10948 -16909733.13747  20702181.6254                   20702178.7704
 -13019035.34448 -10130880.89846  21760022.6644                   21760022.0984
  -9209233.75447  -7165565.05546  21973884.1954                   21973881.0314
  -2922374.86747  -2270141.08644  23108335.3134                   23108333.7464
   3907876.32846   3056601.84044  24032843.9534                   24032843.0744
 -24719160.12147 -19245387.02745  21985913.7894                   21985908.6094
 11  8 12  3  9  0.0000000  0  8G12G10G05G25G29G26G15G02
 -15975592.85948 -12434387.91845  22143396.8984                   22143394.3874
  -7965032.87146  -6191876.09043  24415288.1724                   24415286.3714
 -21686923.48848 -16885281.46547  20708152.9454                   20708149.8444
 -13007096.30948 -10121577.75446  21762294.5634                   21762294.3364
  -9297804.33248  -7234580.97346  21957030.4614                   21957027.1054
  -3025792.90647  -2350726.49644  23088656.2034                   23088654.1134
   3798199.16046   2971139.22743  24011972.4454                   24011971.2814
 -24688682.26247 -19221638.07446  21991713.8594                   21991709.2304
 11  8 12  3  9 30.0000000  0  8G12G10G05G25G29G26G15G02
 -15909092.25048 -12382569.25046  22156051.9064                   22156048.7584
  -7869149.86746  -6117162.05943  24433534.3674                   24433532.3554
 -21655080.75048 -16860468.93447  20714212.5314                   20714209.2074
 -12994603.61748 -10111843.19546  21764671.8594                   21764671.2034
  -9386187.60247  -7303450.94146  21940210.9844                   21940207.4694
  -3128991.52747  -2431140.94144  23069017.6094                   23069015.9654
   3688511.48046   2885668.37144  23991099.1884                   23991098.7234
 -24658095.35247 -19197804.12945  21997534.3524                   21997529.2734
 11  8 12  3 10  0.0000000  0  9G12G10G05G25G29G26G15G21G02
 -15842265.09048 -12330496.13346  22168768.7114                   22168765.6294
  -7773185.66846  -6042384.75843  24451795.5864                   24451793.0004
 -21622776.40648 -16835296.69147  20720359.6484                   20720356.5204
 -12981558.07448 -10101677.84046  21767154.1174                   21767154.1294
  -9474380.64847  -7372172.67646  21923428.5314                   21923425.2584
  -3231966.29347  -2511380.94544  23049422.3834                   23049420.4184
   3578816.56346   2800191.90244  23970225.2034                   23970224.2274
   7773883.07856   6064987.80153  25225241.1884                   25225238.1294
 -24627398.29347 -19173884.36346  22003375.9534                   22003370.9344
 11  8 12  3 10 30.0000000  0  9G12G10G05G25G29G26G15G21G02
 -15775115.96547 -12278172.14845  22181546.7424                   22181544.0864
  -7677144.59446  -5967547.56643  24470071.2974                   24470068.7704
 -21590014.00448 -16809767.53147  20726594.2584                   20726590.8054
 -12967962.79348 -10091084.14146  21769741.0554                   21769740.6884
  -9562382.59447  -7440745.52046  21906681.9384                   21906679.2464
  -3334715.30547  -2591445.05944  23029870.0314                   23029867.6414
   3469115.65647   2714710.76244  23949350.7814                   23949348.6884
   7703462.71946   6010114.93843  25211840.2734                   25211838.1414
 -24596592.72347 -19149880.05145  22009238.2584                   22009233.4104
 11  8 12  3 11  0.0000000  0  9G12G10G05G25G29G26G15G21G02
 -15707650.93747 -12225601.99246  22194385.0394                   22194382.4654
  -7581031.72746  -5892654.41443  24488360.8284                   24488359.3364
 -21556799.24248 -16783885.88747  20732914.8754                   20732912.1644
 -12953822.52348 -10080065.77746  21772431.7974                   21772431.8914
  -9650194.65647  -7509170.40646  21889971.9454                   21889968.8444
  -3437237.91047  -2671332.73844  23010360.2114                   23010358.4534
   3359408.71946   2629224.92243  23928473.9534                   23928471.7034
   7633067.22346   5955261.51242  25198444.1024                   25198441.6454
 -24565681.75447 -19125793.60546  22015119.9694                   22015115.0274
 11  8 12  3 11 30.0000000  0  9G12G10G05G25G29G26G15G21G02
 -15639874.19548 -12172788.95346  22207282.6804                   22207280.1094
  -7484850.61746  -5817708.16043  24506663.3674                   24506662.3834
 -21523135.02048 -16757654.01247  20739321.0704                   20739318.2384
 -12939139.87148 -10068624.77046  21775226.0474                   21775225.9064
  -9737815.60547  -7577446.39846  21873297.9384                   21873295.6054
  -3539531.62147  -2751042.06244  22990894.4924                   22990892.6174
   3249697.45346   2543735.68844  23907596.6334                   23907595.0904
   7562694.81346   5900425.99242  25185052.7344                   25185049.4884
 -24534666.38347 -19101625.80945  22021022.2814                   22021017.3714
 11  8 12  3 12  0.0000000  0  9G12G10G05G25G29G26G15G21G02
 -15571788.40248 -12119735.09046  22220238.6174                   22220236.0234
  -7388603.49246  -5742710.38743  24524978.6884                   24524976.7114
 -21489023.35548 -16731073.47747  20745812.2504                   20745808.9304
 -12923916.14548 -10056762.15246  21778122.9694                   21778122.5664
  -9825243.02048  -7645571.58646  21856661.1334                   21856657.9774
  -3641592.36747  -2830569.87144  22971473.3834                   22971470.6684
   3139985.01247   2458245.53144  23886719.2974                   23886716.5394
   7492345.55546   5845608.53543  25171664.8754                   25171663.1334
 -24503546.25847 -19077376.37145  22026944.1024                   22026939.3244
 11  8 12  3 12 30.0000000  0  9G12G10G05G25G29G26G15G21G02
 -15503395.84448 -12066442.17246  22233253.1644                   22233250.7304
  -7292291.93746  -5667662.45743  24543306.9614                   24543304.7194
 -21454465.67248 -16704145.39846  20752388.3054                   20752385.1134
 -12908152.31248 -10044478.66446  21781122.6334                   21781122.4694
  -9912474.02047  -7713543.73046  21840061.6094                   21840058.5744
  -3743415.73847  -2909912.71145  22952096.8054                   22952094.6454
   3030274.77747   2372757.11744  23865842.1564                   23865840.1414
   7422019.41446   5790809.13743  25158282.7734                   25158280.9104
 -24472320.59447 -19053044.69546  22032886.2814                   22032881.0824
 11  8 12  3 13  0.0000000  0  9G12G10G05G25G29G26G15G21G02
 -15434698.84447 -12012912.04346  22246326.0864                   22246323.2114
  -7195917.48046  -5592565.48843  24561646.4384                   24561643.6174
 -21419463.78948 -16676871.18747  20759049.0084                   20759045.9574
 -12891849.43448 -10031775.13746  21784225.2114                   21784224.8244
  -9999505.73847  -7781360.60946  21823499.9844                   21823496.8834
  -3844997.51647  -2989067.28544  22932766.5164                   22932764.0164
   2920570.19946   2287273.11744  23844965.7584                   23844963.4694
   7351716.63346   5736027.94943  25144904.4454                   25144902.1804
 -24440988.76647 -19028630.28945  22038848.7974                   22038843.6254
 11  8 12  3 13 30.0000000  0  9G12G10G05G25G29G26G15G21G02
 -15365699.82447 -11959146.56246  22259456.3204                   22259453.4774
  -7099482.31246  -5517421.17242  24579997.4534                   24579994.0904
 -21384019.37148 -16649252.14147  20765793.8834                   20765790.4024
 -12875008.89548 -10018652.64846  21787429.9454                   21787428.8634
 -10086335.80948  -7849020.35546  21806976.4144                   21806973.8834
  -3946333.55147  -3068030.37945  22913482.5314                   22913480.5744
   2810874.69146   2201796.20344  23824090.9534                   23824089.1374
   7281436.75046   5681264.52743  25131530.4304                   25131528.5784
 -24409549.94947 -19004132.50845  22044831.0864                   22044825.7584
 11  8 12  3 14  0.0000000  0  9G12G10G05G25G29G26G15G21G02
 -15296401.47747 -11905147.85245  22272643.1254                   22272640.3874
  -7002988.11346  -5442230.92243  24598359.8444                   24598357.3954
 -21348134.00448 -16621289.49646  20772622.7034                   20772619.3794
 -12857631.69148 -10005111.97746  21790736.7194                   21790736.6804
 -10172961.25448  -7916520.67246  21790492.5704                   21790489.2704
  -4047419.57847  -3146798.66445  22894246.1254                   22894244.3914
   2701191.67646   2116328.98844  23803219.1254                   23803217.0904
   7211179.96946   5626519.16043  25118161.0474                   25118159.3324
 -24378003.55147 -18979550.89545  22050834.3364                   22050829.1134
 11  8 12  3 14 30.0000000  0  9G12G10G05G25G29G26G15G21G02
 -15226808.30148 -11850919.39545  22285886.1724                   22285883.1094
  -6906438.94546  -5366997.73442  24616732.6094                   24616729.8634
 -21311811.73048 -16592986.41446  20779534.3754                   20779531.1254
 -12839721.16048  -9991155.71146  21794144.9304                   21794144.6524
 -10259381.20748  -7983860.88746  21774047.2274                   21774044.1954
  -4148253.59047  -3225370.57844  22875058.4454                   22875056.4924
   2591522.20347   2030872.36344  23782349.2424                   23782347.4734
   7140943.94946   5571789.91043  25104794.0394                   25104792.8094
 -24346351.09047 -18954886.63345  22056857.0164                   22056852.3284
 11  8 12  3 15  0.0000000  0  8G12G05G25G29G26G15G21G02
 -15156921.60548 -11796462.21545  22299185.4614                   22299182.3014
 -21275052.91848 -16564343.16847  20786529.1174                   20786525.8834
 -12821277.52748  -9976784.03946  21797654.3364                   21797653.6254
 -10345592.05548  -8051038.15646  21757641.8834                   21757638.7584
  -4248830.25447  -3303741.95344  22855918.9844                   22855916.9844
   2481871.02347   1945429.99644  23761483.6334                   23761481.7274
   7070730.06346   5517077.88743  25091434.7114                   25091431.9654
 -24314591.14548 -18930138.62545  22062900.5864                   22062895.9304
 11  8 12  3 15 30.0000000  0  8G12G05G25G29G26G15G21G02
 -15086745.34447 -11741779.41045  22312539.3134                   22312536.1994
 -21237860.88748 -16535362.34846  20793606.5784                   20793603.6094
 -12802303.30948  -9961998.92246  21801265.1024                   21801264.8754
 -10431592.46548  -8118051.46146  21741276.6724                   21741273.3794
  -4349146.80947  -3381910.65245  22836829.9534                   22836827.6054
   2372240.18447   1860003.47344  23740621.5004                   23740619.7624
   7000536.77746   5462381.92243  25078076.4144                   25078074.4304
 -24282724.18748 -18905307.20345  22068964.7974                   22068960.3324
 11  8 12  3 16  0.0000000  0  8G12G05G25G29G26G15G21G02
 -15016279.69147 -11686871.10545  22325948.4694                   22325946.0004
 -21200235.02748 -16506043.48446  20800766.6564                   20800763.1804
 -12782797.58248  -9946799.63746  21804977.1094                   21804976.5594
 -10517377.17248  -8184896.68046  21724952.5634                   21724949.3524
  -4449196.61747  -3459871.48444  22817791.2584                   22817788.6884
   2262635.32047   1774597.19144  23719763.8674                   23719761.8914
   6930366.70346   5407704.05143  25064724.1484                   25064720.8714
 -24250747.36748 -18880390.18045  22075050.1884                   22075045.2664
 11  8 12  3 16 30.0000000  0  8G12G05G25G29G26G15G21G02
 -14945525.29347 -11631737.80545  22339412.5554                   22339409.8594
 -21162175.20748 -16476386.46946  20808009.2894                   20808005.9304
 -12762759.71148  -9931185.71146  21808789.8754                   21808789.7424
 -10602941.63748  -8251570.29346  21708669.8204                   21708666.5084
  -4548973.68447  -3537619.78145  22798803.8054                   22798800.9734
   2153061.82847   1689215.36744  23698913.4144                   23698911.0784
   6860221.02746   5353045.21143  25051375.2814                   25051372.8914
 -24218658.04748 -18855385.49645  22081156.2274                   22081151.6764
 11  8 12  3 17  0.0000000  0  8G12G05G25G29G26G15G21G02
 -14874484.48847 -11576381.32445  22352931.1644                   22352928.3674
 -21123683.02048 -16446392.54347  20815333.9774                   20815330.7974
 -12742190.80948  -9915157.99646  21812704.3204                   21812704.2194
 -10688283.03548  -8318070.08246  21692429.9384                   21692427.3094
  -4648473.55947  -3615152.10245  22779869.3674                   22779867.6604
   2043523.25446   1603860.75844  23678068.7974                   23678066.2704
   6790100.34846   5298405.78543  25038031.2734                   25038028.1954
 -24186455.28548 -18830292.42245  22087284.3444                   22087279.1484
 11  8 12  3 17 30.0000000  0  8G12G05G25G29G26G15G21G02
 -14803161.50447 -11520804.96545  22366504.1484                   22366500.7774
 -21084761.74648 -16416064.26646  20822740.5314                   20822737.4614
 -12721093.86748  -9898718.79746  21816718.6954                   21816719.1174
 -10773400.05148  -8384395.02346  21676232.3204                   21676229.7464
  -4747693.58247  -3692466.32845  22760988.4224                   22760986.7234
   1934021.48847   1518534.80144  23657230.7114                   23657228.3364
   6720002.90246   5243784.50043  25024692.6414                   25024689.8984
 -24154140.27348 -18805111.87145  22093433.7274                   22093428.8484
 11  8 12  3 18  0.0000000  0  8G12G05G25G29G26G15G21G02
 -14731560.12547 -11465011.67245  22380129.2194                   22380126.1524
 -21045414.92248 -16385404.38746  20830228.0554                   20830224.4344
 -12699471.84848  -9881870.45346  21820833.2584                   21820833.2034
 -10858291.59848  -8450544.28546  21660078.5554                   21660075.3634
  -4846631.31647  -3769560.61345  22742160.7974                   22742159.0084
   1824558.27746   1433238.87544  23636400.6484                   23636398.4844
   6649926.96946   5189179.96542  25011357.4844                   25011354.5474
 -24121713.90648 -18779844.55945  22099604.3834                   22099599.3834
 11  8 12  3 18 30.0000000  0  8G12G05G25G29G26G15G21G02
 -14659683.62947 -11409003.98045  22393806.2584                   22393803.3324
 -21005644.73848 -16354414.61346  20837795.9384                   20837792.7194
 -12677326.74248  -9864614.52346  21825047.4924                   21825047.0594
 -10942955.51248  -8516516.14846  21643967.2424                   21643964.0664
  -4945283.18747  -3846432.13344  22723388.2034                   22723386.3914
   1715136.39146   1347975.16444  23615578.9304                   23615576.6954
   6579872.08646   5134591.83643  24998025.9304                   24998024.2934
 -24089176.11748 -18754490.44145  22105796.1414                   22105791.2464
 11  8 12  3 19  0.0000000  0  8G12G05G25G29G26G15G21G02
 -14587535.54347 -11352784.67245  22407535.7974                   22407533.0784
 -20965454.00048 -16323097.13746  20845444.1334                   20845440.4694
 -12654661.02048  -9846952.91446  21829360.7894                   21829360.4064
 -11027389.96548  -8582309.19546  21627900.0474                   21627897.0514
  -5043645.89147  -3923078.34045  22704670.8524                   22704668.3794
   1605758.35247   1262745.57444  23594764.6094                   23594762.5004
   6509837.23846   5080019.29343  24984698.7424                   24984697.2774
 -24056527.04748 -18729049.59845  22112008.9924                   22112003.8244
 11  8 12  3 19 30.0000000  0  8G12G05G25G29G26G15G21G02
 -14515119.28547 -11296356.39145  22421316.8054                   22421313.5664
 -20924845.57048 -16291454.19146  20853171.6644                   20853167.8674
 -12631476.87548  -9828887.36346  21833772.5864                   21833771.8324
 -11111592.77348  -8647921.73846  21611876.8284                   21611874.5004
  -5141716.00047  -3999496.53944  22686007.9304                   22686006.0864
   1496426.77047   1177552.20744  23573959.1954                   23573956.8244
   6439821.60546   5025461.73043  24971375.4534                   24971373.1684
 -24023767.14148 -18703522.39545  22118243.0164                   22118237.6254
 11  8 12  3 20  0.0000000  0  8G12G05G25G29G26G15G21G02
 -14442439.03947 -11239722.40645  22435146.4694                   22435144.0634
 -20883822.67648 -16259488.28946  20860977.9844                   20860974.6644
 -12607777.32448  -9810420.18046  21838282.4844                   21838281.7664
 -11195562.98048  -8713353.03146  21595897.5164                   21595895.0474
  -5239490.98447  -4075684.77345  22667402.1414                   22667399.8794
   1387143.63747   1092396.59044  23553163.5864                   23553161.0944
   6369823.41846   4970917.72743  24958055.7814                   24958053.4534
 -23990897.16848 -18677909.43045  22124498.1254                   22124492.5824
 11  8 12  3 20 30.0000000  0  8G12G05G25G29G26G15G21G02
 -14369497.68447 -11182884.97345  22449027.0084                   22449024.3834
 -20842387.48848 -16227201.10546  20868862.6334                   20868859.0434
 -12583564.17248  -9791552.80146  21842890.0164                   21842889.6024
 -11279298.18748  -8778601.19946  21579963.4924                   21579960.5164
  -5336966.89547  -4151639.96145  22648853.1414                   22648850.8554
   1277912.16447   1007281.21944  23532377.5704                   23532374.7974
   6299842.65646   4916387.34843  24944738.1174                   24944735.7934
 -23957916.62148 -18652210.30545  22130773.6804                   22130768.7304
 11  8 12  3 21  0.0000000  0  8G12G05G25G29G26G15G21G02
 -14296296.09047 -11125844.74645  22462957.0004                   22462954.1254
 -20800540.39148 -16194592.95346  20876825.8754                   20876822.5084
 -12558837.49648  -9772285.26646  21847595.5634                   21847595.0044
 -11362794.07848  -8843662.89146  21564075.1174                   21564071.4454
  -5434138.14847  -4227357.76245  22630361.7274                   22630360.0434
   1168737.05547    922209.76644  23511602.0084                   23511599.3324
   6229880.41846   4861871.30943  24931425.8364                   24931422.4694
 -23924823.07848 -18626423.13745  22137071.2274                   22137066.6484
 11  8 12  3 21 30.0000000  0  8G12G05G25G29G26G15G21G02
 -14222838.64147 -11068605.14845  22476935.3284                   22476932.5044
 -20758285.16448 -16161666.78946  20884866.6804                   20884863.4804
 -12533600.72348  -9752620.24646  21852397.7504                   21852397.2814
 -11446049.76648  -8908537.40646  21548231.5864                   21548228.4804
  -5531002.66847  -4302836.55144  22611929.2034                   22611927.1374
   1059619.91447    837183.48444  23490837.1884                   23490834.6724
   6159934.99646   4807368.42243  24918114.9144                   24918111.8594
 -23891618.57848 -18600549.52745  22143390.1804                   22143385.1914
 11  8 12  3 22  0.0000000  0  8G12G05G25G29G26G15G21G02
 -14149130.89547 -11011170.50045  22490961.1954                   22490958.7974
 -20715626.00048 -16128425.86746  20892984.2974                   20892981.3094
 -12507857.83648  -9732560.85946  21857296.5004                   21857295.9224
 -11529064.93448  -8973224.50046  21532434.1644                   21532431.2154
  -5627558.51647  -4378074.81245  22593555.3054                   22593553.3834
    950561.85247    752203.23844  23470084.0394                   23470081.6454
   6090003.73446   4752876.62543  24904806.5784                   24904804.2664
 -23858304.33248 -18574590.39845  22149729.7344                   22149724.6484
 11  8 12  3 22 30.0000000  0  8G12G05G25G29G26G15G21G02
 -14075173.40647 -10953541.26645  22505035.0164                   22505032.1804
 -20672563.37148 -16094870.55546  20901178.8914                   20901175.7234
 -12481608.70348  -9712107.01246  21862291.5784                   21862290.6054
 -11611835.00848  -9037720.61746  21516683.6564                   21516680.4804
  -5723799.89547  -4453068.04345  22575241.0554                   22575238.9144
    841567.74247    667272.85544  23449343.0004                   23449340.9024
   6020088.29746   4698397.15243  24891502.8984                   24891498.9884
 -23824878.10548 -18548544.00445  22156090.4224                   22156085.4694
 11  8 12  3 23  0.0000000  0  8G12G05G25G29G26G15G21G02
 -14000970.12147 -10895720.49645  22519155.2194                   22519152.8594
 -20629100.35948 -16061003.25446  20909449.6954                   20909446.5084
 -12454856.53548  -9691261.16446  21867382.3674                   21867381.5314
 -11694358.99648  -9102024.97346  21500979.7504                   21500976.8404
  -5819724.19147  -4527814.18445  22556987.5084                   22556984.9654
    732639.69947    582393.92244  23428614.9534                   23428612.3754
   5950187.35246   4643928.95343  24878200.6414                   24878198.1804
 -23791340.88748 -18522411.13745  22162472.5554                   22162467.3484
 11  8 12  3 23 30.0000000  0  8G12G05G25G29G26G15G21G02
 -13926524.07447 -10837710.57845  22533322.1644                   22533319.2074
 -20585239.56248 -16026825.99646  20917796.3984                   20917793.2544
 -12427603.11748  -9670024.73446  21872568.5704                   21872568.0234
 -11776634.44148  -9166135.66446  21485323.4224                   21485320.1294
  -5915327.48847  -4602310.20345  22538794.6884                   22538792.5434
    623781.02747    497569.06644  23407899.7424                   23407897.3404
   5880300.60946   4589471.86743  24864901.7424                   24864899.0234
 -23757692.04348 -18496191.28945  22168875.6724                   22168870.4734
 11  8 12  3 24  0.0000000  0  8G12G05G25G29G26G15G21G02
 -13851838.23847 -10779513.79745  22547534.4694                   22547530.9064
 -20540983.34448 -15992340.60946  20926217.5164                   20926214.8014
 -12399851.12148  -9648399.80546  21877849.4844                   21877849.1764
 -11858659.20748  -9230051.03146  21469714.5944                   21469711.7734
  -6010606.64847  -4676553.65245  22520663.2894                   22520661.1294
    514994.16847    412800.16444  23387197.7114                   23387195.7034
   5810426.76646   4535024.81343  24851604.9064                   24851601.6334
 -23723931.85248 -18469884.66845  22175299.9384                   22175295.0084
 11  8 12  3 24 30.0000000  0  8G12G05G25G29G26G15G21G02
 -13776916.17247 -10721132.94945  22561791.1724                   22561788.3874
 -20496333.71148 -15957548.68746  20934714.4694                   20934711.2034
 -12371602.01248  -9626387.51246  21883225.2344                   21883224.4344
 -11940430.17648  -9293768.63746  21454154.0234                   21454150.9414
  -6105557.30147  -4750541.09845  22502594.7814                   22502592.7304
    406282.80147    328090.08244  23366510.6414                   23366508.7544
   5740565.82446   4480587.81343  24838310.3674                   24838307.5124
 -23690059.60948 -18443490.73845  22181745.4614                   22181740.4304
 11  8 12  3 25  0.0000000  0  8G12G05G25G29G26G15G21G02
 -13701760.72347 -10662570.24645  22576092.6334                   22576090.1094
 -20451293.26248 -15922452.22346  20943285.3134                   20943282.3204
 -12342858.21948  -9603989.73846  21888694.9534                   21888694.2774
 -12021945.89148  -9357287.34046  21438641.7664                   21438638.8404
  -6200176.03947  -4824269.93045  22484589.4534                   22484586.9614
    297649.64547    243440.94144  23345838.4614                   23345836.2034
   5670717.18846   4426160.39543  24825018.7584                   24825016.1294
 -23656075.20747 -18417009.41045  22188212.0704                   22188207.4614
 11  8 12  3 25 30.0000000  0  8G12G05G25G29G26G15G21G02
 -13626375.52747 -10603828.52345  22590438.0314                   22590435.6484
 -20405864.84448 -15887053.44146  20951930.2814                   20951926.3244
 -12313622.65248  -9581208.77346  21894258.1334                   21894257.9304
 -12103204.40248  -9420605.63346  21423179.0554                   21423175.8714
  -6294459.93447  -4897737.81645  22466647.8284                   22466645.4884
    189097.04747    158854.56644  23325181.9694                   23325179.2344
   5600879.75046   4371741.67643  24811729.5554                   24811727.1374
 -23621979.23048 -18390441.13745  22194700.7424                   22194695.2074
 11  8 12  3 26  0.0000000  0  8G12G05G25G29G26G15G21G02
 -13550763.08647 -10544909.70745  22604826.5394                   22604823.8834
 -20360050.52348 -15851353.96546  20960648.3284                   20960644.7344
 -12283896.87948  -9558045.82046  21899914.6094                   21899914.5044
 -12184202.52748  -9483721.03146  21407765.3524                   21407762.3444
  -6388404.89547  -4970941.60545  22448770.9384                   22448768.2664
     80628.43447     74333.63745  23304540.9614                   23304538.4924
   5531053.43446   4317331.64143  24798441.6254                   24798439.2664
 -23587770.75447 -18363785.21145  22201210.3834                   22201205.4494
 11  8 12  3 26 30.0000000  0  8G12G05G25G29G26G15G21G02
 -13474926.45747 -10485816.21145  22619258.1414                   22619254.6484
 -20313852.94148 -15815355.84046  20969439.6334                   20969435.9844
 -12253683.18048  -9534502.65646  21905664.3524                   21905663.9024
 -12264938.23848  -9546631.94546  21392401.8204                   21392399.0704
  -6482007.21947  -5043878.41445  22430958.6334                   22430956.5744
    -27753.26647    -10119.59444  23283916.3834                   23283914.1214
   5461237.84046   4262929.97343  24785156.4454                   24785154.2424
 -23553449.64547 -18337041.50845  22207741.6804                   22207736.9344
 11  8 12  3 27  0.0000000  0  8G12G05G25G29G26G15G21G02
 -13398868.30547 -10426550.09845  22633731.5704                   22633728.1094
 -20267273.72348 -15779060.32846  20978302.9304                   20978299.8754
 -12222983.21148  -9510580.59446  21911506.4694                   21911505.8444
 -12345408.81648  -9609336.26646  21377089.0004                   21377085.5084
  -6575262.65647  -5116544.91845  22413212.5784                   22413210.3324
   -136044.26247    -94502.11345  23263309.5784                   23263306.8284
   5391432.81646   4208536.53543  24771872.2974                   24771870.1604
 -23519014.93048 -18310209.27345  22214294.3914                   22214289.0784
 11  8 12  3 27 30.0000000  0  8G12G05G25G29G26G15G21G02
 -13322591.94147 -10367113.94945  22648246.2034                   22648242.8594
 -20220315.96548 -15742469.85946  20987239.2974                   20987235.8094
 -12191800.09448  -9486282.05146  21917440.4774                   21917439.8244
 -12425612.71548  -9671832.78546  21361826.6724                   21361823.6724
  -6668168.34047  -5188938.87945  22395533.5784                   22395531.1564
   -244242.19547   -178812.13745  23242720.3754                   23242717.3874
   5321637.32846   4154150.49643  24758590.9144                   24758588.0474
 -23484467.64548 -18283289.30945  22220868.2424                   22220863.2934
 11  8 12  3 28  0.0000000  0  8G12G05G25G29G26G15G21G02
 -13246102.20347 -10307511.54345  22662802.1484                   22662799.0514
 -20172983.01648 -15705587.03146  20996246.2894                   20996242.5274
 -12160136.88748  -9461609.41446  21923465.5084                   21923465.5354
 -12505548.20748  -9734120.16046  21346615.4454                   21346611.8324
  -6760721.47347  -5261058.14145  22377921.0084                   22377918.8484
   -352345.12147   -263048.10244  23222148.2584                   23222146.4844
   5251849.94546   4099770.78143  24745310.7114                   24745308.1994
 -23449808.04348 -18256281.83245  22227463.8134                   22227458.8364
 11  8 12  3 28 30.0000000  0  8G12G05G25G29G26G15G21G02
 -13169401.89847 -10247745.05545  22677397.2274                   22677394.3244
 -20125277.12148 -15668413.60546  21005324.2114                   21005321.0984
 -12127995.77748  -9436564.37546  21929581.5394                   21929581.3834
 -12585212.86748  -9796196.50846  21331455.5164                   21331452.5354
  -6852918.40647  -5332899.85545  22360376.8054                   22360373.8674
   -460349.83647   -347207.52744  23201596.0314                   23201593.1804
   5182070.06646   4045396.92643  24732032.3984                   24732029.9924
 -23415035.78548 -18229186.57445  22234080.9224                   22234076.0984
 11  8 12  3 29  0.0000000  0  8G12G05G25G29G26G15G21G02
 -13092492.25847 -10187815.44545  22692032.8364                   22692030.3404
 -20077199.18748 -15630950.27746  21014473.1484                   21014469.5434
 -12095377.32048  -9411147.39146  21935788.7424                   21935788.6564
 -12664603.07848  -9858058.99646  21316348.1334                   21316344.8554
  -6944753.84047  -5404459.88345  22342900.6174                   22342898.1764
   -568251.54747   -431286.69944  23181062.7114                   23181059.9104
   5112299.06646   3991030.00443  24718755.7424                   24718752.9384
 -23380149.01247 -18202002.06645  22240719.6724                   22240714.6134
 11  8 12  3 29 30.0000000  0  8G12G05G25G29G26G15G21G02
 -13015373.96147 -10127723.26245  22706707.7974                   22706705.3754
 -20028749.13347 -15593196.98846  21023692.8984                   21023689.3404
 -12062281.57448  -9385358.47746  21942086.6334                   21942086.4104
 -12743714.07848  -9919703.90246  21301293.7894                   21301290.6174
  -7036221.80547  -5475733.56645  22325495.0634                   22325492.6604
   -676044.91447   -515281.43444  23160549.9224                   23160547.8754
   5042538.84446   3936671.49243  24705480.3524                   24705478.1374
 -23345145.06647 -18174726.26645  22247380.5944                   22247375.7894
 11  8 12  3 30  0.0000000  0  8G12G05G25G29G26G15G21G02
 -12938052.68747 -10067472.92645  22721421.6564                   22721419.3754
 -19979932.10248 -15555157.75046  21032982.4224                   21032979.3914
 -12028713.52748  -9359201.53946  21948474.6414                   21948474.0314
 -12822546.04748  -9981131.39146  21286292.6564                   21286289.0664
  -7127321.25447  -5546720.11345  22308159.2274                   22308156.7774
   -783729.68447   -599191.55144  23140058.2894                   23140055.9574
   4972785.99246   3882318.70743  24692206.6724                   24692203.9304
 -23310026.57847 -18147361.21145  22254063.2034                   22254058.3954
 11  8 12  3 30 30.0000000  0  8G12G05G25G29G26G15G21G02
 -12860533.12947 -10007068.07445  22736173.0944                   22736170.2304
 -19930752.36348 -15516835.87546  21042340.7894                   21042337.4694
 -11994677.23448  -9332679.74246  21954951.6884                   21954951.0084
 -12901098.12148 -10042340.77746  21271344.7274                   21271341.5434
  -7218050.34047  -5617418.06245  22290893.9534                   22290891.3594
   -891304.30947   -683015.85244  23119588.1414                   23119584.8054
   4903038.48846   3827970.09443  24678934.0164                   24678931.0474
 -23274794.69948 -18119907.78545  22260767.2664                   22260762.9964
 11  8 12  3 31  0.0000000  0  8G12G05G25G29G26G15G21G02
 -12782818.96947  -9946511.57445  22750961.7814                   22750958.9964
 -19881212.64148 -15478233.50846  21051768.0314                   21051764.3714
 -11960175.51648  -9305795.27046  21961516.8674                   21961516.2464
 -12979368.55948 -10103330.71946  21256450.1724                   21256447.0204
  -7308405.97747  -5687825.02045  22273700.0234                   22273697.3134
   -998766.21547   -766752.31244  23099137.7814                   23099134.9924
   4833295.26646   3773624.85543  24665662.4384                   24665658.9804
 -23239449.53548 -18092366.09845  22267493.9774                   22267488.5824
 11  8 12  3 31 30.0000000  0  8G12G05G25G29G26G15G21G02
 -12704912.57447  -9885805.28145  22765787.0314                   22765783.8554
 -19831314.91448 -15439352.16446  21061263.4454                   21061260.1334
 -11925210.12148  -9278549.50046  21968170.2734                   21968169.5394
 -13057354.52348 -10164098.97746  21241610.1804                   21241606.8914
  -7398383.77347  -5757937.53945  22256578.0704                   22256575.4024
  -1106111.93447   -850398.22744  23078711.1884                   23078708.2814
   4763556.59446   3719283.14843  24652391.2424                   24652389.1024
 -23203990.42647 -18064735.62145  22274241.5634                   22274236.6564
 11  8 12  3 32  0.0000000  0  8G12G05G25G29G26G15G21G02
 -12626816.36747  -9824951.07845  22780648.0474                   22780645.1604
 -19781060.56248 -15400192.93046  21070826.1414                   21070822.9024
 -11889782.64848  -9250943.65246  21974912.4534                   21974911.8554
 -13135052.89848 -10224643.13346  21226824.3444                   21226821.1764
  -7487979.45747  -5827752.32445  22239527.6564                   22239525.9694
  -1213337.56247   -933950.58645  23058306.4924                   23058303.6954
   4693822.86746   3664945.29743  24639121.7974                   24639118.7234
 -23168416.35247 -18037015.55145  22281010.4144                   22281005.3404
 11  8 12  3 32 30.0000000  0  8G12G05G25G29G26G15G21G02
 -12548534.00447  -9763951.82445  22795544.7424                   22795541.8484
 -19730453.05548 -15360758.50046  21080456.6724                   21080453.2974
 -11853896.20748  -9222980.16846  21981741.1094                   21981740.4774
 -13212462.01248 -10284961.89846  21212093.8984                   21212089.9844
  -7577190.19947  -5897267.15245  22222551.8364                   22222549.2934
  -1320440.37147  -1017407.21945  23037925.5394                   23037922.6994
   4624092.77146   3610610.26143  24625850.9384                   24625848.9964
 -23132727.52047 -18009206.07045  22287802.0784                   22287797.0744
 11  8 12  3 33  0.0000000  0  8G12G05G25G29G26G15G21G02
 -12470069.11347  -9702810.34845  22810476.1564                   22810473.2974
 -19679494.80548 -15321050.77746  21090153.7504                   21090150.2034
 -11817553.53948  -9194661.18446  21988656.8054                   21988656.3524
 -13289579.45748 -10345053.37946  21197418.9144                   21197415.7814
  -7666012.55547  -5966479.33245  22205649.2424                   22205647.3984
  -1427417.86347  -1100766.22345  23017568.6334                   23017566.0204
   4554365.64846   3556277.54743  24612582.2814                   24612580.1604
 -23096923.95348 -17981307.18745  22294615.8054                   22294610.6564
 11  8 12  3 33 30.0000000  0  8G12G05G25G29G26G15G21G02
 -12391424.27347  -9641528.65645  22825441.8364                   22825438.4614
 -19628188.16848 -15281071.57846  21099916.7974                   21099913.3284
 -11780756.94148  -9165988.48846  21995658.7814                   21995658.2194
 -13366403.12948 -10404915.94546  21182799.9774                   21182796.6884
  -7754442.82047  -6035386.00445  22188821.7894                   22188819.0594
  -1534266.66447  -1184024.93745  22997235.9614                   22997233.1844
   4484640.94946   3501946.72343  24599314.6254                   24599312.0824
 -23061005.22748 -17953318.56245  22301450.5314                   22301445.3874
 11  8 12  3 34  0.0000000  0  8G12G05G25G29G26G15G21G02
 -12312601.82847  -9580108.56645  22840441.1024                   22840438.0204
 -19576534.69948 -15240822.11746  21109746.1414                   21109742.8954
 -11743507.91048  -9136963.25846  22002747.1564                   22002746.7114
 -13442929.60948 -10464546.93446  21168237.0944                   21168233.4104
  -7842476.51247  -6103983.64845  22172069.4454                   22172067.1804
  -1640982.96947  -1267180.41845  22976928.4144                   22976925.6994
   4414919.39546   3447618.34443  24586048.0234                   24586044.8324
 -23024969.96547 -17925239.13745  22308307.9534                   22308302.9384
 11  8 12  3 34 30.0000000  0  8G12G05G25G29G26G15G21G02
 -12233605.22747  -9518552.75845  22855473.4304                   22855470.7154
 -19524537.22748 -15200304.60546  21119640.9384                   21119637.9844
 -11705809.44948  -9107587.82446  22009920.5864                   22009920.3874
 -13519157.08248 -10523944.92646  21153731.6334                   21153728.2774
  -7930110.57447  -6172269.88745  22155392.9304                   22155390.6374
  -1747564.15647  -1350230.60945  22956646.7034                   22956643.6294
   4345200.04746   3393291.71943  24572779.1414                   24572777.2504
 -22988818.67647 -17897069.31645  22315187.4064                   22315182.4844
 11  8 12  3 35  0.0000000  0  8G12G05G25G29G26G15G21G02
 -12154439.37147  -9456865.07045  22870538.3524                   22870535.6054
 -19472199.94148 -15159522.29346  21129600.4144                   21129597.0164
 -11667665.63748  -9077865.36346  22017179.3984                   22017178.9144
 -13595084.58248 -10583109.17246  21139283.2504                   21139279.7464
  -8017343.12147  -6240243.26245  22138793.6644                   22138790.9064
  -1854008.53947  -1433174.20345  22936391.0084                   22936388.0944
   4275480.52046   3338964.96543  24559512.7424                   24559509.9414
 -22952552.46947 -17868809.93745  22322088.1484                   22322083.1644
 11  8 12  3 35 30.0000000  0  8G12G05G25G29G26G15G21G02
 -12075105.94147  -9395046.81245  22885634.9304                   22885632.2814
 -19419523.98048 -15118476.07446  21139624.4694                   21139621.1564
 -11629077.85948  -9047796.94946  22024522.8754                   22024521.9184
 -13670708.96948 -10642037.22746  21124892.2894                   21124888.8094
  -8104169.47747  -6307900.12945  22122270.8594                   22122268.3284
  -1960311.99647  -1516007.99245  22916161.7194                   22916158.9964
   4205761.87946   3284638.83643  24546245.6334                   24546242.3134
 -22916170.04747 -17840460.01645  22329011.7114                   22329006.8324
 11  8 12  3 36  0.0000000  0  9G12G18G05G25G29G26G15G21G02
 -11995608.54747  -9333100.77345  22900762.3754                   22900759.8594
   7728361.04756   6033196.71953  24616041.1254                   24616036.8524
 -19366512.37548 -15077168.31246  21149712.6024                   21149708.7424
 -11590049.09448  -9017384.91446  22031949.4844                   22031949.0044
 -13746028.10948 -10700727.43446  21110559.6334                   21110556.0664
  -8190586.48448  -6375238.01245  22105826.1884                   22105823.6524
  -2066471.68747  -1598729.75445  22895959.5704                   22895957.3874
   4136043.01246   3230312.58243  24532977.9694                   24532974.8134
 -22879671.50847 -17812019.62145  22335957.1484                   22335952.5084
 11  8 12  3 36 30.0000000  0  9G12G18G05G25G29G26G15G21G02
 -11915952.26247  -9271030.93445  22915920.4224                   22915917.8674
   7626723.68846   5953998.82442  24596699.5474                   24596695.4964
 -19313169.79748 -15035602.65246  21159862.8284                   21159859.3874
 -11550583.92648  -8986632.83646  22039459.6954                   22039459.0784
 -13821041.98448 -10759179.78146  21096285.0314                   21096281.5784
  -8276592.59847  -6442255.71545  22089459.7504                   22089456.9774
  -2172486.98847  -1681339.00445  22875785.6564                   22875783.2384
   4066321.34046   3175984.07443  24519711.3524                   24519707.5204
 -22843058.57447 -17783490.08645  22342924.7344                   22342920.0354
 11  8 12  3 37  0.0000000  0  9G12G18G05G25G29G26G15G21G02
 -11836142.38347  -9208841.41445  22931107.7664                   22931105.1994
   7525257.34546   5874934.18943  24577391.3984                   24577387.1804
 -19259500.80948 -14993782.64846  21170075.4614                   21170072.4024
 -11510687.06248  -8955544.36346  22047051.4924                   22047050.9264
 -13895750.09048 -10817393.85546  21082068.2974                   21082064.8594
  -8362186.56647  -6508952.27345  22073171.7274                   22073169.1134
  -2278356.78947  -1763834.88745  22855639.3674                   22855636.3014
   3996594.61746   3121651.62943  24506442.4774                   24506439.2304
 -22806332.77347 -17754872.59445  22349913.0784                   22349908.0004
 11  8 12  3 37 30.0000000  0  9G12G18G05G25G29G26G15G21G02
 -11756183.70347  -9146535.95745  22946323.4454                   22946321.0594
   7423961.58246   5796002.52343  24558115.2894                   24558111.7344
 -19205509.52748 -14951711.50446  21180350.1094                   21180346.5394
 -11470362.83648  -8924122.89546  22054725.0234                   22054724.4414
 -13970152.02048 -10875369.35246  21067909.9614                   21067906.8674
  -8447366.53547  -6575326.24645  22056962.0004                   22056959.8554
  -2384079.60247  -1846216.25045  22835521.0784                   22835518.2194
   3926860.24246   3067313.27743  24493172.5084                   24493169.3164
 -22769495.68747 -17726168.39545  22356923.0634                   22356918.1254
 11  8 12  3 38  0.0000000  0  9G12G18G05G25G29G26G15G21G02
 -11676077.55947  -9084115.59445  22961567.6724                   22961564.4104
   7322838.88346   5717205.71843  24538872.4454                   24538869.0234
 -19151196.69948 -14909389.80546  21190685.3594                   21190682.0594
 -11429612.25848  -8892369.18746  22062479.2974                   22062478.9534
 -14044243.66448 -10933103.07046  21053810.7894                   21053807.5204
  -8532127.62547  -6641373.81645  22040833.1094                   22040830.3634
  -2489650.87547  -1928479.50845  22815431.4844                   22815428.8594
   3857119.27746   3012969.73843  24479901.3204                   24479897.4574
 -22732545.70347 -17697376.22345  22363954.4144                   22363949.5474
 11  8 12  3 38 30.0000000  0  9G12G18G05G25G29G26G15G21G02
 -11595825.66847  -9021581.66045  22976838.8674                   22976836.2584
   7221892.38346   5638546.16443  24519663.6484                   24519659.4734
 -19096563.21948 -14866818.25446  21201081.6884                   21201078.2854
 -11388436.29748  -8860284.01246  22070315.3674                   22070314.9844
 -14118020.96548 -10990591.84846  21039771.4844                   21039768.0004
  -8616464.52047  -6707090.85245  22024784.2034                   22024781.2034
  -2595065.75847  -2010620.91845  22795372.0554                   22795368.9104
   3787373.19946   2958622.20743  24466627.9384                   24466625.4344
 -22695480.66447 -17668494.39545  22371007.9144                   22371002.6604
 11  8 12  3 39  0.0000000  0  9G12G18G05G25G29G26G15G21G02
 -11515432.60547  -8958937.70745  22992136.6254                   22992134.1094
   7121122.04346   5560023.89843  24500487.2814                   24500482.4184
 -19041613.14848 -14824000.00446  21211538.5314                   21211535.4414
 -11346838.79348  -8827870.37946  22078231.1174                   22078230.3674
 -14191483.43448 -11047835.30946  21025792.1884                   21025789.2074
  -8700375.02747  -6772475.62545  22008816.1804                   22008814.0394
  -2700322.52747  -2092639.14845  22775341.7584                   22775339.1914
   3717620.03546   2904269.17243  24453355.5554                   24453352.0314
 -22658301.61347 -17639523.72345  22378083.1564                   22378078.0634
 11  8 12  3 39 30.0000000  0  9G12G18G05G25G29G26G15G21G02
 -11434901.01247  -8896185.85245  23007461.8284                   23007458.9224
   7020529.28546   5481640.07443  24481344.4924                   24481340.4104
 -18986348.84048 -14780936.88346  21222054.7584                   21222051.6454
 -11304822.65648  -8795130.52346  22086226.0704                   22086225.6334
 -14264628.55548 -11104831.48446  21011873.1724                   21011869.8204
  -8783856.00848  -6837525.70345  21992930.6724                   21992928.0354
  -2805418.16847  -2174531.80945  22755343.3364                   22755340.2544
   3647859.63746   2849910.50043  24440079.8204                   24440076.6134
 -22621008.51647 -17610464.18745  22385179.4924                   22385174.5164
 11  8 12  3 40  0.0000000  0  9G12G18G05G25G29G26G15G21G02
 -11354232.31647  -8833327.13745  23022812.8284                   23022809.4224
   6920116.60246   5403396.48043  24462236.9614                   24462232.8754
 -18930770.85248 -14737629.34046  21232630.7424                   21232627.6764
 -11262388.54348  -8762064.97346  22094300.9144                   22094300.5904
 -14337452.01248 -11161577.03146  20998015.3054                   20998011.9454
  -8866902.03548  -6902236.85545  21977127.5164                   21977124.7704
  -2910347.72747  -2256295.05145  22735375.5704                   22735372.0004
   3578093.11346   2795547.08643  24426804.1254                   24426801.2734
 -22583598.81247 -17581313.77345  22392298.3594                   22392293.1374
 11  8 12  3 40 30.0000000  0  9G12G18G05G25G29G26G15G21G02
 -11273430.92647  -8770365.00445  23038188.3444                   23038185.3244
   6819884.30945   5325293.46543  24443162.6414                   24443159.2584
 -18874882.74648 -14694080.15246  21243266.1724                   21243262.6374
 -11219540.24648  -8728676.68446  22102454.8834                   22102454.2974
 -14409952.44548 -11218070.85946  20984218.8594                   20984215.1334
  -8949510.77748  -6966607.26245  21961407.1724                   21961404.9224
  -3015109.32047  -2337927.40645  22715439.6804                   22715437.0394
   3508318.96146   2741177.69543  24413526.1334                   24413523.8134
 -22546073.35947 -17552073.18745  22399439.2344                   22399434.0434
 11  8 12  3 41  0.0000000  0  9G12G18G05G25G29G26G15G21G02
 -11192498.48847  -8707300.75445  23053589.4384                   23053586.8794
   6719834.79746   5247332.85243  24424124.1334                   24424120.5704
 -18818685.97348 -14650290.44546  21253960.2344                   21253956.7584
 -11176279.50048  -8694967.00046  22110686.6884                   22110686.4774
 -14482126.27748 -11274310.19546  20970484.6414                   20970480.8834
  -9031677.74248  -7030633.42645  21945771.4844                   21945769.0084
  -3119698.64847  -2419425.53145  22695537.2114                   22695534.4384
   3438537.84046   2686802.90244  24400246.7584                   24400244.2624
 -22508431.01247 -17522741.48045  22406602.0704                   22406597.3364
 11  8 12  3 41 30.0000000  0  9G12G18G05G25G29G26G15G21G02
 -11111439.13347  -8644137.63345  23069015.2034                   23069011.8364
   6619968.15246   5169514.72743  24405120.2814                   24405117.1764
 -18762184.11748 -14606263.00846  21264712.2274                   21264708.6684
 -11132609.77748  -8660938.62546  22118997.2424                   22118996.3554
 -14553972.77348 -11330294.46946  20956812.3834                   20956809.1844
  -9113400.43047  -7094313.41045  21930220.1954                   21930218.0704
  -3224113.64847  -2500787.82045  22675668.0234                   22675664.6954
   3368748.30947   2632421.53943  24386966.6954                   24386963.9534
 -22470672.19947 -17493319.03145  22413787.3444                   22413782.7544
 11  8 12  3 42  0.0000000  0  9G12G18G05G25G29G26G15G21G02
 -11030255.69147  -8580877.80545  23084463.7034                   23084460.0124
   6520286.10546   5091840.49243  24386151.6174                   24386148.0704
 -18705379.27748 -14561999.48046  21275521.5314                   21275517.6994
 -11088533.66848  -8626593.60546  22127384.5944                   22127383.6804
 -14625489.27048 -11386021.59446  20943203.3204                   20943199.7704
  -9194675.20347  -7157644.35545  21914753.7034                   21914751.5274
  -3328351.00447  -2582011.67645  22655832.7274                   22655829.0984
   3298950.02347   2578033.35544  24373684.5474                   24373681.3594
 -22432796.44947 -17463805.47745  22420995.0164                   22420990.1564
 11  8 12  3 42 30.0000000  0  9G12G18G05G25G29G26G15G21G02
 -10948951.40647  -8517523.80945  23099935.1644                   23099931.8134
   6420789.76246   5014310.99643  24367217.1954                   24367214.6294
 -18648274.12948 -14517501.96146  21286388.5474                   21286384.9654
 -11044053.96148  -8591934.09446  22135848.7424                   22135848.3524
 -14696673.46148 -11441489.78146  20929658.0474                   20929654.0704
  -9275498.92647  -7220623.83245  21899373.6094                   21899371.2624
  -3432407.73447  -2663094.78545  22636030.3524                   22636027.6334
   3229142.55946   2523637.98443  24360399.7974                   24360397.6254
 -22394803.44547 -17434200.53945  22428224.5634                   22428219.8874
 11  8 12  3 43  0.0000000  0  9G12G18G05G25G29G26G15G21G02
 -10867528.51647  -8454077.41044  23115429.1174                   23115425.1214
   6321481.02046   4936927.66043  24348320.1024                   24348317.3714
 -18590870.09048 -14472771.52346  21297312.2894                   21297308.3324
 -10999172.45748  -8556961.48046  22144389.6024                   22144388.7544
 -14767522.04748 -11496696.44946  20916175.5164                   20916171.8954
  -9355867.16847  -7283248.39845  21884080.0314                   21884078.0394
  -3536279.80147  -2744033.99245  22616264.2664                   22616261.6604
   3159326.45346   2469235.91843  24347114.7034                   24347111.7114
 -22356691.94947 -17404503.27345  22435477.4224                   22435472.2584
 11  8 12  3 43 30.0000000  0  9G12G18G05G25G29G26G15G21G02
 -10785989.49247  -8390540.49244  23130945.8984                   23130942.2934
   6222361.57046   4859691.78543  24329458.1954                   24329454.5664
 -18533169.31248 -14427809.86746  21308291.8984                   21308288.4614
 -10953891.60948  -8521677.69146  22153005.7584                   22153005.4654
 -14838032.26648 -11551639.46146  20902757.9694                   20902754.3524
  -9435776.19547  -7345515.14145  21868873.7734                   21868871.0274
  -3639963.75447  -2824826.62945  22596533.9774                   22596531.0044
   3089501.79346   2414827.17243  24333827.2344                   24333824.0164
 -22318461.42247 -17374713.25445  22442752.4694                   22442747.3134
 11  8 12  3 44  0.0000000  0  9G12G18G05G25G29G26G15G21G02
 -10704338.00047  -8326915.93445  23146483.4694                   23146479.7774
   6123432.04346   4782603.90643  24310632.4694                   24310628.8324
 -18475174.78148 -14382619.32846  21319327.7974                   21319324.3914
 -10908214.50447  -8486085.12946  22161698.3524                   22161697.5664
 -14908202.23848 -11606317.34846  20889404.8674                   20889401.3484
  -9515223.27348  -7407421.91845  21853756.0234                   21853753.1884
  -3743456.63347  -2905470.35945  22576839.6414                   22576836.9064
   3019667.50846   2360410.93043  24320537.7194                   24320536.0434
 -22280111.66047 -17344830.33645  22450049.6884                   22450045.0124
 11  8 12  3 44 30.0000000  0  9G12G18G05G25G29G26G15G21G02
 -10622576.41447  -8263205.59844  23162042.1414                   23162039.1134
   6024694.36346   4705665.54743  24291843.3134                   24291838.7704
 -18416888.31648 -14337201.30546  21330419.6644                   21330416.1564
 -10862143.40647  -8450185.56646  22170464.9694                   22170464.5824
 -14978029.16448 -11660727.91446  20876117.2274                   20876114.2734
  -9594204.34048  -7468965.57845  21838726.0784                   21838723.7034
  -3846754.98047  -2985962.51245  22557182.5474                   22557179.7234
   2949823.87546   2305987.43043  24307247.2274                   24307244.2854
 -22241641.81247 -17314853.82845  22457370.2194                   22457365.9304
 11  8 12  3 45  0.0000000  0  9G12G18G05G25G29G26G15G21G02
 -10540708.64847  -8199412.53145  23177621.0164                   23177617.8914
   5926148.68846   4628876.77043  24273090.6334                   24273086.3404
 -18358313.16448 -14291558.32846  21341565.9224                   21341562.6054
 -10815681.89147  -8413981.77746  22179306.5314                   22179305.5084
 -15047511.73848 -11714870.15646  20862894.8834                   20862891.4924
  -9672716.87148  -7530144.13345  21823785.6724                   21823783.0984
  -3949856.72347  -3066301.46945  22537563.4304                   22537560.0594
   2879969.82046   2251555.80143  24293954.7974                   24293951.5044
 -22203052.41448 -17284784.17245  22464713.9304                   22464708.8674
 11  8 12  3 45 30.0000000  0  9G12G18G05G25G29G26G15G21G02
 -10458736.92247  -8135538.47345  23193219.7274                   23193216.6294
   5827796.94146   4552239.09443  24254374.5474                   24254371.3364
 -18299451.08648 -14245691.77746  21352767.2504                   21352763.3134
 -10768831.93047  -8377475.31246  22188222.0784                   22188221.1094
 -15116646.60548 -11768741.46146  20849739.2734                   20849735.6604
  -9750756.78547  -7590954.42645  21808935.0394                   21808932.2934
  -4052757.53547  -3146483.86745  22517981.6804                   22517978.8874
   2810104.96546   2197115.73443  24280659.3284                   24280656.0164
 -22164342.44547 -17254620.56645  22472080.0704                   22472075.2424
 11  8 12  3 46  0.0000000  0  9G12G18G05G25G29G26G15G21G02
 -10376664.97747  -8071586.30544  23208837.4384                   23208834.1884
   5729639.57846   4475752.92643  24235695.7974                   24235692.5274
 -18240305.37948 -14199604.21146  21364022.1724                   21364018.5784
 -10721597.11747  -8340668.94946  22197210.1484                   22197209.6524
 -15185432.23048 -11822340.62146  20836649.5554                   20836646.5944
  -9828321.53147  -7651394.45745  21794174.9454                   21794172.7734
  -4155455.28947  -3226508.05145  22498438.5634                   22498436.0004
   2740229.03546   2142667.02343  24267362.7344                   24267358.5944
 -22125512.28947 -17224363.30945  22479468.4774                   22479464.2704
 11  8 12  3 46 30.0000000  0  9G12G18G05G25G29G26G15G21G02
 -10294494.59447  -8007557.43444  23224474.0164                   23224470.4734
   5631679.00445   4399420.08643  24217054.0554                   24217050.4184
 -18180876.80548 -14153296.23046  21375331.0704                   21375327.7854
 -10673978.87547  -8303563.83246  22206271.6724                   22206271.0474
 -15253864.63348 -11875664.54346  20823627.3204                   20823624.0944
  -9905406.48448  -7711460.60945  21779506.1644                   21779503.8984
  -4257945.67247  -3306370.64145  22478935.6094                   22478932.3554
   2670342.58646   2088210.13343  24254064.0164                   24254060.3914
 -22086560.25447 -17194011.09045  22486881.3054                   22486876.7234
 11  8 12  3 47  0.0000000  0  9G12G18G05G25G29G26G15G21G02
 -10212229.02747  -7943454.41044  23240128.9924                   23240125.5824
   5533916.18045   4323241.29743  24198449.8754                   24198446.9774
 -18121168.52348 -14106770.30546  21386693.2424                   21386689.3634
 -10625980.31247  -8266162.35545  22215405.0634                   22215404.8714
 -15321942.16848 -11928711.94946  20810672.8594                   20810669.4454
  -9982008.48848  -7771150.45345  21764929.2194                   21764926.8134
  -4360225.68047  -3386069.30545  22459472.2894                   22459469.1804
   2600445.08646   2033744.62943  24240762.8204                   24240759.2304
 -22047486.14147 -17163563.75045  22494316.9224                   22494312.7504
 11  8 12  3 47 30.0000000  0  9G12G18G05G25G29G26G15G21G02
 -10129872.19147  -7879280.25444  23255800.2974                   23255797.2424
   5436351.68446   4247217.05143  24179884.7114                   24179881.0744
 -18061183.69148 -14060028.87546  21398107.7584                   21398104.4384
 -10577605.04747  -8228467.34846  22224611.2584                   22224610.1724
 -15389663.29748 -11981481.62946  20797785.7974                   20797782.2734
 -10058125.24647  -7830462.18045  21750444.6804                   21750441.9224
  -4462292.95747  -3465602.20345  22440049.4064                   22440046.4774
   2530535.46946   1979269.68443  24227458.8054                   24227455.9734
 -22008290.28147 -17133021.53145  22501775.7194                   22501770.9734
 11  8 12  3 48  0.0000000  0  9G12G18G05G25G29G26G15G21G02
 -10047428.00847  -7815038.03545  23271489.2504                   23271485.8244
   5338985.36746   4171347.24243  24161356.6644                   24161352.4304
 -18000925.48048 -14013074.42646  21409574.8594                   21409571.2274
 -10528856.76247  -8190481.66445  22233887.4694                   22233886.7384
 -15457026.70348 -12033972.58246  20784966.9614                   20784963.7424
 -10133754.31648  -7889393.88745  21736053.1484                   21736050.3284
  -4564145.30547  -3544967.63745  22420667.5084                   22420664.1294
   2460612.62946   1924784.44143  24214152.9534                   24214149.0864
 -21968973.37947 -17102385.00445  22509257.5704                   22509253.0474
 11  8 12  3 48 30.0000000  0  9G12G18G05G25G29G26G15G21G02
  -9964897.84047  -7750728.78944  23287194.3594                   23287190.6994
   5241819.99246   4095633.97343  24142866.8984                   24142861.8204
 -17940394.80548 -13965907.66846  21421093.4224                   21421089.7274
 -10479736.78947  -8152206.35945  22243234.4774                   22243234.1174
 -15524028.39548 -12086181.66446  20772217.0634                   20772213.6914
 -10208891.02048  -7947941.93445  21721755.0004                   21721751.8014
  -4665778.14147  -3624162.01645  22401327.3594                   22401324.1914
   2390677.22346   1870289.39843  24200845.4144                   24200840.9964
 -21929533.44147 -17071652.59845  22516762.9614                   22516757.9414
 11  8 12  3 49  0.0000000  0  9G12G18G05G25G29G26G15G21G02
  -9882285.14847  -7686355.23845  23302915.1644                   23302912.1724
   5144856.30146   4020077.89143  24124415.1334                   24124411.0784
 -17879594.68748 -13918530.94946  21432663.4144                   21432659.6764
 -10430248.37547  -8113643.95745  22252652.1954                   22252650.9384
 -15590666.66848 -12138107.57846  20759536.0004                   20759532.6764
 -10283532.39547  -8006104.02045  21707551.1024                   21707548.3014
  -4767188.50447  -3703183.04745  22382029.7034                   22382026.0824
   2320728.72346   1815784.18443  24187533.8984                   24187530.1724
 -21889970.66047 -17040824.48445  22524291.0784                   22524286.4844
 11  8 12  3 49 30.0000000  0  9G12G18G05G25G29G26G15G21G02
  -9799593.28147  -7621919.99244  23318651.0394                   23318647.3594
   5048095.32446   3944679.73843  24106001.4534                   24105997.0784
 -17818527.77748 -13870946.35246  21444283.8134                   21444280.1644
 -10380394.82447  -8074797.02745  22262138.7734                   22262137.8484
 -15656939.52048 -12189748.74646  20746924.7344                   20746921.3714
 -10357675.81247  -8063878.08645  21693442.2734                   21693439.7624
  -4868373.89147  -3782028.77045  22362774.8834                   22362771.1994
   2250766.28946   1761268.09043  24174220.7814                   24174216.3054
 -21850284.71147 -17009900.39545  22531843.0164                   22531838.0084
 11  8 12  3 50  0.0000000  0  9G12G18G05G25G29G26G15G21G02
  -9716824.62547  -7557424.93444  23334400.7584                   23334397.7504
   4951538.37946   3869440.60543  24087627.5234                   24087623.5204
 -17757195.73048 -13823155.14846  21455954.6254                   21455951.4654
 -10330178.09847  -8035667.11345  22271694.6484                   22271693.8364
 -15722843.59848 -12241102.57046  20734383.7814                   20734380.0394
 -10431317.04347  -8121260.83245  21679428.6254                   21679426.1254
  -4969330.34447  -3860696.09845  22343563.4144                   22343560.3674
   2180790.21946   1706741.38343  24160904.2584                   24160900.8914
 -21810474.61747 -16978879.56645  22539418.8834                   22539414.2154
 11  8 12  3 50 30.0000000  0  9G12G18G05G25G29G26G15G21G02
  -9633982.96547  -7492873.00044  23350165.3444                   23350161.9304
   4855185.68446   3794360.59843  24069292.4694                   24069289.4924
 -17695602.25448 -13775160.24246  21467675.5704                   21467671.6604
 -10279602.39547  -7996257.47745  22281319.1484                   22281318.8634
 -15788378.09448 -12292168.40246  20721912.4614                   20721909.1414
 -10504454.35947  -8178250.91045  21665511.2734                   21665507.8984
  -5070056.21947  -3939183.76645  22324395.9534                   22324393.1884
   2110799.34446   1652203.14844  24147585.9454                   24147582.4694
 -21770541.30547 -16947762.71145  22547018.1334                   22547013.1414
 11  8 12  3 51  0.0000000  0  9G12G18G05G25G29G26G15G21G02
  -9551070.59047  -7428265.96544  23365942.9924                   23365940.0204
   4759039.28946   3719441.35943  24050995.9144                   24050993.1564
 -17633748.51248 -13726962.52746  21479446.0474                   21479442.7074
 -10228669.49647  -7956569.49245  22291011.1094                   22291010.5824
 -15853539.67648 -12342943.65646  20709512.8984                   20709509.3984
 -10577083.33247  -8234844.87945  21651690.4694                   21651687.2074
  -5170546.96547  -4017488.20345  22305273.7274                   22305270.0004
   2040794.23446   1597653.78544  24134264.6174                   24134260.8404
 -21730483.05547 -16916548.50845  22554641.0394                   22554636.0274
 11  8 12  3 51 30.0000000  0  9G12G18G05G25G29G26G15G21G02
  -9468092.01247  -7363607.32844  23381733.0784                   23381730.1374
   4663098.64146   3644682.41043  24032739.4064                   24032735.3014
 -17571639.01248 -13678565.52346  21491265.1254                   21491261.7934
 -10177383.77747  -7916606.59446  22300770.7504                   22300769.7464
 -15918327.50848 -12393427.67246  20697184.1804                   20697180.9884
 -10649202.24247  -8291041.40245  21637966.0474                   21637963.2424
  -5270801.10547  -4095608.28145  22286195.1884                   22286192.2504
   1970773.23046   1543092.09044  24120939.5314                   24120936.0824
 -21690301.06247 -16885237.87945  22562287.3754                   22562282.6604
 11  8 12  3 52  0.0000000  0  9G12G18G05G25G29G26G15G21G02
  -9385048.34847  -7298897.98444  23397535.7974                   23397532.9494
   4567366.45346   3570085.91443  24014522.3284                   24014517.6174
 -17509273.69948 -13629969.17646  21503133.1334                   21503129.4384
 -10125746.55947  -7876369.80145  22310596.4144                   22310596.1054
 -15982737.44948 -12443617.21946  20684927.7034                   20684923.7704
 -10720806.55147  -8346836.93045  21624340.5084                   21624337.5314
  -5370813.96947  -4173540.35545  22267163.3984                   22267160.4264
   1900737.35946   1488518.81643  24107612.2194                   24107608.3244
 -21649993.50447 -16853829.42245  22569957.5634                   22569952.8364
 11  8 12  3 52 30.0000000  0  9G12G18G05G25G29G26G15G21G02
  -9301943.09447  -7234140.63344  23413350.1724                   23413347.4384
   4471843.47346   3495652.44143  23996344.6334                   23996341.2504
 -17446655.93748 -13581176.12146  21515048.4774                   21515045.2734
 -10073761.35247  -7835861.83245  22320489.2814                   22320488.0744
 -16046768.03948 -12493511.17246  20672742.6644                   20672739.3284
 -10791893.64847  -8402229.43745  21610813.0634                   21610810.2814
  -5470582.92647  -4251282.36745  22248178.2274                   22248174.8954
   1830685.75446   1433933.25444  24094282.3054                   24094278.3834
 -21609560.49647 -16822323.21545  22577651.8914                   22577646.9104
 11  8 12  3 53  0.0000000  0  9G12G18G05G25G29G26G15G21G02
  -9218780.10947  -7169338.32044  23429175.7734                   23429172.5944
   4376530.15246   3421382.36743  23978206.8674                   23978203.4804
 -17383788.74648 -13532188.70746  21527012.0704                   21527008.2934
 -10021431.46147  -7795085.29346  22330447.3204                   22330446.8714
 -16110417.55148 -12543108.17646  20660630.8364                   20660627.1214
 -10862460.79747  -8457216.78945  21597384.5784                   21597381.8204
  -5570105.21947  -4328832.17645  22229239.4534                   22229236.1214
   1760617.71546   1379334.91044  24080947.7664                   24080944.6954
 -21569002.13347 -16790719.31645  22585369.8914                   22585364.7704
